[[{"header":{"parameterUnit":"m.s-1","parameterCategory":1,"la1":30.6,"la2":29.2853,"lo1":-89.7004,"lo2":-87.6739,"dy":0.0162,"dx":0.0183,"nx":112,"ny":82,"refTime":"2024-08-20T06:00:00:Z","depth":0,"parameterNumber":2,"parameterNumberName":"U-component_of_WINDS"},"data":[0.0,0.0,0.0,0.0,0.0,0.0,0.0,0.0,0.0,0.0,0.0,0.0,0.0,0.0,0.0,0.0,0.0,0.0,0.0,0.0,0.0,0.0,0.0,0.0,0.0,0.0,0.0,0.0,0.0,0.0,0.0,0.0,0.0,0.0,0.0,0.0,0.0,0.0,0.0,0.0,0.0,0.0,0.0,0.0,0.0,0.0,0.0,0.0,0.0,0.0,0.0,0.0,0.0,0.0,0.0,0.0,0.0,0.0,0.0,0.0,0.0,0.0,0.0,0.0,0.0,0.0,0.0,0.0,0.0,0.0,0.0,0.0,0.0,0.0,0.0,0.0,0.0,0.0,0.0,0.0,0.0,0.0,0.0,0.0,0.0,0.0,0.0,0.0,0.0,0.0,-1.0448,-1.1465,-1.2942,-1.381,-1.3692,-1.316,-1.1763,-0.9253,0.0,0.0,0.0,0.0,0.0,0.0,0.0,0.0,0.0,0.0,0.0,0.0,0.0,0.0,0.0,0.0,0.0,0.0,0.0,0.0,0.0,0.0,0.0,0.0,0.0,0.0,0.0,0.0,0.0,0.0,0.0,0.0,0.0,0.0,0.0,0.0,0.0,0.0,0.0,0.0,0.0,0.0,0.0,0.0,0.0,0.0,0.0,0.0,0.0,0.0,0.0,0.0,0.0,0.0,0.0,0.0,0.0,0.0,0.0,0.0,0.0,0.0,0.0,0.0,0.0,0.0,0.0,0.0,0.0,0.0,0.0,0.0,0.0,0.0,0.0,0.0,0.0,0.0,0.0,0.0,0.0,0.0,0.0,0.0,0.0,0.0,0.0,0.0,0.0,0.0,0.0,0.0,0.0,0.0,0.0,0.0,0.0,0.0,0.0,0.0,0.0,0.0,0.0,0.0,-1.1149,-1.3475,-1.398,-1.386,-1.3182,-1.3028,-1.1717,-0.8795,0.0,0.0,0.0,0.0,0.0,0.0,0.0,0.0,0.0,0.0,0.0,0.0,0.0,0.0,0.0,0.0,0.0,0.0,0.0,0.0,0.0,0.0,0.0,0.0,0.0,0.0,0.0,0.0,0.0,0.0,0.0,0.0,0.0,0.0,0.0,0.0,0.0,0.0,0.0,0.0,0.0,0.0,0.0,0.0,0.0,0.0,0.0,0.0,0.0,0.0,0.0,0.0,0.0,0.0,0.0,0.0,0.0,0.0,0.0,0.0,0.0,0.0,0.0,0.0,0.0,0.0,0.0,0.0,0.0,0.0,0.0,0.0,0.0,0.0,0.0,0.0,0.0,0.0,0.0,0.0,0.0,0.0,0.0,0.0,0.0,0.0,0.0,0.0,0.0,0.0,0.0,0.0,0.0,0.0,0.0,0.0,0.0,0.0,0.0,0.0,0.0,0.0,0.0,-0.9926,-1.1213,-1.3616,-1.3575,-1.3238,-1.2876,-1.2696,-1.1576,-0.9086,-0.8662,0.0,0.0,0.0,0.0,0.0,0.0,0.0,0.0,0.0,0.0,0.0,0.0,0.0,0.0,0.0,0.0,0.0,0.0,0.0,0.0,0.0,0.0,0.0,0.0,0.0,0.0,0.0,0.0,0.0,0.0,0.0,0.0,0.0,0.0,0.0,0.0,0.0,0.0,0.0,0.0,0.0,0.0,0.0,0.0,0.0,0.0,0.0,0.0,0.0,0.0,0.0,0.0,0.0,0.0,0.0,0.0,0.0,0.0,0.0,0.0,0.0,0.0,0.0,0.0,0.0,0.0,0.0,0.0,0.0,0.0,0.0,0.0,0.0,0.0,0.0,0.0,0.0,0.0,0.0,0.0,0.0,0.0,0.0,0.0,0.0,0.0,0.0,0.0,0.0,0.0,0.0,0.0,0.0,0.0,0.0,0.0,0.0,0.0,0.0,0.0,0.0,0.0,-1.0758,-1.133,-1.3231,-1.3019,-1.2725,-1.27,-1.2229,-1.1132,-0.9253,-0.8474,0.0,0.0,0.0,0.0,0.0,0.0,0.0,0.0,0.0,0.0,0.0,0.0,0.0,0.0,0.0,0.0,0.0,0.0,0.0,0.0,0.0,0.0,0.0,0.0,0.0,0.0,0.0,0.0,0.0,0.0,0.0,0.0,0.0,0.0,0.0,0.0,0.0,0.0,0.0,0.0,0.0,0.0,0.0,0.0,0.0,0.0,0.0,0.0,0.0,0.0,0.0,0.0,0.0,0.0,0.0,0.0,0.0,0.0,0.0,0.0,0.0,0.0,0.0,0.0,0.0,0.0,0.0,0.0,0.0,0.0,0.0,0.0,0.0,0.0,0.0,0.0,0.0,0.0,0.0,0.0,0.0,0.0,0.0,0.0,0.0,0.0,0.0,0.0,0.0,0.0,0.0,0.0,0.0,0.0,0.0,0.0,0.0,0.0,0.0,0.0,0.0,0.0,-1.0656,-1.1881,-1.2846,-1.2917,-1.2844,-1.2713,-1.1537,-1.0191,-0.8739,-0.7504,0.0,0.0,0.0,0.0,0.0,0.0,0.0,0.0,0.0,0.0,0.0,0.0,0.0,0.0,0.0,0.0,0.0,0.0,0.0,0.0,0.0,0.0,0.0,0.0,0.0,0.0,0.0,0.0,0.0,0.0,0.0,0.0,0.0,0.0,0.0,0.0,0.0,0.0,0.0,0.0,0.0,0.0,0.0,0.0,0.0,0.0,0.0,0.0,0.0,0.0,0.0,0.0,0.0,0.0,0.0,0.0,0.0,0.0,0.0,0.0,0.0,0.0,0.0,0.0,0.0,0.0,0.0,0.0,0.0,0.0,0.0,0.0,0.0,0.0,0.0,0.0,0.0,0.0,0.0,0.0,0.0,0.0,0.0,0.0,0.0,0.0,0.0,0.0,0.0,0.0,0.0,0.0,0.0,0.0,0.0,0.0,0.0,0.0,0.0,0.0,0.0,0.0,-1.0312,-1.1612,0.0,-1.2905,-1.2881,-1.2832,-1.2018,-1.0814,-0.9194,0.0,0.0,0.0,0.0,0.0,0.0,0.0,0.0,0.0,0.0,0.0,0.0,0.0,0.0,0.0,0.0,0.0,0.0,0.0,0.0,0.0,0.0,0.0,0.0,0.0,0.0,0.0,0.0,0.0,0.0,0.0,0.0,0.0,0.0,0.0,0.0,0.0,0.0,0.0,0.0,0.0,0.0,0.0,0.0,0.0,0.0,0.0,0.0,0.0,0.0,0.0,0.0,0.0,0.0,0.0,0.0,0.0,0.0,0.0,0.0,0.0,0.0,0.0,0.0,0.0,0.0,0.0,0.0,0.0,0.0,0.0,0.0,0.0,0.0,0.0,0.0,0.0,0.0,0.0,0.0,0.0,0.0,0.0,0.0,0.0,0.0,0.0,0.0,0.0,0.0,0.0,0.0,0.0,0.0,0.0,0.0,0.0,0.0,0.0,0.0,0.0,0.0,-0.8877,-1.0391,-1.1774,0.0,-1.2905,-1.2832,-1.2652,-1.178,-1.0591,-0.905,0.0,0.0,0.0,0.0,0.0,0.0,0.0,0.0,0.0,0.0,0.0,0.0,0.0,0.0,0.0,0.0,0.0,0.0,0.0,0.0,0.0,0.0,0.0,0.0,0.0,0.0,0.0,0.0,0.0,0.0,0.0,0.0,0.0,0.0,0.0,0.0,0.0,0.0,0.0,0.0,0.0,0.0,0.0,0.0,0.0,0.0,0.0,0.0,0.0,0.0,0.0,0.0,0.0,0.0,0.0,0.0,0.0,0.0,0.0,0.0,0.0,0.0,0.0,0.0,0.0,0.0,0.0,0.0,0.0,0.0,0.0,0.0,0.0,0.0,0.0,0.0,0.0,0.0,0.0,0.0,0.0,0.0,0.0,0.0,0.0,0.0,0.0,0.0,0.0,0.0,0.0,0.0,0.0,0.0,0.0,0.0,0.0,0.0,0.0,0.0,0.0,0.0,-0.8982,-1.1002,-1.2525,-1.2868,-1.2905,-1.2698,-1.215,-1.0572,-0.9155,0.0,0.0,0.0,0.0,0.0,0.0,0.0,0.0,0.0,0.0,0.0,0.0,0.0,0.0,0.0,0.0,0.0,0.0,0.0,0.0,0.0,0.0,0.0,0.0,0.0,0.0,0.0,0.0,0.0,0.0,0.0,0.0,0.0,0.0,0.0,0.0,0.0,0.0,0.0,0.0,0.0,0.0,0.0,0.0,0.0,0.0,0.0,0.0,0.0,0.0,0.0,0.0,0.0,0.0,0.0,0.0,0.0,0.0,0.0,0.0,0.0,0.0,0.0,0.0,0.0,0.0,0.0,0.0,0.0,0.0,0.0,0.0,0.0,0.0,0.0,0.0,0.0,0.0,0.0,0.0,0.0,0.0,0.0,0.0,0.0,0.0,0.0,0.0,0.0,0.0,0.0,0.0,0.0,0.0,0.0,0.0,0.0,0.0,0.0,0.0,0.0,0.0,0.0,-0.9652,-1.1572,-1.2926,-1.3029,-1.2954,-1.2844,-1.2676,-1.1343,-1.0021,-0.8848,0.0,0.0,0.0,0.0,0.0,0.0,0.0,0.0,0.0,0.0,0.0,0.0,0.0,0.0,0.0,0.0,0.0,0.0,0.0,0.0,0.0,0.0,0.0,0.0,0.0,0.0,0.0,0.0,0.0,0.0,0.0,0.0,0.0,0.0,0.0,0.0,0.0,0.0,0.0,0.0,0.0,0.0,0.0,0.0,0.0,0.0,0.0,0.0,0.0,0.0,0.0,0.0,0.0,0.0,0.0,0.0,0.0,0.0,0.0,0.0,0.0,0.0,0.0,0.0,0.0,0.0,0.0,0.0,0.0,0.0,0.0,0.0,0.0,0.0,0.0,0.0,0.0,0.0,0.0,0.0,0.0,0.0,0.0,0.0,0.0,0.0,0.0,0.0,0.0,0.0,0.0,0.0,0.0,0.0,0.0,0.0,0.0,0.0,0.0,0.0,0.0,0.0,-0.9769,-1.1685,-1.3017,-1.3128,-1.2825,-1.2522,-1.2317,-1.1214,-1.0002,-0.874,0.0,0.0,0.0,0.0,0.0,0.0,0.0,0.0,0.0,0.0,0.0,0.0,0.0,0.0,0.0,0.0,0.0,0.0,0.0,0.0,0.0,0.0,0.0,0.0,0.0,0.0,0.0,0.0,0.0,0.0,0.0,0.0,0.0,0.0,0.0,0.0,0.0,0.0,0.0,0.0,0.0,0.0,0.0,0.0,0.0,0.0,0.0,0.0,0.0,0.0,0.0,0.0,0.0,0.0,0.0,0.0,0.0,0.0,0.0,0.0,0.0,0.0,0.0,0.0,0.0,0.0,0.0,0.0,0.0,0.0,0.0,0.0,0.0,0.0,0.0,0.0,0.0,0.0,0.0,0.0,0.0,0.0,0.0,0.0,0.0,0.0,0.0,0.0,0.0,0.0,0.0,0.0,0.0,0.0,0.0,0.0,0.0,0.0,0.0,0.0,0.0,0.0,-0.9592,-1.1467,-1.2852,-1.3086,-1.2552,-1.1987,-1.1466,-1.0577,-0.9502,-0.8214,0.0,0.0,0.0,0.0,0.0,0.0,0.0,0.0,0.0,0.0,0.0,0.0,0.0,0.0,0.0,0.0,0.0,0.0,0.0,0.0,0.0,0.0,0.0,0.0,0.0,0.0,0.0,0.0,0.0,0.0,0.0,0.0,0.0,0.0,0.0,0.0,0.0,0.0,0.0,0.0,0.0,0.0,0.0,0.0,0.0,0.0,0.0,0.0,0.0,0.0,0.0,0.0,0.0,0.0,0.0,0.0,0.0,0.0,0.0,0.0,-0.7722,-0.7246,0.0,0.0,0.0,0.0,0.0,0.0,0.0,0.0,0.0,0.0,0.0,0.0,0.0,0.0,0.0,0.0,0.0,0.0,0.0,0.0,0.0,0.0,0.0,0.0,0.0,0.0,0.0,0.0,0.0,0.0,0.0,0.0,0.0,0.0,0.0,0.0,0.0,0.0,0.0,0.0,-1.0011,-1.1462,-1.2434,-1.2495,-1.2274,-1.1993,-1.166,-1.0819,-0.9985,-0.9223,-0.7754,0.0,0.0,0.0,0.0,0.0,0.0,0.0,0.0,0.0,0.0,0.0,0.0,0.0,0.0,0.0,0.0,0.0,0.0,0.0,0.0,0.0,0.0,0.0,0.0,0.0,0.0,0.0,0.0,0.0,0.0,0.0,0.0,0.0,0.0,0.0,0.0,0.0,0.0,0.0,0.0,0.0,0.0,0.0,0.0,0.0,0.0,0.0,0.0,0.0,0.0,0.0,0.0,0.0,0.0,0.0,0.0,0.0,0.0,0.0,-0.9695,-0.8874,0.0,0.0,0.0,0.0,0.0,0.0,0.0,0.0,0.0,0.0,0.0,0.0,0.0,0.0,0.0,0.0,0.0,0.0,0.0,0.0,0.0,0.0,0.0,0.0,0.0,0.0,0.0,0.0,0.0,0.0,0.0,0.0,0.0,0.0,0.0,0.0,0.0,0.0,0.0,0.0,-1.0323,-1.1433,-1.224,-1.2598,-1.2136,-1.1765,-1.1628,-1.0897,-1.0189,-0.9585,-0.8464,0.0,0.0,0.0,0.0,0.0,0.0,0.0,0.0,0.0,0.0,0.0,0.0,0.0,0.0,0.0,0.0,0.0,0.0,0.0,0.0,0.0,0.0,0.0,0.0,0.0,0.0,0.0,0.0,0.0,0.0,0.0,0.0,0.0,0.0,0.0,0.0,0.0,0.0,0.0,0.0,0.0,0.0,0.0,0.0,0.0,0.0,0.0,0.0,0.0,0.0,0.0,0.0,0.0,-1.2952,-1.3773,-1.5033,-1.4664,-1.4738,-1.4981,-1.1996,-1.1067,-1.1597,-1.0411,0.0,0.0,0.0,0.0,0.0,0.0,0.0,0.0,0.0,0.0,0.0,0.0,0.0,0.0,0.0,0.0,0.0,0.0,0.0,0.0,0.0,0.0,-1.143,-1.1977,-1.235,-1.1861,-0.9201,0.0,0.0,0.0,0.0,0.0,0.0,0.0,0.0,0.0,0.0,0.0,-1.0606,-1.1483,-1.22,-1.273,-1.2051,-1.1509,-1.1402,-1.0884,-1.0305,-0.9711,-0.9105,-0.8482,0.0,0.0,0.0,0.0,0.0,0.0,0.0,0.0,0.0,0.0,0.0,0.0,0.0,0.0,0.0,0.0,0.0,0.0,0.0,0.0,0.0,0.0,0.0,0.0,0.0,0.0,0.0,0.0,0.0,0.0,0.0,0.0,-0.4774,-0.5314,0.0,0.0,0.0,0.0,0.0,0.0,0.0,0.0,0.0,0.0,0.0,0.0,0.0,-1.2565,-1.3903,-1.4776,-1.5097,-1.4894,-1.5547,-1.5654,-1.5278,-1.5544,-1.5714,-1.5761,-1.5281,0.0,-1.3151,-1.2332,0.0,0.0,0.0,0.0,0.0,0.0,0.0,0.0,0.0,0.0,0.0,0.0,0.0,0.0,0.0,0.0,0.0,0.0,0.0,0.0,0.0,0.0,-1.3596,-1.3348,-1.3316,-1.3239,-1.2808,-1.1217,-0.9638,-0.8899,-0.8537,-0.8205,0.0,0.0,0.0,0.0,0.0,0.0,-1.0948,-1.1804,-1.2236,-1.1986,-1.1838,-1.1558,-1.1023,-1.0896,-1.0587,-0.999,-0.9643,-0.9189,-0.8579,-0.792,0.0,0.0,0.0,0.0,0.0,0.0,0.0,0.0,0.0,0.0,0.0,0.0,0.0,0.0,0.0,0.0,0.0,0.0,0.0,0.0,0.0,0.0,0.0,0.0,0.0,0.0,0.0,0.0,0.0,-0.4994,-0.5795,-0.6788,-0.7014,-0.7156,0.0,0.0,0.0,0.0,0.0,0.0,0.0,0.0,0.0,-1.3393,-1.4336,-1.5142,-1.582,-1.67,-1.7216,-1.7387,-1.7813,-1.8039,-1.8052,-1.8347,-1.8409,-1.8322,-1.8322,-1.7615,-1.6351,-1.479,-1.3539,-1.2586,0.0,0.0,0.0,0.0,-1.2324,-1.2666,-1.3085,-1.3102,-1.2911,-1.2675,0.0,0.0,0.0,0.0,0.0,0.0,0.0,-1.2671,-1.3105,-1.3965,-1.4733,-1.4775,-1.4721,-1.4624,-1.4624,-1.3425,-1.2059,-1.1105,-1.0792,-1.0354,-0.9322,-0.898,0.0,0.0,0.0,-1.0766,-1.1713,-1.2157,-1.2415,-1.2475,-1.2273,-1.1942,-1.1458,-1.1411,-1.115,-1.0534,-1.0395,-1.0056,-0.9462,-0.9005,-0.8379,0.0,0.0,0.0,0.0,0.0,0.0,0.0,0.0,0.0,0.0,0.0,0.0,0.0,0.0,0.0,0.0,0.0,0.0,0.0,0.0,0.0,0.0,0.0,0.0,0.0,0.0,0.0,0.0,-0.5976,-0.6923,-0.8156,-0.8567,-0.8869,0.0,0.0,0.0,0.0,0.0,0.0,-1.349,-1.4228,-1.498,-1.5848,-1.6836,-1.7451,-1.766,-1.8374,-1.8938,-1.9389,-1.9542,-1.9832,-2.0277,-2.0437,-2.0416,-2.0277,-2.0277,-1.9859,-1.9004,-1.7014,-1.5721,-1.4985,-1.489,-1.4734,-1.4578,-1.4761,-1.4916,-1.5063,-1.5514,-1.5506,-1.5246,-1.4972,-1.4387,-1.3642,-1.285,0.0,0.0,0.0,0.0,-1.4219,-1.506,-1.5557,-1.587,-1.6065,-1.5972,-1.5834,-1.5721,-1.5157,-1.4298,-1.3078,-1.2749,-1.2321,-1.1165,-1.069,0.0,-1.0798,-1.1101,-1.1588,-1.2432,-1.2634,-1.2757,-1.2977,-1.2729,-1.2389,-1.1985,-1.1861,-1.1577,-1.1053,-1.0946,-1.0667,-1.0154,-0.994,-0.9434,-0.8572,0.0,0.0,0.0,0.0,0.0,0.0,0.0,0.0,0.0,0.0,0.0,0.0,0.0,0.0,0.0,0.0,0.0,0.0,0.0,0.0,0.0,0.0,0.0,0.0,0.0,0.0,0.0,0.0,0.0,-0.9028,-1.0436,0.0,0.0,0.0,0.0,-1.2851,-1.4303,-1.5432,-1.5903,-1.6794,-1.7844,-1.9034,-1.9126,-1.9529,-2.0308,-2.0363,-2.0399,-2.0415,-2.0436,-2.0463,-2.05,-2.05,-2.05,-2.0479,-2.0479,-2.0355,-2.0018,-1.8635,-1.7819,-1.7391,-1.7062,-1.7125,-1.7356,-1.6999,-1.7106,-1.7364,-1.7025,-1.6901,-1.69,-1.7006,-1.6541,-1.5974,-1.6094,-1.5646,0.0,0.0,-1.5975,-1.6349,-1.6777,-1.7177,-1.7391,-1.7035,-1.6883,-1.6723,-1.6342,-1.621,-1.5754,-1.4294,-1.3708,-1.3419,-1.3333,0.0,-1.2832,-1.2849,-1.2866,-1.2914,-1.2952,-1.3245,-1.3331,-1.3029,-1.2977,-1.2806,-1.2398,-1.2011,-1.1674,-1.1391,-1.1074,-1.0769,-1.0496,-1.0467,-1.0158,-0.9541,-0.8534,0.0,0.0,0.0,0.0,0.0,0.0,0.0,0.0,0.0,0.0,0.0,0.0,0.0,0.0,0.0,0.0,0.0,0.0,0.0,0.0,0.0,0.0,0.0,0.0,0.0,0.0,0.0,0.0,-1.107,-1.2508,0.0,-1.427,-1.5081,-1.5587,-1.5622,-1.6277,-1.6835,-1.7243,-1.7907,-1.8595,-1.9283,-1.9806,-2.0326,-2.0875,-2.1141,-2.1279,-2.1279,-2.1279,-2.1279,-2.1279,-2.1279,-2.1279,-2.1279,-2.1279,-2.1244,-2.112,-2.0649,-1.991,-1.9074,-1.8941,-1.8967,-1.9065,-1.8912,-1.8967,-1.9065,-1.8912,-1.8707,-1.8421,-1.797,-1.7483,-1.7077,-1.715,-1.6991,-1.683,-1.7054,-1.7216,-1.7351,-1.7642,-1.7814,-1.7887,-1.7742,-1.7595,-1.744,-1.7305,-1.6964,-1.6501,-1.5896,-1.5345,-1.4839,-1.4354,-1.4061,-1.3891,-1.3891,-1.3791,-1.3809,-1.4057,-1.3964,-1.3836,-1.3732,-1.3476,-1.3183,-1.2814,-1.2415,-1.203,-1.1686,-1.134,-1.1036,-1.0769,-1.0756,-1.0572,-1.0187,-0.9237,-0.8367,0.0,0.0,0.0,0.0,0.0,0.0,0.0,0.0,0.0,0.0,0.0,0.0,0.0,0.0,0.0,0.0,0.0,0.0,0.0,0.0,0.0,0.0,0.0,0.0,0.0,-0.9602,-1.1393,-1.278,-1.4436,-1.5724,-1.6382,-1.688,-1.7361,-1.7812,-1.806,-1.8397,-1.8943,-1.9452,-1.9831,-2.0097,-2.0628,-2.1031,-2.1297,-2.1572,-2.1696,-2.1696,-2.1696,-2.1696,-2.1696,-2.1696,-2.1696,-2.1696,-2.1696,-2.1696,-2.1696,-2.1696,-2.1222,-2.0516,-2.0516,-2.0516,-2.0498,-2.0363,-2.0309,-2.0291,-2.0144,-1.9886,-1.9528,-1.9102,-1.875,-1.8485,-1.8554,-1.8475,-1.8395,-1.8474,-1.8403,-1.8342,-1.8475,-1.8503,-1.8466,-1.8338,-1.8207,-1.8068,-1.7932,-1.7586,-1.7269,-1.7195,-1.6484,-1.5724,-1.5163,-1.4849,-1.4665,-1.4665,-1.4456,-1.4409,-1.4666,-1.4469,-1.429,-1.429,-1.3939,-1.3613,-1.3389,-1.2772,-1.2286,-1.2011,-1.1563,-1.1226,-1.1036,-1.1036,-1.0909,-1.065,-0.9623,-0.878,-0.813,0.0,0.0,0.0,0.0,0.0,0.0,0.0,0.0,0.0,0.0,0.0,0.0,0.0,0.0,0.0,0.0,0.0,0.0,0.0,0.0,0.0,0.0,0.0,-0.9309,-1.1742,-1.3735,-1.3987,-1.6175,-1.7612,-1.7551,-1.7944,-1.8531,-1.932,-1.974,-2.0298,-2.1089,-2.1498,-2.1718,-2.1727,-2.1727,-2.1714,-2.1733,-2.1733,-2.1733,-2.1733,-2.1733,-2.1733,-2.1733,-2.1714,-2.1727,-2.1727,-2.1718,-2.1696,-2.1696,-2.1696,-2.1696,-2.1696,-2.1696,-2.1696,-2.1641,-2.1251,-2.1126,-2.105,-2.0665,-2.041,-2.0262,-2.0455,-2.0392,-2.0256,-2.0437,-2.0234,-1.9923,-1.9923,-1.963,-1.9338,-1.9338,-1.9329,-1.9228,-1.8824,-1.8723,-1.8604,-1.8219,-1.8137,-1.8118,-1.8109,-1.7045,-1.6079,-1.5893,-1.5514,-1.524,-1.5232,-1.4957,0.0,-1.4734,-1.4726,-1.4717,-1.4717,-1.4366,-1.411,-1.4093,-1.308,-1.2415,-1.2403,-1.1717,-1.1318,-1.1318,-1.1318,-1.1192,-1.0926,-0.9763,-0.8848,-0.822,0.0,0.0,0.0,0.0,0.0,0.0,0.0,0.0,0.0,0.0,0.0,0.0,0.0,0.0,0.0,0.0,0.0,0.0,0.0,0.0,0.0,-1.0361,-1.1478,-1.0842,-1.285,-1.4413,-1.4423,-1.6997,-1.8754,-1.8731,-1.9922,-2.079,-2.1022,-2.1129,-2.1293,-2.1526,-2.1632,-2.1824,-2.213,-2.214,-2.2286,-2.2574,-2.2574,-2.2574,-2.2574,-2.2574,-2.2574,-2.2565,-2.2277,-2.214,-2.2121,-2.1837,-2.1696,-2.1696,-2.1696,-2.1696,-2.1696,-2.1696,-2.1696,-2.17,-2.1581,-2.1544,-2.1526,-2.1416,-2.1134,-2.0866,-2.0921,-2.0686,-2.0437,-2.0479,-2.0418,-2.0335,-2.0335,-2.0253,-2.0161,-2.0161,-1.995,-1.9712,-1.9602,-1.9346,-1.9109,-1.8979,-1.8732,-1.8492,-1.835,-1.768,-1.7104,-1.7045,-1.6706,-1.6325,-1.6053,-1.5705,-1.5497,-1.5497,-1.5249,-1.5052,-1.5052,-1.476,-1.4426,-1.4119,-1.3545,-1.2971,-1.2423,-1.1931,-1.1661,-1.1661,-1.1661,-1.1543,-1.1267,-1.0749,-0.9875,0.0,0.0,0.0,0.0,0.0,0.0,0.0,0.0,0.0,0.0,0.0,0.0,0.0,0.0,0.0,0.0,0.0,0.0,0.0,0.0,0.0,0.0,-1.1968,-1.2962,-1.306,-1.4783,-1.6005,-1.5906,-1.8466,-2.0187,-2.001,-2.1039,-2.1696,-2.1696,-2.1696,-2.1696,-2.1696,-2.1696,-2.1797,-2.2048,-2.2213,-2.2414,-2.2638,-2.2821,-2.2904,-2.2904,-2.2904,-2.2904,-2.2895,-2.2657,-2.2538,-2.2529,-2.23,-2.2199,-2.219,-2.2007,-2.1956,-2.1925,0.0,0.0,0.0,0.0,-2.1696,-2.1696,-2.1696,-2.1553,-2.1352,-2.1352,-2.1196,-2.1004,-2.1004,-2.0885,-2.0747,-2.0747,-2.0628,-2.05,-2.05,-2.0326,-2.0152,-2.0152,-1.984,-1.9547,-1.9547,-1.9246,-1.8914,-1.8788,-1.85,0.0,-1.7915,-1.7402,-1.6924,-1.6608,-1.6332,-1.6128,-1.5955,-1.5652,-1.5446,-1.5446,-1.5129,-1.4812,-1.4581,-1.4067,0.0,0.0,0.0,-1.223,-1.2067,-1.2045,0.0,0.0,0.0,0.0,0.0,-0.9359,0.0,0.0,-0.8059,-0.7847,0.0,0.0,0.0,0.0,0.0,0.0,0.0,0.0,0.0,0.0,0.0,0.0,0.0,0.0,0.0,0.0,-1.3745,-1.4569,-1.5384,-1.6876,-1.784,-1.7689,-1.9992,-2.1431,-2.1065,-2.1469,-2.1742,-2.1696,-2.1733,-2.1782,-2.1782,-2.1806,0.0,0.0,0.0,-2.2396,-2.2442,-2.2785,-2.2995,-2.3041,-2.3041,-2.3041,-2.3041,-2.2995,-2.2968,-2.2968,-2.2931,-2.2904,-2.2876,-2.2501,-2.2378,-2.2323,-2.1861,-2.1696,-2.1696,-2.1696,-2.1696,-2.1696,-2.1696,0.0,0.0,-2.1696,-2.1696,-2.1696,-2.1696,-2.1453,-2.1181,-2.1181,-2.0903,-2.0637,-2.0637,-2.0601,-2.0564,-2.0564,-2.0262,-1.9978,-1.9978,-1.9648,-1.9375,-1.9375,-1.9309,-1.9093,-1.8581,-1.784,-1.7227,-1.696,-1.6816,-1.6584,-1.6175,-1.5981,-1.5848,-1.5805,-1.5489,0.0,-1.5198,-1.4607,-1.4042,-1.3605,-1.3294,-1.2917,-1.2468,-1.2507,-1.2177,-1.1466,-1.1451,-1.1587,-1.1867,-1.0562,-1.041,-1.1257,-0.94,-0.8867,0.0,0.0,0.0,0.0,0.0,0.0,0.0,0.0,0.0,0.0,0.0,0.0,0.0,0.0,0.0,-1.3212,-1.4526,-1.5608,-1.607,-1.7099,-1.7757,-1.755,-1.9525,-2.0787,-2.0558,-2.154,-2.2057,-2.1714,-2.2011,-2.2185,-2.2185,-2.2483,-2.2675,-2.2675,-2.2748,-2.294,-2.3251,-2.3343,-2.3569,-2.3947,-2.3947,0.0,-2.3929,-2.3559,-2.338,-2.3361,-2.305,-2.2904,-2.2904,-2.2821,-2.2785,-2.2712,-2.198,-2.1696,-2.1696,-2.1696,-2.1696,-2.1696,-2.1696,-2.1696,-2.1696,-2.1696,-2.1696,-2.1696,-2.1696,-2.1654,0.0,-2.1568,-2.1544,-2.1458,-2.1458,-2.1224,-2.0976,-2.0976,-2.0674,-2.0381,-2.0381,-2.0069,-1.9785,-1.9785,-1.9379,-1.9074,-1.9122,-1.8464,-1.7745,-1.7226,-1.6986,-1.6726,-1.6313,-1.627,-1.6167,-1.5831,-1.5737,-1.554,-1.5223,-1.5069,-1.4709,-1.4024,-1.3913,-1.3557,-1.2836,-1.3116,-1.2787,-1.1744,-1.172,-1.1521,-1.1112,-1.0874,-1.0767,-1.0726,-0.9798,-0.953,0.0,0.0,0.0,0.0,0.0,0.0,0.0,0.0,0.0,0.0,0.0,-1.1577,-1.2817,0.0,-1.423,-1.4937,-1.5618,-1.6206,-1.6672,-1.7182,-1.7798,-1.8566,-2.0025,-2.0981,-2.0941,-2.1955,-2.2234,-2.1371,-2.211,-2.2501,-2.2314,-2.2675,-2.2904,-2.2904,-2.3096,-2.3297,-2.3499,-2.3499,-2.3749,-2.4202,-2.3975,-2.3975,-2.4192,-2.3966,-2.3849,-2.384,-2.3639,-2.3556,-2.3538,-2.3312,-2.3087,-2.2867,-2.2455,-2.2172,-2.1984,-2.1769,-2.1696,-2.1696,-2.1696,-2.1696,-2.1696,-2.1696,-2.1696,-2.1696,-2.1696,-2.1696,-2.1696,-2.1696,-2.1696,-2.1696,-2.1696,-2.1553,-2.1398,-2.1398,-2.1086,-2.0793,-2.0793,-2.0482,-2.0143,-1.995,-1.9668,-1.9398,-1.9188,-1.8446,-1.7876,-1.781,-1.7546,-1.7216,-1.6792,-1.6683,-1.6567,-1.6361,-1.6164,-1.5976,-1.5814,-1.5083,-1.4316,-1.3558,-1.3311,-1.302,-1.2618,-1.2918,-1.2741,-1.1971,-1.2078,-1.2108,-1.2008,-1.1523,-1.1432,-1.1677,-1.0835,-1.044,0.0,0.0,0.0,0.0,0.0,0.0,0.0,0.0,-1.0841,-1.2622,-1.2949,-1.3384,-1.4956,-1.5292,-1.5615,-1.648,-1.6545,-1.6611,-1.7033,-1.7338,-1.8033,-1.9441,-2.0483,-2.12,-2.1444,-2.2342,-2.2425,-2.127,-2.2245,-2.2664,-2.2133,-2.2668,-2.2928,-2.2705,-2.3311,-2.3678,-2.3761,-2.3761,-2.3987,-2.444,-2.4051,-2.407,-2.444,-2.444,-2.4395,-2.4321,-2.4238,-2.4202,-2.4174,-2.3794,-2.3449,-2.3133,-2.305,-2.2812,-2.2478,-2.198,-2.1828,-2.1774,-2.1513,-2.1553,-2.1664,-2.1486,-2.1553,-2.1696,-2.1696,-2.1696,-2.1696,-2.1696,-2.1696,-2.1696,-2.1696,-2.1696,-2.1696,-2.1696,-2.1453,-2.1227,-2.1227,-2.0765,-2.0256,-1.9927,-1.9635,-1.9283,-1.873,-1.8024,-1.7654,-1.8079,-1.7715,-1.7226,-1.6799,-1.6737,-1.6644,-1.6425,-1.6412,-1.6374,-1.6245,-1.5122,-1.4039,-1.3218,-1.2865,-1.2626,-1.2469,-1.2668,-1.2551,-1.2078,-1.226,-1.2564,-1.2935,-1.2093,-1.2037,-1.2705,-1.1848,-1.1298,-0.893,-0.9648,-1.0357,-1.0618,-1.0987,-1.176,0.0,0.0,-1.4076,-1.5186,-1.5618,-1.5818,-1.5738,-1.6155,-1.6466,-1.6364,-1.6759,-1.7032,-1.678,-1.7829,-1.8694,-1.8878,-1.9791,-2.0655,-2.1254,-2.2271,-2.2683,-2.2171,-2.2596,-2.2466,-2.1479,-2.2694,-2.3006,-2.2031,-2.3383,-2.4287,-2.4638,-2.4638,-2.4865,-2.526,-2.5214,-2.5214,-2.526,-2.526,-2.5067,-2.4718,-2.4367,-2.4202,-2.4202,-2.4156,-2.411,-2.4012,-2.3596,-2.3398,-2.327,-2.2515,-2.224,-2.2062,-2.0877,-2.0997,-2.1553,-2.0741,-2.1019,-2.1696,-2.1696,-2.1696,-2.1696,-2.1696,-2.1696,-2.1696,-2.1696,-2.1696,-2.1696,-2.1696,-2.1682,-2.1623,-2.1623,-2.0647,-1.9786,-1.9743,-1.8714,-1.7736,-1.7383,-1.7083,-1.6951,-1.7135,-1.6451,-1.5736,-1.5143,-1.5723,-1.5779,-1.4706,-1.5937,-1.652,-1.5755,-1.5531,-1.5053,-1.4197,-1.4111,-1.3754,-1.305,-1.3038,-1.2707,-1.1949,-1.1959,-1.2105,-1.2388,-1.2105,-1.2114,-1.2445,-1.2081,-1.1681,-1.0825,-1.1548,-1.212,0.0,-1.3272,-1.3841,-1.5031,-1.51,-1.5262,-1.638,-1.656,-1.6593,-1.6807,-1.7048,-1.7174,0.0,-1.7267,-1.7381,-1.7235,-1.7729,-1.8046,-1.7898,-1.8727,-1.9397,-1.96,-2.1028,-2.1589,-2.0676,-2.2515,-2.3453,-2.3021,-2.4029,-2.4399,-2.395,-2.4563,-2.4975,-2.515,-2.492,-2.5003,-2.5388,-2.5159,-2.5168,-2.5398,-2.5398,-2.5306,-2.5141,-2.4966,-2.478,-2.4494,-2.3827,-2.3407,-2.312,-2.2322,-2.2004,-2.2035,-2.2482,-2.2515,-2.214,-2.1043,-2.0743,-2.0718,-1.9749,-1.9681,-2.0008,-2.0008,-2.0008,-2.0008,-2.0008,-2.0008,-2.0008,-2.0008,-2.0008,-2.0167,-2.0741,-2.0447,-2.0311,-2.1463,-2.0819,-1.998,-1.9744,-1.9095,-1.8338,-1.7537,-1.6762,-1.6292,-1.6344,-1.5985,-1.5576,-1.5196,-1.5476,-1.541,-1.4683,-1.5233,-1.5255,-1.4233,-1.4141,-1.3796,-1.2962,-1.2903,-1.2744,-1.2433,-1.2537,-1.2489,-1.2129,-1.228,-1.2433,-1.2521,-1.2457,-1.2553,-1.2794,-1.2566,-1.2431,-1.2206,-1.2962,0.0,-1.4412,-1.5006,-1.5481,-1.5935,-1.5972,-1.617,-1.71,-1.706,-1.6961,-1.7408,-1.7488,-1.7461,-1.7381,-1.7434,-1.7461,-1.7355,-1.762,-1.7779,-1.7668,-1.8506,-1.9067,-1.8952,-2.0386,-2.1096,-2.0562,-2.2813,-2.4123,-2.3899,-2.4959,-2.5423,-2.5108,-2.5515,-2.5728,-2.5728,-2.5443,-2.5453,-2.5728,-2.5443,-2.5462,-2.5728,-2.5609,-2.5563,-2.5554,-2.5443,-2.5232,-2.488,-2.3625,-2.292,-2.2537,-2.136,-2.0911,-2.1025,-2.1983,-2.2286,-2.2076,-2.1188,-2.0882,-2.0622,-1.9256,-1.8995,-1.9155,-1.888,-1.8788,-1.8788,-1.8788,-1.8788,-1.8788,-1.8788,-1.8788,-1.8972,-1.9704,-1.9338,-1.9186,-2.0605,-2.0144,-1.9401,-1.9093,-1.8654,-1.8033,-1.7055,-1.6202,-1.5578,-1.5383,-1.5273,-1.5127,-1.4902,-1.4755,-1.4733,-1.4935,-1.4723,-1.4245,-1.3427,-1.3347,-1.2991,-1.2178,-1.2117,-1.2117,-1.2117,-1.2318,-1.24,-1.24,-1.2608,-1.2741,-1.2819,-1.2819,-1.2942,-1.3208,-1.3052,-1.3099,-1.2789,0.0,-1.4534,-1.4892,-1.5621,-1.6337,-1.6613,-1.6919,-1.7239,-1.7528,-1.7361,-1.7192,-1.7213,-1.7213,-1.7119,-1.678,-1.6999,-1.7112,-1.6774,-1.7669,-1.8473,-1.8716,-1.9677,-2.0353,-2.0345,-2.0915,-2.1878,-2.3281,-2.388,-2.3883,-2.3169,-2.4931,-2.5478,-2.4358,-2.5784,-2.6554,-2.6554,-2.6536,-2.6536,-2.6554,-2.6536,-2.6536,-2.6563,-2.615,-2.5967,-2.5948,-2.5563,-2.5388,-2.5265,-2.373,-2.3092,-2.2946,-2.1482,-2.0911,-2.0903,-2.0938,-2.1353,-2.1832,-2.1135,-2.1481,-2.187,-1.9545,-1.9453,-2.0068,-1.9109,-1.8788,-1.8788,-1.8788,-1.8788,-1.8788,-1.8788,-1.8788,-1.8819,-1.8834,-1.8811,-1.8811,-1.8888,-1.811,-1.7396,-1.7388,-1.6584,-1.5742,-1.5163,-1.5048,-1.4773,-1.4084,-1.396,-1.3848,-1.3589,-1.3099,-1.3457,-1.5192,-1.4573,-1.4007,-1.3979,-1.3973,-1.36,-1.2723,-1.2681,-1.2681,-1.2681,-1.2687,-1.2693,-1.2693,-1.2699,-1.2837,-1.3087,-1.3087,-1.3226,-1.3479,-1.3479,-1.348,-1.3936,0.0,-1.5264,-1.5952,-1.6346,-1.6687,-1.7174,-1.7388,-1.7434,-1.7341,-1.7086,-1.6879,-1.6879,-1.6725,-1.6692,-1.6979,-1.7132,-1.7233,-1.7301,-1.7618,-1.8091,-1.8716,-1.9267,-1.9821,-2.0352,-2.1437,0.0,-2.2549,-2.3333,-2.3687,-2.3443,-2.381,-2.3828,-2.344,-2.3953,-2.4214,-2.4214,-2.4214,-2.4214,-2.4214,-2.4214,-2.4214,-2.4214,-2.408,-2.3994,-2.3986,-2.3869,-2.3668,-2.3318,-2.2032,-2.126,-2.0728,-1.9476,-1.8861,-1.8793,-1.9513,-1.9902,-2.004,-1.965,-1.9536,-1.9309,-1.7663,-1.7371,-1.7541,-1.6984,-1.6803,-1.6803,-1.6803,-1.6803,-1.6803,-1.6803,-1.6803,-1.699,-1.7645,-1.7295,-1.7171,-1.8511,-1.8017,-1.7302,-1.7302,-1.688,-1.6274,-1.548,-1.519,-1.4865,-1.4261,-1.3863,-1.3596,-1.3499,-1.3189,-1.32,-1.3801,-1.3429,-1.3145,-1.3145,-1.3145,-1.3018,-1.2726,-1.2705,-1.2705,-1.2705,-1.2864,-1.2961,-1.2961,-1.3135,-1.329,-1.3364,-1.3364,-1.3497,-1.3773,-1.3773,-1.3865,-1.4899,-1.5508,-1.5919,-1.68,-1.7021,-1.7121,-1.7521,-1.7528,-1.7367,-1.708,-1.6531,-1.6112,-1.6219,-1.5912,-1.5929,-1.6757,-1.6946,-1.7341,-1.8263,-1.8178,-1.8497,-1.9761,-1.9864,-2.0089,0.0,0.0,0.0,-2.1703,-2.2471,-2.2976,-2.2995,-2.3007,-2.3002,-2.3002,-2.3002,-2.3002,-2.3002,-2.3002,-2.3002,-2.3002,-2.3002,-2.3002,-2.3002,-2.3002,-2.3002,-2.3002,-2.3002,-2.2847,-2.2506,-2.123,-2.0442,-1.9932,-1.855,-1.7889,-1.7802,-1.8424,-1.8636,-1.8698,-1.9167,-1.9165,-1.8741,-1.7401,-1.6915,-1.6718,-1.6142,-1.5888,-1.5808,-1.5808,-1.5808,-1.5808,-1.5808,-1.5808,-1.5967,-1.6605,-1.6275,-1.6157,-1.7451,-1.7225,-1.6763,-1.6763,-1.6615,-1.6285,-1.5611,-1.519,-1.4799,-1.4358,-1.4022,-1.3725,-1.3515,-1.3346,-1.3244,-1.3244,-1.3081,-1.2994,-1.2994,-1.2994,-1.2994,-1.2994,-1.2994,-1.2994,-1.2994,-1.3147,-1.3244,-1.3244,-1.3406,-1.3562,-1.3629,-1.3629,-1.3791,-1.4045,-1.4045,-1.4135,-1.5608,-1.6099,-1.6565,-1.7401,-1.7608,-1.7608,-1.7588,-1.7361,-1.7085,-1.6687,-1.5759,-1.5057,-1.5217,0.0,-1.4914,-1.6115,-1.6536,-1.7408,-1.9512,-1.921,-1.9534,0.0,0.0,0.0,0.0,0.0,0.0,-2.0834,-2.1383,-2.1761,-2.1826,-2.2462,-2.2805,-2.2805,-2.2805,-2.2805,-2.2805,-2.2805,-2.2805,-2.2805,-2.2805,-2.2805,-2.2805,-2.2805,-2.2805,-2.2805,-2.2805,-2.2805,-2.2697,-2.1231,-2.0622,-2.0437,-1.8707,-1.8036,-1.7983,-1.7709,-1.7622,-1.785,-1.958,-2.0161,-1.9939,-1.8582,-1.7986,-1.7594,-1.6596,-1.6079,-1.5821,-1.5808,-1.5808,-1.5808,-1.5808,-1.5808,-1.5808,-1.5808,-1.5808,-1.5808,-1.5808,-1.5778,-1.5778,-1.5808,-1.5778,-1.5713,-1.5516,-1.5046,-1.4616,-1.4346,-1.4298,-1.4117,-1.3622,-1.3521,-1.3515,-1.3515,-1.3497,-1.3491,-1.3491,-1.3491,-1.3491,-1.3491,-1.3491,-1.3491,-1.3491,-1.3503,-1.3515,-1.3515,-1.3527,-1.3676,-1.3924,-1.3924,-1.4051,-1.4298,-1.4298,-1.4298,-1.6186,-1.6854,-1.7327,-1.7528,-1.7608,-1.7548,-1.736,-1.7053,-1.6553,-1.5628,-1.5253,-1.4734,-1.3669,-1.4283,0.0,-1.6354,-1.6632,0.0,-1.944,-1.8851,0.0,-2.0372,0.0,-2.0354,-2.0525,-2.0763,0.0,0.0,-2.0223,-2.0905,-2.0932,-2.0529,-2.0328,-2.0328,-2.0328,-2.0328,-2.0328,-2.0328,-2.0328,-2.0328,-2.0328,-2.0328,-2.0328,-2.0328,-2.0328,-2.0328,-2.0328,-2.0328,-2.0299,-1.9877,-1.9569,-1.9322,-1.8835,-1.8403,-1.8002,-1.7929,-1.7782,-1.7674,-1.8135,-1.8289,-1.8188,-1.764,-1.7413,-1.7218,-1.6505,-1.6244,-1.6112,-1.5868,-1.5808,-1.5808,-1.5808,-1.5808,-1.5808,-1.5808,-1.5808,-1.5808,-1.5808,-1.5683,-1.5611,-1.5784,-1.5683,-1.5499,-1.5244,-1.4933,-1.4616,-1.4346,-1.4298,-1.425,-1.4117,-1.3924,-1.3803,-1.3803,-1.3611,-1.3491,-1.3491,-1.3491,-1.3491,-1.3491,-1.3491,-1.3491,-1.3491,-1.3684,-1.3803,-1.3803,-1.3996,-1.4129,-1.4195,-1.4195,-1.4232,-1.4298,-1.4298,-1.4298,-1.6712,-1.726,-1.7608,-1.7608,-1.7388,-1.708,-1.6531,-1.5976,-1.5224,-1.4063,-1.3529,-1.313,-1.2516,-1.3212,-1.432,0.0,0.0,0.0,-1.9648,-1.9257,-1.9385,0.0,-2.0762,0.0,-2.0583,-2.0259,-1.9791,0.0,-1.9677,-1.9998,-1.9857,-1.9565,-1.9395,-1.9395,-1.9395,-1.9395,-1.9395,-1.9395,-1.9395,-1.9395,-1.9395,-1.9395,-1.9395,-1.9395,-1.9395,-1.9395,-1.9395,-1.9395,-1.9395,-1.9395,-1.9294,-1.9105,-1.895,-1.8696,-1.8389,-1.8263,-1.8022,-1.7789,-1.7789,-1.7695,-1.7582,-1.7414,-1.7306,-1.7139,-1.6811,-1.6504,-1.6264,-1.6072,-1.5901,-1.5808,-1.5808,-1.5808,-1.5808,-1.5808,-1.5808,-1.5808,-1.5808,-1.5635,-1.5499,-1.5475,-1.5404,-1.5244,-1.4957,-1.479,-1.4616,-1.4346,-1.4298,-1.4298,-1.4298,-1.4171,-1.4081,-1.4081,-1.3948,-1.3857,-1.3857,-1.3857,-1.3857,-1.3857,-1.3857,-1.3857,-1.3857,-1.4002,-1.4081,-1.4081,-1.422,-1.4298,-1.4298,-1.4298,-1.4298,-1.4298,-1.4298,-1.4298,-1.714,-1.7414,-1.7608,-1.7608,-1.7168,-1.6526,-1.5605,-1.4738,-1.3728,-1.2445,0.0,-1.1155,-1.1484,-1.2006,-1.2958,-1.4687,0.0,-1.7184,-1.99,-1.9859,-2.0291,-2.2266,-2.1314,-2.0642,-2.0981,-2.0114,-1.9586,-1.984,-1.9655,-1.9366,-1.9083,-1.9345,-1.9515,-1.9515,-1.9475,-1.9455,-1.9455,-1.9415,-1.9395,-1.9395,-1.9395,-1.9395,-1.9395,-1.9395,-1.9395,-1.9395,-1.9395,-1.9395,-1.9395,-1.9395,-1.9395,-1.9368,-1.9085,-1.893,-1.8863,-1.8644,-1.8364,-1.8069,-1.8009,-1.7842,-1.7662,-1.7622,-1.7441,-1.7253,-1.7213,-1.6819,-1.6404,-1.6364,-1.6119,-1.5861,-1.5861,-1.5835,-1.5808,-1.5808,-1.5808,-1.5808,-1.5808,-1.5635,-1.5428,-1.5148,-1.5107,-1.5011,-1.4742,-1.4688,-1.4616,-1.4346,-1.4298,-1.4298,-1.4298,-1.4298,-1.4298,-1.4298,-1.4298,-1.4298,-1.4298,-1.4298,-1.4298,-1.4298,-1.4298,-1.4298,-1.4298,-1.4298,-1.4298,-1.4298,-1.4298,-1.4298,-1.4298,-1.4298,-1.4298,-1.4298,-1.4298,-1.4298,-1.7388,-1.7568,-1.7608,-1.7608,-1.7347,-1.6805,-1.5651,-1.4738,0.0,0.0,-1.1482,-1.105,-0.988,-1.1379,-1.3241,-1.4607,-1.5435,-1.6888,-1.9742,-1.9325,-1.9035,0.0,-1.9957,-1.9983,-2.0037,-2.0059,0.0,0.0,-2.0077,-2.003,-1.9977,-2.0024,-2.005,-2.005,-1.9853,-1.9726,-1.9726,-1.9515,-1.9395,-1.9395,-1.9395,-1.9395,-1.9395,-1.9395,-1.9395,-1.9395,-1.9395,-1.9395,-1.9395,-1.9395,-1.9395,-1.9395,-1.9341,-1.9138,-1.889,-1.8836,-1.8664,-1.8377,-1.8103,-1.7955,-1.7896,-1.7662,-1.7575,-1.7488,-1.7273,-1.7132,-1.6998,-1.67,-1.642,-1.6217,-1.6217,-1.6012,-1.5808,-1.5808,-1.5808,-1.5808,-1.5808,-1.5635,-1.5428,-1.5148,-1.5107,-1.5011,-1.4742,-1.4688,-1.4616,-1.4346,-1.4298,-1.4298,-1.4298,-1.4298,-1.4298,-1.4298,-1.4298,-1.4298,-1.4298,-1.4298,-1.4298,-1.4298,-1.4298,-1.4298,-1.4298,-1.4298,-1.4298,-1.4298,-1.4298,-1.4298,-1.4298,-1.4298,-1.4298,-1.4298,-1.4298,-1.4298,-1.7495,-1.7608,-1.7608,-1.7608,-1.7014,-1.6072,-1.4596,0.0,0.0,0.0,-1.0075,-0.9909,-0.9313,-1.0693,0.0,-1.3334,-1.431,-1.5717,-1.8011,-1.8053,0.0,-1.9892,-1.9899,-2.006,0.0,-2.0414,-2.0264,-2.0454,-2.0461,-2.0394,-2.021,-2.0204,-2.0204,-2.0204,-2.007,-2.0027,-2.0027,-1.974,-1.9622,-1.9622,-1.9468,-1.9395,-1.9395,-1.9395,-1.9395,-1.9395,-1.9395,-1.9395,-1.9395,-1.9395,-1.9395,-1.9395,-1.9395,-1.9308,-1.9152,-1.9152,-1.8971,-1.8698,-1.8523,-1.8249,-1.7969,-1.7842,-1.7716,-1.7582,-1.7441,-1.732,-1.7172,-1.6999,-1.6752,-1.6524,-1.6524,-1.6279,-1.6059,-1.6059,-1.5939,-1.5784,-1.5659,-1.5564,-1.538,-1.4981,-1.4885,-1.4814,-1.4544,-1.449,-1.4442,-1.4322,-1.4298,-1.4298,-1.4298,-1.4298,-1.4298,-1.4298,-1.4298,-1.4298,-1.4298,-1.4298,-1.4298,-1.4298,-1.4298,-1.4298,-1.4298,-1.4298,-1.4298,-1.4298,-1.4298,-1.4298,-1.4298,-1.4298,-1.4298,-1.4298,-1.4298,-1.4298,-1.7454,-1.7561,-1.7608,-1.7608,-1.6747,-1.5441,-1.3687,-1.2406,0.0,0.0,-0.8885,-0.8938,-0.9091,0.0,-1.1059,0.0,-1.3179,-1.4556,-1.644,0.0,0.0,0.0,0.0,0.0,-2.1322,-2.0779,0.0,-2.0786,-2.0799,-2.0668,-2.0404,-2.039,-2.039,-2.039,-2.033,-2.0297,-2.0297,-2.004,-1.9893,-1.9887,-1.9659,-1.9548,-1.9488,-1.9488,-1.9455,-1.9395,-1.9395,-1.9395,-1.9395,-1.9395,-1.9395,-1.9395,-1.9395,-1.9395,-1.9395,-1.9395,-1.9219,-1.9011,-1.8916,-1.8589,-1.8162,-1.8035,-1.7809,-1.7608,-1.7608,-1.7448,-1.7293,-1.7293,-1.7053,-1.68,-1.68,-1.6611,-1.6371,-1.631,-1.6046,-1.5754,-1.5588,-1.5493,-1.5285,-1.4861,-1.4688,-1.4544,-1.4346,-1.4298,-1.4298,-1.4298,-1.4298,-1.4298,-1.4298,-1.4298,-1.4298,-1.4298,-1.4298,-1.4298,-1.4298,-1.4298,-1.4298,-1.4298,-1.4298,-1.4298,-1.4298,-1.4298,-1.4298,-1.4298,-1.4298,-1.4298,-1.4298,-1.4298,-1.4298,-1.4298,-1.4298,-1.4298,-1.7233,-1.7408,-1.7608,-1.7608,-1.6926,-1.5772,-1.3959,0.0,0.0,-0.959,-0.9157,-0.9098,-0.8878,-0.9372,-1.0283,-1.1718,0.0,-1.4067,0.0,0.0,0.0,0.0,0.0,0.0,-2.0753,-2.0918,-2.1042,-2.1069,-2.1069,-2.1056,-2.1029,-2.1029,-2.1029,-2.1029,-2.0775,-2.0635,-2.0635,-2.0341,-2.0164,-2.0164,-2.0137,-1.9983,-1.976,-1.976,-1.9619,-1.9395,-1.9395,-1.9395,-1.9395,-1.9395,-1.9395,-1.9395,-1.9395,-1.9395,-1.9395,-1.9395,-1.9381,-1.9321,-1.9018,-1.8856,-1.873,-1.8169,-1.7809,-1.7608,-1.7608,-1.7588,-1.7568,-1.7568,-1.7361,-1.7159,-1.7159,-1.6913,-1.66,-1.6357,-1.6046,-1.5778,-1.5784,-1.5434,-1.5131,-1.5059,-1.4664,-1.4322,-1.4298,-1.4298,-1.4298,-1.4298,-1.4298,-1.4298,-1.4298,-1.4298,-1.4298,-1.4298,-1.4298,-1.4298,-1.4298,-1.4298,-1.4298,-1.4298,-1.4298,-1.4298,-1.4298,-1.4298,-1.4298,-1.4298,-1.4298,-1.4298,-1.4298,-1.4298,-1.4298,-1.4298,-1.4298,-1.4298,-1.7058,-1.7388,-1.7568,-1.7394,-1.6685,-1.5498,-1.3567,0.0,-1.1226,-0.9351,-0.8951,-0.8931,-0.8818,-0.9125,-0.978,-1.0935,-1.1547,-1.2572,-1.4561,-1.5348,0.0,0.0,-1.8971,0.0,0.0,0.0,-2.1109,-2.1109,-2.1109,-2.1109,-2.1109,-2.1109,-2.1109,-2.1109,-2.0995,-2.0935,-2.0935,-2.0648,-2.0501,-2.0501,-2.029,-2.0144,-2.0024,-1.988,-1.974,-1.9619,-1.9475,-1.9395,-1.9395,-1.9395,-1.9395,-1.9395,-1.9395,-1.9395,-1.9395,-1.9395,-1.9395,-1.9381,-1.9261,-1.9078,-1.8856,-1.8623,-1.8223,-1.7796,-1.7642,-1.7608,-1.7608,-1.7608,-1.7528,-1.7434,-1.7434,-1.722,-1.6926,-1.66,-1.6446,-1.6306,-1.6132,-1.5954,-1.5691,-1.5187,-1.4933,-1.4694,-1.437,-1.4298,-1.4298,-1.4298,-1.4298,-1.4298,-1.4298,-1.4298,-1.4298,-1.4298,-1.4298,-1.4298,-1.4298,-1.4298,-1.4298,-1.4298,-1.4298,-1.4298,-1.4298,-1.4298,-1.4298,-1.4298,-1.4298,-1.4298,-1.4298,-1.4298,-1.4298,-1.4298,-1.4298,-1.4298,-1.6382,-1.6926,-1.728,-1.6986,-1.625,-1.5077,0.0,-1.2071,-1.0912,-0.9158,-0.8865,-0.8898,-0.8811,-0.8958,-0.9391,-1.0303,-1.0764,-1.1617,-1.3353,-1.4201,0.0,0.0,0.0,-1.9092,0.0,-2.0788,-2.1109,-2.1109,-2.1109,-2.1109,-2.1109,-2.1109,-2.1109,-2.1109,-2.1109,-2.1109,-2.1109,-2.0909,-2.0833,-2.0833,-2.0595,-2.0417,-2.033,-2.0154,-2.0013,-1.9913,-1.9619,-1.9522,-1.9522,-1.9435,-1.9395,-1.9395,-1.9395,-1.9395,-1.9395,-1.9395,-1.9395,-1.9395,-1.9395,-1.9261,-1.9038,-1.8923,-1.8616,-1.8209,-1.7836,-1.7655,-1.7608,-1.7608,-1.7608,-1.7608,-1.7608,-1.7394,-1.7146,-1.6913,-1.6767,-1.6647,-1.6471,-1.6357,-1.6125,-1.5564,-1.5261,-1.4981,-1.4612,-1.4419,-1.4298,-1.4298,-1.4298,-1.4298,-1.4298,-1.4298,-1.4298,-1.4298,-1.4298,-1.4298,-1.4298,-1.4298,-1.4298,-1.4298,-1.4298,-1.4298,-1.4298,-1.4298,-1.4298,-1.4298,-1.4298,-1.4298,-1.4298,-1.4298,-1.4298,-1.4298,-1.4298,-1.434,-1.5028,-1.5855,-1.6647,-1.6384,-1.5648,-1.4626,0.0,-1.2076,-1.0912,-0.9158,-0.9004,-0.9118,-0.8844,-0.8798,-0.9085,-0.9965,-1.0615,-1.1617,-1.3353,-1.4402,0.0,0.0,0.0,-1.8376,-1.9321,-2.0428,-2.1109,-2.1109,-2.1109,-2.1109,-2.1109,-2.1109,-2.1109,-2.1109,-2.1109,-2.1109,-2.1109,-2.1109,-2.1109,-2.1109,-2.1102,-2.0949,-2.0706,-2.0699,-2.0508,-2.0184,-1.992,-1.98,-1.9773,-1.9515,-1.9395,-1.9395,-1.9395,-1.9395,-1.9395,-1.9395,-1.9395,-1.9395,-1.9395,-1.9395,-1.9348,-1.9018,-1.889,-1.8776,-1.8189,-1.7796,-1.7608,-1.7608,-1.7608,-1.7608,-1.7608,-1.7394,-1.7199,-1.7199,-1.6946,-1.6707,-1.67,-1.6481,-1.6294,-1.6287,-1.5649,-1.5091,-1.5084,-1.4643,-1.4298,-1.4298,-1.4298,-1.4298,-1.4298,-1.4298,-1.4298,-1.4298,-1.4298,-1.4298,-1.4298,-1.4298,-1.4298,-1.4298,-1.4298,-1.4298,-1.4298,-1.4298,-1.4298,-1.4298,-1.4298,-1.4298,-1.4298,-1.4298,-1.4298,-1.4298,-1.4298,-1.4443,-1.3728,-1.4329,-1.4796,-1.4302,-1.3835,-1.3099,-1.1625,-1.1069,-1.0463,-0.9085,-0.8865,-0.8905,-0.8811,-0.8791,-0.9359,-1.1059,-1.1487,-1.2163,-1.3728,0.0,0.0,-1.6919,-1.8858,-2.0247,0.0,0.0,-2.1109,-2.1109,-2.1109,-2.1109,-2.1109,-2.1109,-2.1109,-2.1109,-2.1109,-2.1109,-2.1109,-2.1109,-2.1109,-2.1109,-2.1109,-2.1062,-2.0962,-2.0768,-2.0621,-2.0521,-2.0227,-1.9987,-1.9793,-1.97,-1.9575,-1.9395,-1.9395,-1.9395,-1.9395,-1.9395,-1.9395,-1.9395,-1.9395,-1.9395,-1.9381,-1.9287,-1.9092,-1.8856,-1.8669,-1.8269,-1.7829,-1.7642,-1.7608,-1.7608,-1.7608,-1.739,-1.72,-1.72,-1.7121,-1.6976,-1.6754,-1.681,-1.6776,-1.6383,-1.594,-1.5595,-1.5388,-1.5077,-1.4853,-1.4853,-1.4853,-1.4853,-1.4853,-1.4696,-1.4557,-1.4557,-1.4413,-1.4298,-1.4298,-1.4298,-1.4298,-1.4298,-1.4298,-1.4298,-1.4298,-1.4298,-1.4298,-1.4298,-1.4298,-1.4298,-1.4298,-1.4298,-1.4395,-1.4588,-1.4769,-1.4902,0.0,-1.2985,-1.346,-1.2852,-1.2497,-1.1986,-1.087,-1.0419,-0.999,-0.9005,-0.8791,-0.8791,-0.8791,-0.8885,-0.9411,-1.0838,-1.1433,-1.2184,0.0,0.0,0.0,-1.7341,0.0,0.0,0.0,-2.0975,-2.1109,-2.1109,-2.1109,-2.1109,-2.1109,-2.1109,-2.1109,-2.1109,-2.1109,-2.1109,-2.1109,-2.1109,-2.1109,-2.1109,-2.1109,-2.1109,-2.1102,-2.0922,-2.0842,-2.0822,-2.0528,-2.0301,0.0,-2.0007,-1.9793,-1.9562,-1.9562,-1.9495,-1.9395,-1.9395,-1.9395,-1.9395,-1.9395,-1.9395,-1.9395,-1.9395,-1.9165,-1.8896,-1.8896,-1.8489,-1.7982,-1.7809,-1.7669,-1.7582,-1.7483,-1.7331,-1.7179,-1.7034,-1.7008,-1.6962,-1.6755,-1.6866,-1.6892,-1.6517,-1.6138,-1.5839,-1.568,-1.5345,-1.5107,-1.5107,-1.5107,-1.5107,-1.5107,-1.4937,-1.484,-1.484,-1.4708,-1.46,-1.46,-1.4413,-1.4298,-1.4298,-1.4298,-1.4298,-1.4298,-1.4401,-1.4455,-1.4455,-1.4552,-1.46,-1.46,-1.46,-1.469,-1.484,-1.5009,-1.5161,0.0,-1.1665,-1.2402,-1.1852,-1.1476,-1.1106,-1.0593,-1.0042,0.0,-0.8925,-0.8791,-0.8818,-0.8918,-0.9091,-0.9404,-0.9935,-1.0909,0.0,0.0,-1.4471,0.0,0.0,-1.8951,0.0,-2.0217,-2.0757,-2.1109,-2.1109,-2.1109,-2.1109,-2.1109,-2.1109,-2.1109,-2.1109,-2.1109,-2.1109,-2.1109,-2.1109,-2.1109,-2.1109,-2.1109,-2.1109,-2.1109,-2.1109,-2.1109,-2.1096,-2.0822,-2.0726,-2.0686,-2.0344,-2.0064,-1.9826,-1.9806,-1.9662,-1.9428,-1.9401,-1.9395,-1.9395,-1.9395,-1.9395,-1.9395,-1.9395,-1.9178,-1.893,-1.893,-1.8516,-1.8056,-1.8056,-1.7829,-1.7563,-1.7311,-1.7192,-1.7067,-1.6763,-1.6677,-1.6677,-1.6677,-1.6677,-1.6703,-1.6703,-1.6271,-1.5926,-1.5926,-1.551,-1.5161,-1.5161,-1.5161,-1.5161,-1.5161,-1.5149,-1.5137,-1.5137,-1.5119,-1.5107,-1.5107,-1.4642,-1.4358,-1.4358,-1.4358,-1.4358,-1.4358,-1.4606,-1.472,-1.472,-1.4961,-1.5107,-1.5107,-1.5125,-1.5137,-1.5137,-1.5155,-1.5294,-0.8851,0.0,-1.0018,-0.9864,-0.9777,-0.963,0.0,-0.9271,-0.9211,-0.8865,0.0,-0.9078,-1.0017,-0.9848,-1.0356,-1.2691,0.0,-1.3868,-1.5028,0.0,0.0,-1.9517,-2.0301,-2.0755,-2.0889,-2.1029,-2.1109,-2.1109,-2.1109,-2.1109,-2.1109,-2.1109,-2.1109,-2.1109,-2.1109,-2.1109,-2.1109,-2.1109,-2.1109,-2.1109,-2.1109,-2.1109,-2.1109,-2.1109,-2.1109,-2.1109,-2.1036,-2.0882,-2.0706,-2.0601,-2.0394,-2.0077,-1.9887,-1.976,-1.9673,-1.9481,-1.9395,-1.9395,-1.9395,-1.9395,-1.9395,-1.9395,-1.9348,-1.9294,-1.9294,-1.8851,-1.8384,-1.8384,-1.8143,-1.7828,-1.7586,-1.7169,-1.6736,-1.6451,-1.6397,-1.6397,-1.6397,-1.6551,-1.6703,-1.6703,-1.6427,-1.6204,-1.6204,-1.5938,-1.5704,-1.5704,-1.5704,-1.5704,-1.5704,-1.5529,-1.5409,-1.5409,-1.5228,-1.5107,-1.5107,-1.4992,-1.4914,-1.4914,-1.4914,-1.4914,-1.4914,-1.498,-1.5016,-1.5016,-1.5077,-1.5107,-1.5107,-1.5312,-1.5409,-1.5409,-1.5614,-1.5741,-0.8049,-0.8878,-0.961,-0.961,-0.961,-0.957,-0.9431,0.0,0.0,0.0,0.0,-0.9231,-1.0043,-1.035,-1.1096,-1.2966,-1.3841,0.0,0.0,0.0,-1.9225,-2.0097,-2.0717,-2.1109,-2.1109,-2.1109,-2.1109,-2.1109,-2.1109,-2.1109,-2.1109,-2.1109,-2.1109,-2.1109,-2.1109,-2.1109,-2.1109,-2.1109,-2.1109,-2.1109,-2.1109,-2.1109,-2.1109,-2.1109,-2.1109,-2.1109,-2.1109,-2.1022,-2.0875,-2.0875,-2.0702,-2.0421,-2.0261,-2.004,-1.978,-1.9655,-1.9515,-1.9395,-1.9395,-1.9395,-1.9395,-1.9395,-1.9395,-1.9395,-1.9395,-1.9174,-1.8893,-1.8724,-1.8449,-1.8141,-1.7723,-1.7279,-1.682,-1.6396,-1.6223,-1.6111,-1.6111,-1.6238,-1.6338,-1.6338,-1.6211,-1.6111,-1.6111,-1.5998,-1.5891,-1.5891,-1.5891,-1.5891,-1.5891,-1.5765,-1.568,-1.568,-1.5553,-1.5469,-1.5469,-1.5469,-1.5366,-1.5125,-1.5107,-1.5107,-1.5107,-1.5221,-1.5342,-1.5463,-1.5469,-1.5469,-1.5469,-1.5608,-1.568,-1.568,-1.5825,-1.5891,-0.7905,-0.9144,-1.0192,-1.0012,-1.0098,-1.0212,-1.0125,0.0,0.0,0.0,0.0,0.0,-1.0127,-1.0989,0.0,0.0,0.0,0.0,-1.7615,-1.8792,-1.9646,-2.0197,-2.0751,-2.1109,-2.1109,-2.1109,-2.1109,-2.1109,-2.1109,-2.1109,-2.1109,-2.1109,-2.1109,-2.1109,-2.1109,-2.1109,-2.1109,-2.1109,-2.1109,-2.1109,-2.1109,-2.1109,-2.1109,-2.1109,-2.1109,-2.1109,-2.1109,-2.1109,-2.1109,-2.1109,-2.0962,-2.0766,-2.0726,-2.0405,-1.9927,-1.9833,-1.9646,-1.9461,-1.9408,-1.9395,-1.9395,-1.9395,-1.9395,-1.9395,-1.9395,-1.9395,-1.9341,-1.9001,-1.8693,-1.8356,-1.7798,-1.7408,-1.7056,-1.6481,-1.6202,-1.6,-1.5958,-1.5946,-1.594,-1.5924,-1.5891,-1.5891,-1.5891,-1.5891,-1.5891,-1.5891,-1.5891,-1.5891,-1.5891,-1.5891,-1.5891,-1.5891,-1.5891,-1.5891,-1.5891,-1.5891,-1.5698,-1.5252,-1.5228,-1.5228,-1.5228,-1.5439,-1.5662,-1.5885,-1.5891,-1.5891,-1.5891,-1.5891,-1.5891,-1.5891,-1.5891,-1.5891,-0.8632,-0.9918,-1.0621,-0.9597,-1.0112,-1.0728,-1.0212,0.0,0.0,0.0,0.0,0.0,0.0,-1.2617,-1.3266,0.0,0.0,-1.7602,0.0,0.0,-1.9953,-2.0535,-2.0909,-2.1109,-2.1109,-2.1109,-2.1109,-2.1109,-2.1109,-2.1109,-2.1109,-2.1109,-2.1109,-2.1109,-2.1109,-2.1109,-2.1109,-2.1109,-2.1109,-2.1109,-2.1109,-2.1109,-2.1109,-2.1109,-2.1109,-2.1109,-2.1109,-2.1109,-2.1109,-2.1109,-2.1082,-2.1022,-2.0806,-2.0652,-2.0512,-1.998,-1.9773,-1.97,-1.9481,-1.9395,-1.9395,-1.9395,-1.9395,-1.9395,-1.9395,-1.9395,-1.933,-1.8974,-1.8664,-1.8329,-1.803,-1.7531,-1.704,-1.6718,-1.661,-1.6513,-1.6299,-1.6251,-1.6178,-1.5934,-1.5891,-1.5891,-1.5891,-1.5891,-1.5891,-1.5891,-1.5891,-1.5891,-1.5891,-1.5891,-1.5891,-1.5891,-1.5891,-1.5891,-1.5891,-1.5891,-1.5855,-1.5777,-1.5771,-1.5771,-1.5771,-1.5807,-1.5849,-1.5891,-1.5891,-1.5891,-1.5891,-1.5891,-1.5891,-1.5891,-1.5891,-1.5891,-0.8497,-0.9512,-1.0307,-1.037,-1.1412,-1.2293,-1.1866,-1.1637,0.0,0.0,0.0,0.0,0.0,0.0,-1.4653,-1.6678,0.0,-1.8557,-1.9301,-1.9753,-2.0194,-2.0659,-2.0935,-2.1109,-2.1109,-2.1109,-2.1109,-2.1109,-2.1109,-2.1109,-2.1109,-2.1109,-2.1109,-2.1109,-2.1109,-2.1109,-2.1109,-2.1109,-2.1109,-2.1109,-2.1109,-2.1109,-2.1109,-2.1109,-2.1109,-2.1109,-2.1109,-2.1109,-2.1109,-2.1109,-2.1109,-2.1096,-2.0962,-2.0846,-2.0639,-2.0013,-1.97,-1.9575,-1.9441,-1.9395,-1.9395,-1.9395,-1.9395,-1.9395,-1.9395,-1.9272,-1.9091,-1.8939,-1.8783,-1.857,-1.8121,-1.7684,-1.7296,-1.6997,-1.6803,-1.6664,-1.6537,-1.6507,-1.6471,-1.635,-1.6232,-1.613,-1.613,-1.6009,-1.5891,-1.5891,-1.5891,-1.5891,-1.5891,-1.5891,-1.5891,-1.5891,-1.5891,-1.5891,-1.5891,-1.5891,-1.5891,-1.5891,-1.5891,-1.5891,-1.5891,-1.5891,-1.5891,-1.5891,-1.5891,-1.5891,-1.5891,-1.5891,-1.5891,-1.5891,-1.5891,-1.5891,-0.8369,-0.9185,-1.0067,-1.1236,0.0,-1.324,-1.3387,-1.2946,0.0,0.0,0.0,0.0,0.0,-1.4598,0.0,-1.7582,-1.849,-1.9152,-1.9519,-1.9953,-2.0337,-2.0766,-2.0969,-2.1109,-2.1109,-2.1109,-2.1109,-2.1109,-2.1109,-2.1109,-2.1109,-2.1109,-2.1109,-2.1109,-2.1109,-2.1109,-2.1109,-2.1109,-2.1109,-2.1109,-2.1109,-2.1109,-2.1109,-2.1109,-2.1109,-2.1109,-2.1109,-2.1109,-2.1109,-2.1109,-2.1109,-2.1109,-2.1109,-2.0935,-2.0646,-2.0094,-1.972,-1.9488,-1.9421,-1.9395,-1.9395,-1.9395,-1.9395,-1.9395,-1.9395,-1.9185,-1.8881,-1.8794,-1.8735,-1.8567,-1.8112,-1.7776,-1.7523,-1.7241,-1.7032,-1.6869,-1.6803,-1.6791,-1.6779,-1.6712,-1.6525,-1.6374,-1.6374,-1.6211,-1.6079,-1.6079,-1.6079,-1.6079,-1.6079,-1.6079,-1.6079,-1.6079,-1.6018,-1.5985,-1.5924,-1.5891,-1.5891,-1.5891,-1.5891,-1.5891,-1.5891,-1.5891,-1.5891,-1.5891,-1.5891,-1.5891,-1.5891,-1.5891,-1.5891,-1.5891,-1.5958,-1.5821,-0.8765,-0.959,-1.0352,-1.156,-1.1935,-1.237,-1.3735,-1.3567,0.0,-1.4571,0.0,0.0,0.0,-1.6431,-1.7648,-1.831,-1.8966,-1.9562,-2.0064,-2.0177,-2.0417,-2.1009,-2.1096,-2.1109,-2.1109,-2.1109,-2.1109,-2.1109,-2.1109,-2.1109,-2.1109,-2.1109,-2.1109,-2.1109,-2.1109,-2.1109,-2.1109,-2.1109,-2.1109,-2.1109,-2.1109,-2.1109,-2.1109,-2.1109,-2.1109,-2.1109,-2.1109,-2.1109,-2.1109,-2.1109,-2.1109,-2.1109,-2.1109,-2.0935,-2.0672,-2.029,-1.9983,-1.9733,-1.9488,-1.9395,-1.9395,-1.9395,-1.9395,-1.9395,-1.9395,-1.9185,-1.8852,-1.8532,-1.8252,-1.806,-1.7995,-1.7743,-1.7513,-1.7484,-1.7472,-1.7358,-1.7117,-1.7062,-1.699,-1.6748,-1.6682,-1.667,-1.667,-1.6658,-1.664,-1.664,-1.664,-1.664,-1.664,-1.664,-1.664,-1.664,-1.641,-1.6178,-1.591,-1.5891,-1.5891,-1.5891,-1.5891,-1.5891,-1.5891,-1.5891,-1.5891,-1.5891,-1.5891,-1.5891,-1.5891,-1.5891,-1.5891,-1.5924,-1.6157,-1.5631,-0.8444,-0.9547,-1.0691,-1.1862,-1.2559,0.0,0.0,-1.475,-1.5367,-1.6201,-1.6491,0.0,0.0,0.0,-1.7602,-1.8364,-1.9013,-1.9602,-2.0117,-2.0394,-2.0661,-2.1062,-2.1109,-2.1109,-2.1109,-2.1109,-2.1109,-2.1109,-2.1109,-2.1109,-2.1109,-2.1109,-2.1109,-2.1109,-2.1109,-2.1109,-2.1109,-2.1109,-2.1109,-2.1109,-2.1109,-2.1109,-2.1109,-2.1109,-2.1109,-2.1109,-2.1109,-2.1109,-2.1109,-2.1109,-2.1109,-2.1109,-2.1109,-2.0935,-2.0692,-2.0548,-2.0079,-1.947,-1.9365,-1.9096,-1.8777,-1.8777,-1.8777,-1.8777,-1.8777,-1.8574,-1.8311,-1.82,-1.7931,-1.7696,-1.7696,-1.7602,-1.7514,-1.7514,-1.7514,-1.7455,-1.7358,-1.7334,-1.7304,-1.7207,-1.7056,-1.6948,-1.6948,-1.6809,-1.67,-1.67,-1.67,-1.67,-1.67,-1.67,-1.67,-1.67,-1.661,-1.6501,-1.6404,-1.6392,-1.6392,-1.6392,-1.6079,-1.5891,-1.5891,-1.5891,-1.597,-1.616,-1.616,-1.6217,-1.6392,-1.6392,-1.6001,-1.5221,-1.5317,-1.4679,-0.8389,-0.9541,-1.0874,-1.2011,0.0,0.0,-1.4714,-1.5558,-1.638,-1.728,-1.7541,-1.7668,-1.7862,0.0,0.0,-1.8497,-1.9073,-1.9568,-1.9997,-2.0347,-2.0648,-2.0942,-2.1056,-2.1109,-2.1109,-2.1109,-2.1109,-2.1109,-2.1109,-2.1109,-2.1109,-2.1109,-2.1109,-2.1109,-2.1109,-2.1109,-2.1109,-2.1109,-2.1109,-2.1109,-2.1109,-2.1109,-2.1109,-2.1109,-2.1109,-2.1109,-2.1109,-2.1109,-2.1109,-2.1109,-2.1109,-2.1109,-2.1109,-2.0989,-2.0833,-2.0739,-2.0231,-1.9552,-1.9363,-1.8967,-1.8506,-1.8417,-1.8392,-1.8392,-1.8392,-1.8223,-1.8002,-1.8002,-1.7755,-1.7514,-1.7514,-1.7514,-1.7514,-1.7514,-1.7514,-1.7514,-1.7514,-1.7514,-1.7514,-1.7514,-1.734,-1.7213,-1.7213,-1.7062,-1.6948,-1.6948,-1.6948,-1.6948,-1.6948,-1.6948,-1.6917,-1.6833,-1.6827,-1.6791,-1.6706,-1.67,-1.67,-1.67,-1.635,-1.6145,-1.6145,-1.6145,-1.6229,-1.641,-1.6438,-1.6313,-1.6105,-1.6105,-1.5445,-1.4184,-1.429,-1.3628,-0.8731,-0.9687,-1.0888,-1.2035,0.0,0.0,-1.5488,-1.5821,-1.6242,-1.7702,-1.7809,-1.7809,-1.8384,-1.8223,0.0,-1.8803,-1.9172,-1.9495,-1.976,-2.0017,-2.031,-2.0666,-2.0929,-2.1109,-2.1109,-2.1109,-2.1109,-2.1109,-2.1109,-2.1109,-2.1109,-2.1109,-2.1109,-2.1109,-2.1109,-2.1109,-2.1109,-2.1109,-2.1109,-2.1109,-2.1109,-2.1109,-2.1109,-2.1109,-2.1109,-2.1109,-2.1109,-2.1109,-2.1109,-2.1109,-2.1109,-2.1109,-2.1109,-2.1109,-2.1076,-2.0788,-2.0495,-2.01,-1.9513,-1.9073,-1.876,-1.8487,-1.8398,-1.8392,-1.8392,-1.8194,-1.8002,-1.8002,-1.7755,-1.7514,-1.7514,-1.7514,-1.7514,-1.7514,-1.7514,-1.7514,-1.7514,-1.7514,-1.7514,-1.7514,-1.7514,-1.7514,-1.7514,-1.7514,-1.7514,-1.7514,-1.7514,-1.7514,-1.7514,-1.7514,-1.7411,-1.7123,-1.7092,-1.699,-1.673,-1.6712,-1.6678,-1.6706,-1.6678,-1.6678,-1.6672,-1.6672,-1.6672,-1.6678,-1.6678,-1.6048,-1.48,-1.48,-1.4132,-1.2898,-1.3171,-1.2567,-0.8824,-1.0267,0.0,-1.2746,0.0,0.0,0.0,-1.6939,0.0,0.0,-1.8738,-1.8577,-1.8764,-1.8557,-1.8456,-1.8836,-1.897,-1.9225,-1.9733,-1.9873,-2.0034,-2.0297,-2.0628,-2.0808,-2.0808,-2.0989,-2.1109,-2.1109,-2.1109,-2.1109,-2.1109,-2.1109,-2.1109,-2.1109,-2.1109,-2.1109,-2.1109,-2.1109,-2.1109,-2.1109,-2.1109,-2.1109,-2.1109,-2.1109,-2.1109,-2.1109,-2.1109,-2.1109,-2.1109,-2.1109,-2.1109,-2.1109,-2.1109,-2.1109,-2.1096,-2.1009,-2.0504,-1.9835,-1.9631,-1.9078,-1.8429,-1.8349,-1.819,-1.8054,-1.8054,-1.7866,-1.7667,-1.7667,-1.7573,-1.7514,-1.7514,-1.7514,-1.7514,-1.7514,-1.7514,-1.7514,-1.7514,-1.7514,-1.7514,-1.7514,-1.7514,-1.7514,-1.7514,-1.7514,-1.7514,-1.7514,-1.7514,-1.7514,-1.7514,-1.7514,-1.7484,-1.7405,-1.7393,-1.7334,-1.7255,-1.6454,-1.6309,-1.722,-1.5569,-1.4814,-1.5349,-1.5361,-1.5041,-1.4305,-1.431,-1.4212,-1.4045,-1.4045,-1.3363,-1.2065,-1.2154,-1.1491,-0.9887,-1.1396,0.0,-1.3994,-1.5271,-1.6545,-1.7495,0.0,0.0,0.0,-1.9132,-1.893,-1.9078,-1.8858,-1.8758,-1.9052,-1.9098,-1.9225,-1.9579,-1.9726,-1.9867,-2.001,-2.0321,-2.0501,-2.0501,-2.0655,-2.0808,-2.0929,-2.0935,-2.0989,-2.1102,-2.1109,-2.1109,-2.1109,-2.1109,-2.1109,-2.1109,-2.1109,-2.1109,-2.1109,-2.1109,-2.1109,-2.1109,-2.1109,-2.1109,-2.1109,-2.1109,-2.1109,-2.1109,-2.1109,-2.1109,-2.1109,-2.1109,-2.1109,-2.1109,-2.1109,-2.0554,-1.9827,-1.9737,-1.8777,-1.7609,-1.7505,-1.6987,-1.6395,-1.6395,-1.6266,-1.6134,-1.6095,-1.6067,-1.6075,-1.6011,-1.5989,-1.626,-1.7273,-1.7514,-1.7514,-1.7514,-1.7514,-1.7361,-1.6856,-1.6738,-1.6585,-1.6077,-1.5989,-1.5989,-1.5989,-1.5989,-1.5989,-1.5989,-1.5989,-1.5989,-1.5989,-1.5989,-1.5989,-1.5989,-1.5302,-1.5184,-1.593,-1.456,-1.367,-1.3567,-1.408,-1.4087,-1.3476,-1.3451,-1.3275,-1.2921,-1.2921,-1.223,-1.0936,-1.0936,-1.0516,-1.1316,-1.2662,-1.3953,-1.5441,-1.6132,0.0,-1.8176,-1.8718,-1.9011,-1.9334,0.0,-1.9045,-1.9348,-1.9145,-1.9052,-1.9354,-1.9395,-1.9395,-1.9395,-1.9622,-1.976,-1.976,-1.9983,-2.0164,-2.0164,-2.019,-2.0341,-2.0615,-2.0635,-2.0762,-2.1056,-2.1069,-2.1082,-2.1109,-2.1109,-2.1109,-2.1109,-2.1109,-2.1109,-2.1109,-2.1109,-2.1109,-2.1109,-2.1109,-2.1109,-2.1109,-2.1109,-2.1109,-2.1109,-2.1109,-2.1109,-2.1109,-2.1109,-2.1109,-2.1109,-2.1109,-2.0672,-2.0036,-1.9669,-1.8278,-1.6593,-1.6196,-1.5202,-1.4146,-1.4146,-1.4137,-1.4076,-1.3951,-1.3925,-1.3887,-1.3769,-1.3737,-1.4291,-1.6619,-1.7168,-1.7156,-1.7156,-1.7156,-1.6826,-1.5663,-1.5426,-1.5065,-1.3904,-1.3695,-1.3695,-1.3695,-1.3695,-1.3695,-1.3695,-1.3695,-1.3695,-1.3695,-1.3695,-1.3695,-1.3695,-1.3575,-1.3575,-1.3695,-1.3485,-1.2856,-1.1752,-1.2861,-1.3455,-1.3366,-1.3336,-1.2736,-1.1541,-1.1541,-1.0936,-0.9792,-0.9792,-0.9792,-1.0554,-1.2137,0.0,0.0,-1.6728,-1.7782,-1.8364,-1.8718,-1.9011,-1.9334,-1.9348,-1.9321,-1.9388,-1.9348,-1.9321,-1.9388,-1.9395,-1.9395,-1.9395,-1.9448,-1.9488,-1.9488,-1.972,-1.9893,-1.9893,-2.007,-2.023,-2.0297,-2.0297,-2.0454,-2.0755,-2.0799,-2.0875,-2.1102,-2.1109,-2.1109,-2.1109,-2.1109,-2.1109,-2.1109,-2.1109,-2.1109,-2.1109,-2.1109,-2.1109,-2.1109,-2.1109,-2.1109,-2.1109,-2.1109,-2.1109,-2.1109,-2.1109,-2.1109,-2.1109,-2.1109,-2.0672,-1.9934,-1.8758,-1.7739,-1.6733,-1.5564,-1.4817,-1.442,-1.442,-1.4276,-1.4078,-1.4062,-1.4053,-1.4043,-1.4032,-1.3927,-1.3987,-1.4529,-1.4585,-1.453,-1.453,-1.453,-1.4441,-1.4172,-1.4113,-1.4023,-1.3754,-1.3695,-1.3695,-1.3695,-1.3695,-1.3695,-1.3695,-1.3695,-1.3695,-1.3695,-1.3695,-1.3695,-1.3695,-1.2741,-1.259,-1.3635,-1.1774,-1.0963,-1.1661,-1.1993,-1.1657,-1.0664,-1.0634,-1.0513,-1.0213,-1.0213,-1.0061,-0.9792,-0.9792,-0.9792,-1.0664,0.0,0.0,-1.6025,0.0,-1.8063,-1.8216,-1.8476,-1.8798,-1.9092,-1.9294,-1.9395,-1.9395,-1.9395,-1.9395,-1.9395,-1.9395,-1.9395,-1.9395,-1.9395,-1.9395,-1.9395,-1.9528,-1.9622,-1.9622,-1.9726,-1.9873,-1.9983,-1.9997,-2.0154,-2.0448,-2.0468,-2.0535,-2.065,-2.0828,-2.0902,-2.0902,-2.1042,-2.1109,-2.1109,-2.1109,-2.1109,-2.1109,-2.1109,-2.1109,-2.1109,-2.1109,-2.1109,-2.1109,-2.1109,-2.0684,-2.0106,-2.0106,-1.9718,-1.9106,-1.8934,-1.8524,-1.7958,-1.7071,-1.5966,-1.4865,-1.4124,-1.3335,-1.267,-1.267,-1.2572,-1.2451,-1.2394,-1.237,-1.235,-1.2304,-1.2242,-1.2148,-1.2059,-1.2903,-1.3695,-1.3695,-1.3695,-1.3515,-1.2861,-1.2741,-1.2556,-1.1955,-1.1834,-1.1834,-1.1834,-1.1834,-1.1834,-1.1834,-1.1834,-1.1834,-1.1834,-1.1834,-1.1834,-1.1834,-1.1174,-1.1088,-1.1804,-1.0543,-1.0092,-1.0759,-1.0785,-1.0486,-0.9822,-0.9792,-0.9792,-0.9792,-0.9792,-0.9792,-0.9792,-0.9792,-0.9792,-1.0477,0.0,-1.4557,-1.66,-1.7522,0.0,-1.7982,-1.8209,-1.8497,-1.8763,-1.9085,-1.9334,-1.9388,-1.9395,-1.9395,-1.9395,-1.9395,-1.9395,-1.9395,-1.9395,-1.9395,-1.9395,-1.9395,-1.9395,-1.9395,-1.9395,-1.9495,-1.9706,-1.9726,-1.9853,-2.011,-2.0124,-2.015,-2.0204,-2.0474,-2.0601,-2.0601,-2.0889,-2.0909,-2.0682,-2.0474,-2.0399,-2.0399,-2.0399,-2.0526,-2.0722,-2.0494,-2.0399,-2.0399,-2.0399,-1.9718,-1.8646,-1.8646,-1.7978,-1.6942,-1.6544,-1.6188,-1.5809,-1.5251,-1.4049,-1.275,-1.2524,-1.1637,-1.0688,-1.0688,-1.0688,-1.0694,-1.0568,-1.0531,-1.0504,-1.0385,-1.0337,-1.0287,-1.0123,-1.1633,-1.3092,-1.305,-1.3036,-1.2706,-1.1601,-1.136,-1.1027,-0.997,-0.9792,-0.9792,-0.9792,-0.9792,-0.9792,-0.9792,-0.9792,-0.9792,-0.9792,-0.9792,-0.9792,-0.9792,-0.9792,-0.9792,-0.9792,-0.9792,-0.9792,-0.9792,-0.9792,-0.9792,-0.9792,-0.9792,-0.9792,-0.9792,-0.9792,-0.9792,-0.9792,-0.9792,-0.9792,-0.8131,0.0,-1.4386,0.0,-1.7208,-1.7716,0.0,0.0,-1.8163,0.0,-1.8778,-1.9058,-1.9348,-1.9395,-1.9395,-1.9395,-1.9395,-1.9395,-1.9395,-1.9395,-1.9395,-1.9395,-1.9395,-1.9395,-1.9395,-1.9395,-1.9408,-1.9448,-1.9455,-1.9582,-1.9846,-1.986,-1.9973,-2.0197,-2.0237,-2.0264,-2.0264,-2.0588,-2.013,-1.8924,-1.8004,-1.756,-1.756,-1.756,-1.8171,-1.9234,-1.8043,-1.756,-1.756,-1.756,-1.7426,-1.7265,-1.7265,-1.7168,-1.6942,-1.6544,-1.6188,-1.5679,-1.4106,-1.323,-1.2589,-1.1376,-1.085,-1.0688,-1.0688,-1.0688,-1.0684,-1.0697,-1.0657,-1.0683,-1.0666,-1.0565,-1.046,-1.0436,-1.0608,-1.0674,-1.0395,-1.0331,-1.027,-1.0092,-1.0061,-1.0001,-0.9819,-0.9792,-0.9792,-0.9792,-0.9792,-0.9792,-0.9792,-0.9792,-0.9792,-0.9792,-0.9792,-0.9792,-0.9792,-0.9792,-0.9792,-0.9792,-0.9792,-0.9792,-0.9792,-0.9792,-0.9792,-0.9792,-0.9792,-0.9792,-0.9792,-0.9792,-0.9792,-0.9792,-0.9792,-0.9792,-0.9091,-1.1398,-1.3708,0.0,-1.678,-1.7215,-1.7682,-1.7789,-1.7876,-1.8149,-1.8316,-1.8543,-1.9038,-1.9259,-1.9395,-1.9395,-1.9395,-1.9395,-1.9395,-1.9395,-1.9395,-1.9395,-1.9395,-1.9395,-1.9395,-1.9395,-1.9395,-1.9395,-1.9395,-1.9448,-1.9582,-1.9589,-1.9312,-1.8705,-1.8827,-1.8578,-1.7846,-1.8134,-1.8026,-1.7534,-1.7182,-1.7012,-1.698,-1.6171,-1.6592,-1.785,-1.7265,-1.7012,-1.7012,-1.7012,-1.6527,-1.5814,-1.5619,-1.5163,-1.4553,-1.3755,-1.353,-1.344,-1.2252,-1.1765,-1.1505,-1.0916,-1.0688,-1.0688,-1.0688,-1.0688,-1.0688,-1.0688,-1.0688,-1.0688,-1.0688,-1.067,-1.0592,-1.048,-1.0426,-1.0354,-1.0192,-1.0117,-1.008,-1.008,-1.008,-1.0049,-0.9934,-0.9917,-0.989,-0.9802,-0.9792,-0.9792,-0.9792,-0.9792,-0.9792,-0.9792,-0.9792,-0.9792,-0.9792,-0.9792,-0.9792,-0.9792,-0.9792,-0.9792,-0.9792,-0.9792,-0.9792,-0.9792,-0.9792,-0.9792,-0.9792,-0.9792,-0.9792,-0.9792,-0.9792,-0.9792,0.0,0.0,-1.2065,-1.4692,-1.5499,-1.5937,0.0,0.0,-1.7239,0.0,-1.7935,-1.8129,-1.8589,-1.9005,-1.9259,-1.9259,-1.9348,-1.9395,-1.9395,-1.9395,-1.9395,-1.9395,-1.9395,-1.9395,-1.9395,-1.9395,-1.9395,-1.9395,-1.9395,-1.9395,-1.9395,-1.9098,-1.8467,-1.7542,-1.7375,-1.6848,-1.5923,-1.582,-1.5888,-1.6171,-1.5969,-1.5888,-1.5911,-1.4847,-1.494,-1.5944,-1.5944,-1.5944,-1.5944,-1.5944,-1.5261,-1.4226,-1.3964,-1.3317,-1.2441,-1.1545,-1.1383,-1.1549,-1.092,-1.0688,-1.0688,-1.0688,-1.0688,-1.0688,-1.0688,-1.0688,-1.0688,-1.0688,-1.0688,-1.0688,-1.0688,-1.0688,-1.065,-1.0498,-1.0524,-1.0521,-1.0409,-1.0331,-1.0312,-1.0312,-1.0312,-1.0243,-1.0096,-1.0076,-1.0038,-0.9954,-0.9937,-0.9937,-0.9937,-0.9937,-0.9937,-0.9937,-0.9937,-0.989,-0.9852,-0.9849,-0.9832,-0.9792,-0.9792,-0.9792,-0.9792,-0.9829,-0.9849,-0.9849,-0.9886,-0.99,-0.9792,-0.9792,-0.9792,-0.9792,-0.9792,-0.9792,0.0,-0.787,0.0,-1.2034,-1.2766,0.0,0.0,0.0,-1.6074,-1.7358,-1.7816,-1.8002,-1.8035,-1.8536,-1.8916,-1.8916,-1.9185,-1.9395,-1.9395,-1.9395,-1.9395,-1.9395,-1.9395,-1.9395,-1.9395,-1.9395,-1.9395,-1.9395,-1.9395,-1.9395,-1.9395,-1.8256,-1.7572,-1.7513,-1.6349,-1.568,-1.562,-1.4559,-1.4256,-1.4682,-1.3429,-1.2893,-1.3034,-1.2935,-1.2935,-1.3034,-1.3034,-1.3034,-1.3034,-1.3034,-1.2803,-1.2437,-1.2408,-1.2177,-1.1813,-1.1347,-1.1214,-1.1181,-1.082,-1.0688,-1.0688,-1.0688,-1.0688,-1.0688,-1.0688,-1.0688,-1.0688,-1.0688,-1.0688,-1.0688,-1.0688,-1.0688,-1.0684,-1.0674,-1.0707,-1.0629,-1.0348,-1.0315,-1.0312,-1.0312,-1.0312,-1.0312,-1.0301,-1.0266,-1.0266,-1.0288,-1.0256,-1.0256,-1.0256,-1.0256,-1.0256,-1.0256,-1.0256,-1.0198,-1.0018,-0.9974,-0.9944,-0.9798,-0.9792,-0.9792,-0.9792,-0.993,-0.9974,-0.9974,-1.0181,-1.0114,-0.9792,-0.9792,-0.9792,-0.9792,-0.9792,-0.9792,0.0,0.0,0.0,-1.0496,-1.1432,-1.2087,-1.366,-1.4265,-1.4847,-1.6072,-1.6494,-1.6876,-1.7616,-1.8243,-1.8644,-1.8644,-1.8099,-1.7676,-1.7676,-1.7033,-1.663,-1.6744,-1.6767,-1.6832,-1.6944,-1.6967,-1.6967,-1.6967,-1.6967,-1.6967,-1.6967,-1.6514,-1.5919,-1.5084,-1.4619,-1.3998,-1.3174,-1.2852,-1.2766,-1.2935,-1.2706,-1.2629,-1.2666,-1.2554,-1.2474,-1.2474,-1.2243,-1.2276,-1.2474,-1.2474,-1.2276,-1.1978,-1.1978,-1.1912,-1.1747,-1.1115,-1.1019,-1.1148,-1.082,-1.0688,-1.0688,-1.0688,-1.0688,-1.0688,-1.0688,-1.0688,-1.0688,-1.0688,-1.0688,-1.0688,-1.0688,-1.0688,-1.0688,-1.0688,-1.0688,-1.0657,-1.0585,-1.0561,-1.0561,-1.0561,-1.0561,-1.0531,-1.0432,-1.0415,-1.0385,-1.0293,-1.0312,-1.0312,-1.0312,-1.0312,-1.0312,-1.0312,-1.0312,-1.0256,-1.0202,-1.0198,-1.0175,-1.012,-1.0117,-1.0117,-1.0117,-1.0168,-1.0198,-1.0198,-1.0253,-1.0178,-0.9937,-0.9937,-0.9886,-0.9792,-0.9792,-0.9792,-0.5468,0.0,0.0,0.0,0.0,-1.0019,-1.1933,-1.2592,-1.3191,-1.4622,-1.5103,-1.5461,-1.6274,-1.6759,-1.7184,-1.7671,-1.6833,-1.6126,-1.6126,-1.5468,-1.5038,-1.5178,-1.5108,-1.5176,-1.5482,-1.5416,-1.5395,-1.5445,-1.5421,-1.5421,-1.5421,-1.4911,-1.4078,-1.2916,-1.3015,-1.2664,-1.1806,-1.189,-1.1971,-1.2001,-1.2177,-1.2258,-1.2323,-1.2141,-1.2059,-1.2059,-1.1721,-1.1813,-1.2144,-1.2144,-1.1912,-1.1615,-1.1615,-1.1516,-1.1383,-1.0886,-1.0853,-1.0982,-1.0787,-1.0688,-1.0688,-1.0688,-1.0688,-1.0688,-1.0688,-1.0688,-1.0688,-1.0688,-1.0688,-1.0688,-1.0688,-1.0688,-1.0688,-1.0688,-1.0688,-1.0688,-1.0688,-1.0688,-1.0688,-1.0688,-1.0688,-1.0654,-1.0585,-1.0568,-1.0534,-1.0443,-1.0429,-1.0429,-1.0429,-1.0429,-1.0429,-1.0429,-1.0429,-1.0409,-1.0354,-1.0383,-1.0363,-1.0315,-1.0312,-1.0312,-1.0312,-1.0327,-1.0383,-1.0383,-1.0402,-1.0351,-1.0167,-1.012,-1.0042,-0.9975,-0.9975,-0.9975,0.0,0.0,0.0,0.0,0.0,0.0,-1.1038,0.0,-1.1078,-1.3084,-1.366,-1.3857,-1.404,-1.4067,-1.4526,-1.5936,-1.5472,-1.4928,-1.4928,-1.49,-1.4877,-1.4883,-1.4657,-1.4667,-1.5142,-1.4932,-1.4852,-1.4969,-1.4985,-1.499,-1.5,-1.3506,-1.2251,-1.1333,-1.1617,-1.1776,-1.1776,-1.1776,-1.1857,-1.1958,-1.1626,-1.1596,-1.1767,-1.1649,-1.1595,-1.157,-1.1311,-1.1416,-1.178,-1.178,-1.1549,-1.1181,-1.1214,-1.0982,-1.0688,-1.0688,-1.0688,-1.0688,-1.0688,-1.0688,-1.0688,-1.0688,-1.0688,-1.0688,-1.0688,-1.0688,-1.0688,-1.0688,-1.0688,-1.0688,-1.0688,-1.0688,-1.0688,-1.0688,-1.0688,-1.0688,-1.0688,-1.0688,-1.0688,-1.0688,-1.0688,-1.0688,-1.0688,-1.0688,-1.0688,-1.0688,-1.0688,-1.0688,-1.0688,-1.0688,-1.0688,-1.0688,-1.0688,-1.066,-1.051,-1.05,-1.0439,-1.0332,-1.0325,-1.0325,-1.0325,-1.0426,-1.05,-1.05,-1.0643,-1.0646,-1.05,-1.0354,-1.0315,-1.0312,-1.0312,-1.0312,-0.4224,0.0,0.0,0.0,0.0,0.0,0.0,0.0,-0.8901,-1.0808,-1.1436,-1.2083,-1.3467,-1.3173,-1.2859,-1.3267,-1.3212,-1.3132,-1.3132,-1.2422,-1.1933,-1.208,-1.2041,-1.2088,-1.2307,-1.2094,-1.209,-1.2466,-1.2094,-1.2094,-1.2685,-1.2277,-1.182,-1.1333,-1.1617,-1.1561,-1.1065,-1.1307,-1.133,-1.1134,-1.1198,-1.1255,-1.1277,-1.1208,-1.1171,-1.1146,-1.0916,-1.0886,-1.1019,-1.128,-1.1148,-1.0853,-1.1115,-1.0982,-1.0688,-1.0688,-1.0688,-1.0688,-1.0688,-1.0688,-1.0688,-1.0688,-1.0688,-1.0688,-1.0688,-1.0688,-1.0688,-1.0688,-1.0688,-1.0688,-1.0688,-1.0688,-1.0688,-1.0688,-1.0688,-1.0688,-1.0688,-1.0688,-1.0688,-1.0688,-1.0688,-1.0688,-1.0688,-1.0688,-1.0688,-1.0688,-1.0688,-1.0688,-1.0688,-1.0688,-1.0688,-1.0688,-1.0688,-1.0671,-1.066,-1.0623,-1.0639,-1.0602,-1.0599,-1.0599,-1.0599,-1.0636,-1.0623,-1.0623,-1.0667,-1.0667,-1.0623,-1.0507,-1.0382,-1.0312,-1.0312,-1.0312,0.0,0.0,0.0,0.0,0.0,0.0,-0.6432,-0.6957,-0.7718,-0.9284,-0.9865,-1.0429,-1.1474,-1.135,-1.1028,-1.0924,-1.1097,-1.135,-1.1651,-1.1126,-1.0733,-1.087,-1.0771,-1.0811,-1.1098,-1.0861,-1.0818,-1.1137,-1.0827,-1.076,-1.1022,-1.1246,-1.1281,-1.1091,-1.1281,-1.1345,-1.122,-1.1126,-1.1061,-1.1001,-1.0828,-1.0784,-1.0761,-1.064,-1.0629,-1.0702,-1.0623,-1.066,-1.0721,-1.092,-1.0883,-1.0721,-1.092,-1.0886,-1.0688,-1.0688,-1.0688,-1.0688,-1.0688,-1.0688,-1.0688,-1.0688,-1.0688,-1.0688,-1.0688,-1.0688,-1.0688,-1.0688,-1.0688,-1.0688,-1.0688,-1.0688,-1.0688,-1.0688,-1.0688,-1.0688,-1.0688,-1.0688,-1.0688,-1.0688,-1.0688,-1.0688,-1.0688,-1.0688,-1.0688,-1.0688,-1.0688,-1.0688,-1.0688,-1.0688,-1.0688,-1.0688,-1.0688,-1.0688,-1.0688,-1.0688,-1.0688,-1.0688,-1.0688,-1.0688,-1.0688,-1.0688,-1.0688,-1.0688,-1.0688,-1.0688,-1.0688,-1.0629,-1.0544,-1.0463,-1.0463,-1.0463,0.0,0.0,0.0,0.0,-0.5718,0.0,-0.6882,-0.6996,-0.7137,-0.8128,-0.8587,-0.8812,-0.8816,-0.91,-0.9259,-0.8993,-0.9287,-0.9766,-1.0522,-1.0652,-1.0665,-1.0692,-1.05,-1.0512,-1.0923,-1.0659,-1.0556,-1.072,-1.0751,-1.0546,-1.0073,-1.0535,-1.08,-1.0759,-1.0789,-1.1035,-1.1561,-1.1008,-1.088,-1.1122,-1.0516,-1.0243,-1.0251,-1.0071,-1.0092,-1.0263,-1.0422,-1.0568,-1.0697,-1.0681,-1.0688,-1.0688,-1.0688,-1.0688,-1.0688,-1.0688,-1.0688,-1.0688,-1.0688,-1.0688,-1.0688,-1.0688,-1.0688,-1.0688,-1.0688,-1.0688,-1.0688,-1.0688,-1.0688,-1.0688,-1.0688,-1.0688,-1.0688,-1.0688,-1.0688,-1.0688,-1.0688,-1.0688,-1.0688,-1.0688,-1.0688,-1.0688,-1.0688,-1.0688,-1.0688,-1.0688,-1.0688,-1.0688,-1.0688,-1.0688,-1.0688,-1.0688,-1.0688,-1.0688,-1.0688,-1.0688,-1.0688,-1.0688,-1.0688,-1.0688,-1.0688,-1.0688,-1.0688,-1.0688,-1.0688,-1.0688,-1.0688,-1.0688,-1.0688,-1.0688,-1.0688,-1.0688,-0.5739,-0.5935,-0.6113,-0.563,0.0,0.0,-0.552,-0.5728,-0.616,0.0,-0.6808,-0.7067,-0.7538,-0.8003,-0.823,-0.8071,-0.8596,-0.9298,-1.003,-1.0276,-1.0445,-1.0665,-1.0637,-1.0653,-1.0745,-1.0497,-1.052,-1.092,-1.1028,-1.0895,-1.0425,-1.0758,-1.0778,-1.0422,-1.0668,-1.0607,-1.0186,-1.0334,-1.0304,-1.0092,-0.9974,-0.9913,-0.9886,-0.9981,-1.0035,-1.0079,-1.0378,-1.051,-1.0548,-1.067,-1.0688,-1.0688,-1.0688,-1.0688,-1.0688,-1.0688,-1.0688,-1.0688,-1.0688,-1.0688,-1.0688,-1.0688,-1.0688,-1.0688,-1.0688,-1.0688,-1.0688,-1.0688,-1.0688,-1.0688,-1.0688,-1.0688,-1.0688,-1.0688,-1.0688,-1.0688,-1.0688,-1.0688,-1.0688,-1.0688,-1.0688,-1.0688,-1.0688,-1.0688,-1.0688,-1.0688,-1.0688,-1.0688,-1.0688,-1.0688,-1.0688,-1.0688,-1.0688,-1.0688,-1.0688,-1.0688,-1.0688,-1.0688,-1.0688,-1.0688,-1.0688,-1.0688,-1.0688,-1.0688,-1.0688,-1.0688,-1.0688,-1.0688,-1.0688,-1.0688,-1.0688,-1.0688,-0.6256,-0.6321,-0.642,-0.6124,0.0,0.0,0.0,-0.5898,-0.611,-0.6633,-0.6647,-0.6651,-0.6979,-0.7373,-0.7573,-0.7302,-0.7874,-0.8491,-0.8929,-0.9496,-0.9896,-1.003,-1.0101,-1.0206,-1.0337,-1.0311,-1.0457,-1.0822,-1.0855,-1.0681,-1.0275,-1.0406,-1.0413,-1.0224,-1.0265,-1.0304,-1.0304,-1.0122,-1.0061,-1.0061,-0.9879,-0.9792,-0.9792,-0.9869,-0.9947,-1.0,-1.029,-1.0426,-1.0504,-1.0623,-1.0688,-1.0688,-1.0688,-1.0688,-1.0688,-1.0688,-1.0688,-1.0688,-1.0688,-1.0688,-1.0688,-1.0688,-1.0688,-1.0688,-1.0688,-1.0688,-1.0688,-1.0688,-1.0688,-1.0688,-1.0688,-1.0688,-1.0688,-1.0688,-1.0688,-1.0688,-1.0688,-1.0688,-1.0688,-1.0688,-1.0688,-1.0688,-1.0688,-1.0688,-1.0688,-1.0688,-1.0688,-1.0688,-1.0688,-1.0688,-1.0688,-1.0688,-1.0688,-1.0688,-1.0688,-1.0688,-1.0688,-1.0688,-1.0688,-1.0688,-1.0688,-1.0688,-1.0688,-1.0688,-1.0688,-1.0688,-1.0688,-1.0688,-1.0688,-1.0688,-1.0688,-1.0688,0.0,0.0,0.0,0.0,0.0,-0.6582,0.0,0.0,0.0,-0.6906,-0.6761,-0.654,0.0,0.0,-0.6862,-0.6508,-0.7068,-0.7561,-0.7613,-0.8366,-0.9012,-0.9259,-0.9414,-0.9591,-0.9821,-0.9914,-1.0134,-1.0604,-1.0378,-1.0169,-0.9998,-0.9997,-0.999,-0.9991,-0.984,-1.0034,-1.0607,-1.0065,-0.994,-1.0213,-0.994,-0.9792,-0.9792,-0.9792,-0.9856,-0.9984,-1.0168,-1.0317,-1.0463,-1.0616,-1.0694,-1.0688,-1.0688,-1.0688,-1.0688,-1.0688,-1.0688,-1.0688,-1.0688,-1.0688,-1.0688,-1.0688,-1.0688,-1.0688,-1.0688,-1.0688,-1.0688,-1.0688,-1.0688,-1.0688,-1.0688,-1.0688,-1.0688,-1.0688,-1.0688,-1.0688,-1.0688,-1.0688,-1.0688,-1.0688,-1.0688,-1.0688,-1.0688,-1.0688,-1.0688,-1.0688,-1.0688,-1.0688,-1.0688,-1.0688,-1.0688,-1.0688,-1.0688,-1.0688,-1.0688,-1.0688,-1.0688,-1.0688,-1.0688,-1.0688,-1.0688,-1.0688,-1.0688,-1.0688,-1.0688,-1.0688,-1.0688,-1.0688,-1.0688,-1.0688,-1.0688,-1.0688,0.0,0.0,0.0,0.0,-0.717,0.0,0.0,0.0,-0.6363,-0.6028,0.0,0.0,0.0,0.0,0.0,0.0,-0.6158,-0.6546,-0.6267,-0.6788,-0.761,-0.873,-0.9029,-0.918,-0.9287,-0.894,-0.9188,-1.035,-0.9714,-0.9475,-0.9965,-0.999,-0.9882,-0.9661,-0.9625,-0.9723,-0.991,-0.9849,-0.9822,-0.9852,-0.9822,-0.9792,-0.9792,-0.9792,-0.9798,-0.9825,-0.9978,-1.013,-1.0317,-1.046,-1.0599,-1.0688,-1.0688,-1.0688,-1.0688,-1.0688,-1.0688,-1.0688,-1.0688,-1.0688,-1.0688,-1.0688,-1.0688,-1.0688,-1.0688,-1.0688,-1.0688,-1.0688,-1.0688,-1.0688,-1.0688,-1.0688,-1.0688,-1.0688,-1.0688,-1.0688,-1.0688,-1.0688,-1.0688,-1.0688,-1.0688,-1.0688,-1.0688,-1.0688,-1.0688,-1.0688,-1.0688,-1.0688,-1.0688,-1.0688,-1.0688,-1.0688,-1.0688,-1.0688,-1.0688,-1.0688,-1.0688,-1.0688,-1.0688,-1.0688,-1.0688,-1.0688,-1.0688,-1.0688,-1.0688,-1.0688,-1.0688,-1.0688,-1.0688,-1.0688,-1.0688,-1.0688,0.0,0.0,0.0,0.0,0.0,0.0,-0.6532,0.0,-0.6237,0.0,0.0,0.0,0.0,0.0,0.0,0.0,-0.5841,-0.601,-0.5803,-0.6045,-0.6595,-0.7483,-0.7726,-0.8043,-0.8633,-0.8641,-0.8872,-0.9483,-0.9362,-0.9291,-0.935,-0.977,-0.9831,-0.9499,-0.9564,-0.968,-0.9788,-0.9792,-0.9792,-0.9792,-0.9792,-0.9792,-0.9792,-0.9792,-0.9792,-0.9798,-0.995,-1.0055,-1.0164,-1.0395,-1.0531,-1.0599,-1.0683,-1.0688,-1.0688,-1.0688,-1.0688,-1.0688,-1.0688,-1.0688,-1.0688,-1.0688,-1.0688,-1.0688,-1.0688,-1.0688,-1.0688,-1.0688,-1.0688,-1.0688,-1.0688,-1.0688,-1.0688,-1.0688,-1.0688,-1.0688,-1.0688,-1.0688,-1.0688,-1.0688,-1.0688,-1.0688,-1.0688,-1.0688,-1.0688,-1.0688,-1.0688,-1.0688,-1.0688,-1.0688,-1.0688,-1.0688,-1.0688,-1.0688,-1.0688,-1.0688,-1.0688,-1.0688,-1.0688,-1.0688,-1.0688,-1.0688,-1.0688,-1.0688,-1.0688,-1.0688,-1.0688,-1.0688,-1.0688,-1.0688,-1.0688,-1.0688,-0.7865,0.0,0.0,0.0,0.0,0.0,0.0,0.0,0.0,0.0,0.0,0.0,0.0,0.0,0.0,0.0,0.0,-0.5708,0.0,-0.5528,0.0,-0.6469,-0.6726,-0.7163,-0.7896,-0.7934,-0.8136,-0.8679,-0.8703,-0.8796,-0.9015,-0.9446,-0.9634,-0.9516,-0.9545,-0.9635,-0.9788,-0.9792,-0.9792,-0.9792,-0.9792,-0.9792,-0.9792,-0.9792,-0.9792,-0.9798,-0.9907,-0.9981,-1.0007,-1.0327,-1.0456,-1.0507,-1.066,-1.0688,-1.0688,-1.0688,-1.0688,-1.0688,-1.0688,-1.0688,-1.0688,-1.0688,-1.0688,-1.0688,-1.0688,-1.0688,-1.0688,-1.0688,-1.0688,-1.0688,-1.0688,-1.0688,-1.0688,-1.0688,-1.0688,-1.0688,-1.0688,-1.0688,-1.0688,-1.0688,-1.0688,-1.0688,-1.0688,-1.0688,-1.0688,-1.0688,-1.0688,-1.0688,-1.0688,-1.0688,-1.0688,-1.0688,-1.0688,-1.0688,-1.0688,-1.0688,-1.0688,-1.0688,-1.0688,-1.0688,-1.0688,-1.0688,-1.0688,-1.0688,-1.0688,-1.0688,-1.0688,-1.0688,-1.0688,-1.0688,-1.0688,-1.0688,-0.8355,-0.8379,-0.8274,-0.7344,-0.7255,-0.7218,-0.648,0.0,-0.6799,0.0,0.0,0.0,0.0,0.0,0.0,0.0,0.0,0.0,0.0,0.0,0.0,0.0,0.0,-0.6884,-0.711,-0.639,-0.6542,-0.8106,-0.7454,-0.7689,-0.9298,-0.91,-0.9201,-0.9762,-0.953,-0.9527,-0.9788,-0.9792,-0.9792,-0.9792,-0.9792,-0.9792,-0.9792,-0.9792,-0.9792,-0.9792,-0.9795,-0.9883,-1.0032,-1.0222,-1.0368,-1.0507,-1.066,-1.0688,-1.0688,-1.0688,-1.0688,-1.0688,-1.0688,-1.0688,-1.0688,-1.0688,-1.0688,-1.0688,-1.0688,-1.0688,-1.0688,-1.0688,-1.0688,-1.0688,-1.0688,-1.0688,-1.0688,-1.0688,-1.0688,-1.0688,-1.0688,-1.0688,-1.0688,-1.0688,-1.0688,-1.0688,-1.0688,-1.0688,-1.0688,-1.0688,-1.0688,-1.0688,-1.0688,-1.0688,-1.0688,-1.0688,-1.0688,-1.0688,-1.0688,-1.0688,-1.0688,-1.0688,-1.0688,-1.0688,-1.0688,-1.0688,-1.0688,-1.0688,-1.0688,-1.0688,-1.0688,-1.0688,-1.0688,-1.0688,-1.0688,-1.0688,-0.8464,-0.8704,-0.8724,-0.7808,-0.769,-0.7577,-0.6764,-0.6749,-0.6823,0.0,0.0,0.0,0.0,0.0,0.0,0.0,0.0,0.0,0.0,0.0,0.0,0.0,0.0,0.0,0.0,-0.6003,-0.6243,-0.7013,-0.7167,-0.7548,-0.8308,-0.8831,-0.9123,-0.9192,-0.9337,-0.9479,-0.968,-0.9744,-0.9792,-0.9792,-0.9792,-0.9792,-0.9792,-0.9792,-0.9792,-0.9792,-0.9792,-0.9819,-0.9886,-1.0175,-1.0342,-1.0378,-1.0622,-1.0688,-1.0688,-1.0688,-1.0688,-1.0688,-1.0688,-1.0688,-1.0688,-1.0688,-1.0688,-1.0688,-1.0688,-1.0688,-1.0688,-1.0688,-1.0688,-1.0688,-1.0688,-1.0688,-1.0688,-1.0688,-1.0688,-1.0688,-1.0688,-1.0688,-1.0688,-1.0688,-1.0688,-1.0688,-1.0688,-1.0688,-1.0688,-1.0688,-1.0688,-1.0688,-1.0688,-1.0688,-1.0688,-1.0688,-1.0688,-1.0688,-1.0688,-1.0688,-1.0688,-1.0688,-1.0688,-1.0688,-1.0688,-1.0688,-1.0688,-1.0688,-1.0688,-1.0688,-1.0688,-1.0688,-1.0688,-1.0688,-1.0688,-1.0688,-0.8577,-0.8795,-0.8842,-0.8053,-0.7942,-0.7808,-0.7015,-0.7033,-0.7134,-0.6876,0.0,0.0,0.0,0.0,0.0,0.0,0.0,0.0,0.0,-0.497,0.0,0.0,0.0,0.0,0.0,-0.5568,-0.5783,-0.6381,-0.6725,-0.7178,-0.7828,-0.851,-0.894,-0.9068,-0.9282,-0.9456,-0.9608,-0.9721,-0.9792,-0.9792,-0.9792,-0.9792,-0.9792,-0.9792,-0.9792,-0.9792,-0.9792,-0.9792,-0.9815,-1.0154,-1.0312,-1.0342,-1.0605,-1.0688,-1.0688,-1.0688,-1.0688,-1.0688,-1.0688,-1.0688,-1.0688,-1.0688,-1.0688,-1.0688,-1.0688,-1.0688,-1.0688,-1.0688,-1.0688,-1.0688,-1.0688,-1.0688,-1.0688,-1.0688,-1.0688,-1.0688,-1.0688,-1.0688,-1.0688,-1.0688,-1.0688,-1.0688,-1.0688,-1.0688,-1.0688,-1.0688,-1.0688,-1.0688,-1.0688,-1.0688,-1.0688,-1.0688,-1.0688,-1.0688,-1.0688,-1.0688,-1.0688,-1.0688,-1.0688,-1.0688,-1.0688,-1.0688,-1.0688,-1.0688,-1.0688,-1.0688,-1.0688,-1.0688,-1.0688,-1.0688,-1.0688,-1.0688]},{"header":{"parameterUnit":"m.s-1","parameterCategory":1,"la1":30.6,"la2":29.2853,"lo1":-89.7004,"lo2":-87.6739,"dy":0.0162,"dx":0.0183,"nx":112,"ny":82,"refTime":"2024-08-20T06:00:00:Z","depth":0,"parameterNumber":3,"parameterNumberName":"V-component_of_WINDS"},"data":[0.0,0.0,0.0,0.0,0.0,0.0,0.0,0.0,0.0,0.0,0.0,0.0,0.0,0.0,0.0,0.0,0.0,0.0,0.0,0.0,0.0,0.0,0.0,0.0,0.0,0.0,0.0,0.0,0.0,0.0,0.0,0.0,0.0,0.0,0.0,0.0,0.0,0.0,0.0,0.0,0.0,0.0,0.0,0.0,0.0,0.0,0.0,0.0,0.0,0.0,0.0,0.0,0.0,0.0,0.0,0.0,0.0,0.0,0.0,0.0,0.0,0.0,0.0,0.0,0.0,0.0,0.0,0.0,0.0,0.0,0.0,0.0,0.0,0.0,0.0,0.0,0.0,0.0,0.0,0.0,0.0,0.0,0.0,0.0,0.0,0.0,0.0,0.0,0.0,0.0,1.4715,1.7613,2.0169,2.1678,2.1753,2.201,2.0272,1.5767,0.0,0.0,0.0,0.0,0.0,0.0,0.0,0.0,0.0,0.0,0.0,0.0,0.0,0.0,0.0,0.0,0.0,0.0,0.0,0.0,0.0,0.0,0.0,0.0,0.0,0.0,0.0,0.0,0.0,0.0,0.0,0.0,0.0,0.0,0.0,0.0,0.0,0.0,0.0,0.0,0.0,0.0,0.0,0.0,0.0,0.0,0.0,0.0,0.0,0.0,0.0,0.0,0.0,0.0,0.0,0.0,0.0,0.0,0.0,0.0,0.0,0.0,0.0,0.0,0.0,0.0,0.0,0.0,0.0,0.0,0.0,0.0,0.0,0.0,0.0,0.0,0.0,0.0,0.0,0.0,0.0,0.0,0.0,0.0,0.0,0.0,0.0,0.0,0.0,0.0,0.0,0.0,0.0,0.0,0.0,0.0,0.0,0.0,0.0,0.0,0.0,0.0,0.0,0.0,1.6108,2.0335,2.1172,2.16,2.202,2.2089,2.0321,1.6093,0.0,0.0,0.0,0.0,0.0,0.0,0.0,0.0,0.0,0.0,0.0,0.0,0.0,0.0,0.0,0.0,0.0,0.0,0.0,0.0,0.0,0.0,0.0,0.0,0.0,0.0,0.0,0.0,0.0,0.0,0.0,0.0,0.0,0.0,0.0,0.0,0.0,0.0,0.0,0.0,0.0,0.0,0.0,0.0,0.0,0.0,0.0,0.0,0.0,0.0,0.0,0.0,0.0,0.0,0.0,0.0,0.0,0.0,0.0,0.0,0.0,0.0,0.0,0.0,0.0,0.0,0.0,0.0,0.0,0.0,0.0,0.0,0.0,0.0,0.0,0.0,0.0,0.0,0.0,0.0,0.0,0.0,0.0,0.0,0.0,0.0,0.0,0.0,0.0,0.0,0.0,0.0,0.0,0.0,0.0,0.0,0.0,0.0,0.0,0.0,0.0,0.0,0.0,1.5468,1.7728,2.1245,2.1803,2.2032,2.2245,2.2326,2.0671,1.6691,1.6099,0.0,0.0,0.0,0.0,0.0,0.0,0.0,0.0,0.0,0.0,0.0,0.0,0.0,0.0,0.0,0.0,0.0,0.0,0.0,0.0,0.0,0.0,0.0,0.0,0.0,0.0,0.0,0.0,0.0,0.0,0.0,0.0,0.0,0.0,0.0,0.0,0.0,0.0,0.0,0.0,0.0,0.0,0.0,0.0,0.0,0.0,0.0,0.0,0.0,0.0,0.0,0.0,0.0,0.0,0.0,0.0,0.0,0.0,0.0,0.0,0.0,0.0,0.0,0.0,0.0,0.0,0.0,0.0,0.0,0.0,0.0,0.0,0.0,0.0,0.0,0.0,0.0,0.0,0.0,0.0,0.0,0.0,0.0,0.0,0.0,0.0,0.0,0.0,0.0,0.0,0.0,0.0,0.0,0.0,0.0,0.0,0.0,0.0,0.0,0.0,0.0,0.0,1.762,1.9235,2.1671,2.2185,2.2377,2.2391,2.2006,2.0291,1.6867,1.5668,0.0,0.0,0.0,0.0,0.0,0.0,0.0,0.0,0.0,0.0,0.0,0.0,0.0,0.0,0.0,0.0,0.0,0.0,0.0,0.0,0.0,0.0,0.0,0.0,0.0,0.0,0.0,0.0,0.0,0.0,0.0,0.0,0.0,0.0,0.0,0.0,0.0,0.0,0.0,0.0,0.0,0.0,0.0,0.0,0.0,0.0,0.0,0.0,0.0,0.0,0.0,0.0,0.0,0.0,0.0,0.0,0.0,0.0,0.0,0.0,0.0,0.0,0.0,0.0,0.0,0.0,0.0,0.0,0.0,0.0,0.0,0.0,0.0,0.0,0.0,0.0,0.0,0.0,0.0,0.0,0.0,0.0,0.0,0.0,0.0,0.0,0.0,0.0,0.0,0.0,0.0,0.0,0.0,0.0,0.0,0.0,0.0,0.0,0.0,0.0,0.0,0.0,1.8046,2.0475,2.2082,2.2289,2.2331,2.2384,2.0469,1.829,1.6012,1.3839,0.0,0.0,0.0,0.0,0.0,0.0,0.0,0.0,0.0,0.0,0.0,0.0,0.0,0.0,0.0,0.0,0.0,0.0,0.0,0.0,0.0,0.0,0.0,0.0,0.0,0.0,0.0,0.0,0.0,0.0,0.0,0.0,0.0,0.0,0.0,0.0,0.0,0.0,0.0,0.0,0.0,0.0,0.0,0.0,0.0,0.0,0.0,0.0,0.0,0.0,0.0,0.0,0.0,0.0,0.0,0.0,0.0,0.0,0.0,0.0,0.0,0.0,0.0,0.0,0.0,0.0,0.0,0.0,0.0,0.0,0.0,0.0,0.0,0.0,0.0,0.0,0.0,0.0,0.0,0.0,0.0,0.0,0.0,0.0,0.0,0.0,0.0,0.0,0.0,0.0,0.0,0.0,0.0,0.0,0.0,0.0,0.0,0.0,0.0,0.0,0.0,0.0,1.7749,2.0088,0.0,2.2296,2.231,2.2338,2.1161,1.9284,1.6587,0.0,0.0,0.0,0.0,0.0,0.0,0.0,0.0,0.0,0.0,0.0,0.0,0.0,0.0,0.0,0.0,0.0,0.0,0.0,0.0,0.0,0.0,0.0,0.0,0.0,0.0,0.0,0.0,0.0,0.0,0.0,0.0,0.0,0.0,0.0,0.0,0.0,0.0,0.0,0.0,0.0,0.0,0.0,0.0,0.0,0.0,0.0,0.0,0.0,0.0,0.0,0.0,0.0,0.0,0.0,0.0,0.0,0.0,0.0,0.0,0.0,0.0,0.0,0.0,0.0,0.0,0.0,0.0,0.0,0.0,0.0,0.0,0.0,0.0,0.0,0.0,0.0,0.0,0.0,0.0,0.0,0.0,0.0,0.0,0.0,0.0,0.0,0.0,0.0,0.0,0.0,0.0,0.0,0.0,0.0,0.0,0.0,0.0,0.0,0.0,0.0,0.0,1.5375,1.7929,2.0265,0.0,2.2296,2.2338,2.2419,2.1116,1.923,1.6733,0.0,0.0,0.0,0.0,0.0,0.0,0.0,0.0,0.0,0.0,0.0,0.0,0.0,0.0,0.0,0.0,0.0,0.0,0.0,0.0,0.0,0.0,0.0,0.0,0.0,0.0,0.0,0.0,0.0,0.0,0.0,0.0,0.0,0.0,0.0,0.0,0.0,0.0,0.0,0.0,0.0,0.0,0.0,0.0,0.0,0.0,0.0,0.0,0.0,0.0,0.0,0.0,0.0,0.0,0.0,0.0,0.0,0.0,0.0,0.0,0.0,0.0,0.0,0.0,0.0,0.0,0.0,0.0,0.0,0.0,0.0,0.0,0.0,0.0,0.0,0.0,0.0,0.0,0.0,0.0,0.0,0.0,0.0,0.0,0.0,0.0,0.0,0.0,0.0,0.0,0.0,0.0,0.0,0.0,0.0,0.0,0.0,0.0,0.0,0.0,0.0,0.0,1.5518,1.8771,2.1342,2.2205,2.2296,2.2415,2.2672,1.9884,1.754,0.0,0.0,0.0,0.0,0.0,0.0,0.0,0.0,0.0,0.0,0.0,0.0,0.0,0.0,0.0,0.0,0.0,0.0,0.0,0.0,0.0,0.0,0.0,0.0,0.0,0.0,0.0,0.0,0.0,0.0,0.0,0.0,0.0,0.0,0.0,0.0,0.0,0.0,0.0,0.0,0.0,0.0,0.0,0.0,0.0,0.0,0.0,0.0,0.0,0.0,0.0,0.0,0.0,0.0,0.0,0.0,0.0,0.0,0.0,0.0,0.0,0.0,0.0,0.0,0.0,0.0,0.0,0.0,0.0,0.0,0.0,0.0,0.0,0.0,0.0,0.0,0.0,0.0,0.0,0.0,0.0,0.0,0.0,0.0,0.0,0.0,0.0,0.0,0.0,0.0,0.0,0.0,0.0,0.0,0.0,0.0,0.0,0.0,0.0,0.0,0.0,0.0,0.0,1.6143,1.9523,2.1945,2.2202,2.2268,2.2331,2.2405,2.0755,1.8872,1.6862,0.0,0.0,0.0,0.0,0.0,0.0,0.0,0.0,0.0,0.0,0.0,0.0,0.0,0.0,0.0,0.0,0.0,0.0,0.0,0.0,0.0,0.0,0.0,0.0,0.0,0.0,0.0,0.0,0.0,0.0,0.0,0.0,0.0,0.0,0.0,0.0,0.0,0.0,0.0,0.0,0.0,0.0,0.0,0.0,0.0,0.0,0.0,0.0,0.0,0.0,0.0,0.0,0.0,0.0,0.0,0.0,0.0,0.0,0.0,0.0,0.0,0.0,0.0,0.0,0.0,0.0,0.0,0.0,0.0,0.0,0.0,0.0,0.0,0.0,0.0,0.0,0.0,0.0,0.0,0.0,0.0,0.0,0.0,0.0,0.0,0.0,0.0,0.0,0.0,0.0,0.0,0.0,0.0,0.0,0.0,0.0,0.0,0.0,0.0,0.0,0.0,0.0,1.6482,1.9887,2.2209,2.212,2.2297,2.2446,2.2538,2.1686,2.0198,1.7946,0.0,0.0,0.0,0.0,0.0,0.0,0.0,0.0,0.0,0.0,0.0,0.0,0.0,0.0,0.0,0.0,0.0,0.0,0.0,0.0,0.0,0.0,0.0,0.0,0.0,0.0,0.0,0.0,0.0,0.0,0.0,0.0,0.0,0.0,0.0,0.0,0.0,0.0,0.0,0.0,0.0,0.0,0.0,0.0,0.0,0.0,0.0,0.0,0.0,0.0,0.0,0.0,0.0,0.0,0.0,0.0,0.0,0.0,0.0,0.0,0.0,0.0,0.0,0.0,0.0,0.0,0.0,0.0,0.0,0.0,0.0,0.0,0.0,0.0,0.0,0.0,0.0,0.0,0.0,0.0,0.0,0.0,0.0,0.0,0.0,0.0,0.0,0.0,0.0,0.0,0.0,0.0,0.0,0.0,0.0,0.0,0.0,0.0,0.0,0.0,0.0,0.0,1.6699,2.0037,2.226,2.2077,2.2385,2.2693,2.2873,2.2523,2.1404,1.9322,0.0,0.0,0.0,0.0,0.0,0.0,0.0,0.0,0.0,0.0,0.0,0.0,0.0,0.0,0.0,0.0,0.0,0.0,0.0,0.0,0.0,0.0,0.0,0.0,0.0,0.0,0.0,0.0,0.0,0.0,0.0,0.0,0.0,0.0,0.0,0.0,0.0,0.0,0.0,0.0,0.0,0.0,0.0,0.0,0.0,0.0,0.0,0.0,0.0,0.0,0.0,0.0,0.0,0.0,0.0,0.0,0.0,0.0,0.0,0.0,1.6419,1.5607,0.0,0.0,0.0,0.0,0.0,0.0,0.0,0.0,0.0,0.0,0.0,0.0,0.0,0.0,0.0,0.0,0.0,0.0,0.0,0.0,0.0,0.0,0.0,0.0,0.0,0.0,0.0,0.0,0.0,0.0,0.0,0.0,0.0,0.0,0.0,0.0,0.0,0.0,0.0,0.0,1.7405,2.0466,2.2518,2.2484,2.2605,2.2734,2.2884,2.2429,2.1721,2.0715,1.8605,0.0,0.0,0.0,0.0,0.0,0.0,0.0,0.0,0.0,0.0,0.0,0.0,0.0,0.0,0.0,0.0,0.0,0.0,0.0,0.0,0.0,0.0,0.0,0.0,0.0,0.0,0.0,0.0,0.0,0.0,0.0,0.0,0.0,0.0,0.0,0.0,0.0,0.0,0.0,0.0,0.0,0.0,0.0,0.0,0.0,0.0,0.0,0.0,0.0,0.0,0.0,0.0,0.0,0.0,0.0,0.0,0.0,0.0,0.0,2.0044,1.8553,0.0,0.0,0.0,0.0,0.0,0.0,0.0,0.0,0.0,0.0,0.0,0.0,0.0,0.0,0.0,0.0,0.0,0.0,0.0,0.0,0.0,0.0,0.0,0.0,0.0,0.0,0.0,0.0,0.0,0.0,0.0,0.0,0.0,0.0,0.0,0.0,0.0,0.0,0.0,0.0,1.8864,2.1195,2.2779,2.3052,2.2945,2.2874,2.2944,2.2847,2.2487,2.1815,2.0001,0.0,0.0,0.0,0.0,0.0,0.0,0.0,0.0,0.0,0.0,0.0,0.0,0.0,0.0,0.0,0.0,0.0,0.0,0.0,0.0,0.0,0.0,0.0,0.0,0.0,0.0,0.0,0.0,0.0,0.0,0.0,0.0,0.0,0.0,0.0,0.0,0.0,0.0,0.0,0.0,0.0,0.0,0.0,0.0,0.0,0.0,0.0,0.0,0.0,0.0,0.0,0.0,0.0,2.5317,2.6959,2.9824,2.8587,2.8769,2.9762,2.4093,2.2504,2.3745,2.1585,0.0,0.0,0.0,0.0,0.0,0.0,0.0,0.0,0.0,0.0,0.0,0.0,0.0,0.0,0.0,0.0,0.0,0.0,0.0,0.0,0.0,0.0,2.35,2.4625,2.5355,2.442,1.9371,0.0,0.0,0.0,0.0,0.0,0.0,0.0,0.0,0.0,0.0,0.0,2.0483,2.2207,2.3375,2.3691,2.343,2.3179,2.3057,2.3307,2.3248,2.274,2.1321,2.0227,0.0,0.0,0.0,0.0,0.0,0.0,0.0,0.0,0.0,0.0,0.0,0.0,0.0,0.0,0.0,0.0,0.0,0.0,0.0,0.0,0.0,0.0,0.0,0.0,0.0,0.0,0.0,0.0,0.0,0.0,0.0,0.0,1.4693,1.5542,0.0,0.0,0.0,0.0,0.0,0.0,0.0,0.0,0.0,0.0,0.0,0.0,0.0,2.4396,2.7068,2.8727,2.9353,2.8996,3.0308,3.0516,2.9743,3.0221,3.0551,3.0725,2.9829,0.0,2.6964,2.532,0.0,0.0,0.0,0.0,0.0,0.0,0.0,0.0,0.0,0.0,0.0,0.0,0.0,0.0,0.0,0.0,0.0,0.0,0.0,0.0,0.0,0.0,2.7877,2.7368,2.734,2.7182,2.637,2.3126,1.9898,1.8346,1.748,1.6729,0.0,0.0,0.0,0.0,0.0,0.0,2.1515,2.3643,2.4846,2.4272,2.4171,2.3895,2.3306,2.3301,2.34,2.3534,2.2684,2.1879,2.1201,1.9634,0.0,0.0,0.0,0.0,0.0,0.0,0.0,0.0,0.0,0.0,0.0,0.0,0.0,0.0,0.0,0.0,0.0,0.0,0.0,0.0,0.0,0.0,0.0,0.0,0.0,0.0,0.0,0.0,0.0,1.5484,1.7318,1.8937,1.8605,1.7879,0.0,0.0,0.0,0.0,0.0,0.0,0.0,0.0,0.0,2.5969,2.7613,2.9088,3.043,3.1954,3.2984,3.3534,3.4127,3.456,3.4817,3.5104,3.527,3.5337,3.5337,3.4339,3.2484,2.9705,2.7492,2.5805,0.0,0.0,0.0,0.0,2.5303,2.6005,2.6866,2.6901,2.6472,2.6023,0.0,0.0,0.0,0.0,0.0,0.0,0.0,2.5589,2.6071,2.7781,2.9428,2.9473,2.9565,2.9613,2.9613,2.7373,2.4758,2.2768,2.2095,2.12,1.914,1.8437,0.0,0.0,0.0,2.2043,2.3622,2.4754,2.5454,2.5577,2.5197,2.462,2.3921,2.3857,2.3743,2.3488,2.3144,2.2888,2.2739,2.1639,2.0291,0.0,0.0,0.0,0.0,0.0,0.0,0.0,0.0,0.0,0.0,0.0,0.0,0.0,0.0,0.0,0.0,0.0,0.0,0.0,0.0,0.0,0.0,0.0,0.0,0.0,0.0,0.0,0.0,1.8122,2.0214,2.2035,2.2172,2.161,0.0,0.0,0.0,0.0,0.0,0.0,2.6511,2.7515,2.8776,3.0526,3.2169,3.3214,3.3611,3.4693,3.5852,3.7049,3.6947,3.7545,3.8745,3.8639,3.865,3.8745,3.8745,3.8148,3.6898,3.3528,3.1402,3.0262,3.007,2.9755,2.944,2.985,3.0122,3.042,3.1374,3.1356,3.0831,3.0443,2.9294,2.7702,2.5915,0.0,0.0,0.0,0.0,2.8134,2.9438,3.0368,3.1063,3.1403,3.1559,3.1585,3.1402,3.0483,2.9033,2.6739,2.6139,2.5261,2.2956,2.1949,0.0,2.2201,2.2792,2.3793,2.5489,2.5868,2.6156,2.657,2.6062,2.5401,2.4642,2.442,2.4102,2.3637,2.3407,2.3407,2.3634,2.3067,2.2157,2.0888,0.0,0.0,0.0,0.0,0.0,0.0,0.0,0.0,0.0,0.0,0.0,0.0,0.0,0.0,0.0,0.0,0.0,0.0,0.0,0.0,0.0,0.0,0.0,0.0,0.0,0.0,0.0,0.0,0.0,2.3711,2.5548,0.0,0.0,0.0,0.0,2.4885,2.7476,2.9487,3.0387,3.1794,3.3603,3.5846,3.6018,3.6777,3.8243,3.8347,3.8416,3.8496,3.8485,3.8537,3.8606,3.8606,3.8606,3.8617,3.8617,3.8638,3.8506,3.6231,3.4783,3.3949,3.3262,3.3383,3.388,3.3228,3.3437,3.3941,3.3325,3.3081,3.3169,3.3969,3.3175,3.1865,3.1629,3.0542,0.0,0.0,3.1142,3.1915,3.275,3.3576,3.3993,3.3254,3.309,3.2909,3.2204,3.1986,3.1298,2.9145,2.8105,2.755,2.7375,0.0,2.6272,2.6307,2.6342,2.6405,2.6518,2.7157,2.7332,2.6676,2.657,2.6219,2.5419,2.4695,2.4337,2.4428,2.3714,2.336,2.3505,2.3475,2.3121,2.2409,2.0014,0.0,0.0,0.0,0.0,0.0,0.0,0.0,0.0,0.0,0.0,0.0,0.0,0.0,0.0,0.0,0.0,0.0,0.0,0.0,0.0,0.0,0.0,0.0,0.0,0.0,0.0,0.0,0.0,2.7399,2.9467,0.0,2.8699,2.9361,3.0023,3.0291,3.1227,3.2126,3.2904,3.3857,3.4973,3.6266,3.7249,3.8278,3.9313,3.9813,4.0072,4.0072,4.0072,4.0072,4.0072,4.0072,4.0072,4.0072,4.0072,4.0112,4.0089,3.93,3.8298,3.7234,3.6974,3.7026,3.7217,3.6967,3.7026,3.7217,3.6967,3.6567,3.6055,3.5364,3.4451,3.3605,3.3568,3.3167,3.2766,3.298,3.3204,3.3465,3.371,3.3994,3.4132,3.3856,3.38,3.3771,3.351,3.3115,3.2605,3.1926,3.0694,2.944,2.8438,2.8126,2.8014,2.8014,2.8042,2.8273,2.8782,2.8631,2.8368,2.8115,2.7631,2.6992,2.6237,2.5454,2.4837,2.4396,2.3609,2.3235,2.336,2.3366,2.3299,2.3151,2.137,1.9682,0.0,0.0,0.0,0.0,0.0,0.0,0.0,0.0,0.0,0.0,0.0,0.0,0.0,0.0,0.0,0.0,0.0,0.0,0.0,0.0,0.0,0.0,0.0,0.0,0.0,2.7161,2.9874,3.02,3.2377,3.3246,3.1723,3.2212,3.3085,3.4171,3.4417,3.4967,3.6004,3.6729,3.7346,3.7847,3.8847,3.9606,4.0106,4.0624,4.0912,4.0912,4.0912,4.0912,4.0912,4.0912,4.0912,4.0912,4.0912,4.0912,4.0912,4.0912,4.0389,3.9568,3.9568,3.9568,3.9533,3.9273,3.9169,3.9134,3.8903,3.8508,3.7967,3.6891,3.6259,3.5891,3.5833,3.5632,3.5431,3.5346,3.5118,3.4908,3.4838,3.4845,3.4776,3.4535,3.4515,3.4478,3.4219,3.3827,3.3529,3.3611,3.2395,3.1028,3.0042,2.9741,2.9615,2.9615,2.9435,2.9501,3.0028,2.9624,2.9299,2.9299,2.8579,2.7912,2.7413,2.6149,2.5191,2.4695,2.3675,2.3144,2.3235,2.3235,2.3295,2.3436,2.2033,2.0653,1.9358,0.0,0.0,0.0,0.0,0.0,0.0,0.0,0.0,0.0,0.0,0.0,0.0,0.0,0.0,0.0,0.0,0.0,0.0,0.0,0.0,0.0,0.0,0.0,2.7325,3.0639,3.2955,3.1977,3.42,3.5085,3.3272,3.3837,3.4897,3.6335,3.7174,3.8226,3.9664,4.0486,4.09,4.0917,4.0917,4.0946,4.0981,4.0981,4.0981,4.0981,4.0981,4.0981,4.0981,4.0946,4.0917,4.0917,4.09,4.0912,4.0912,4.0912,4.0912,4.0912,4.0912,4.0912,4.0808,4.002,3.9733,3.9641,3.8916,3.8742,3.8819,3.8674,3.8707,3.8756,3.8639,3.8105,3.7519,3.7519,3.6967,3.637,3.637,3.6353,3.6163,3.5449,3.5259,3.5035,3.431,3.4155,3.4121,3.4148,3.3139,3.2293,3.2406,3.1765,3.1247,3.123,3.0625,0.0,3.0168,3.0151,3.0133,3.0133,2.9414,2.893,2.8895,2.6781,2.5454,2.5395,2.3991,2.3142,2.3142,2.3142,2.3203,2.333,2.2057,2.1069,2.0377,0.0,0.0,0.0,0.0,0.0,0.0,0.0,0.0,0.0,0.0,0.0,0.0,0.0,0.0,0.0,0.0,0.0,0.0,0.0,0.0,0.0,2.9669,3.2526,3.1321,3.3917,3.5843,3.5587,3.7135,3.8029,3.7518,3.8423,3.9203,3.9589,3.9842,4.0152,4.0538,4.0791,4.1153,4.1676,4.1693,4.1969,4.2568,4.2568,4.2568,4.2568,4.2568,4.2568,4.2551,4.1952,4.1693,4.1659,4.1124,4.0912,4.0912,4.0912,4.0912,4.0912,4.0912,4.0912,4.0865,4.0641,4.0572,4.0538,4.0331,3.9905,3.9451,3.9399,3.9059,3.8639,3.8617,3.845,3.8295,3.8295,3.814,3.7967,3.7967,3.7571,3.7122,3.6915,3.6432,3.5939,3.5742,3.5276,3.4917,3.497,3.4328,3.3569,3.2875,3.2698,3.2475,3.1934,3.1802,3.1774,3.1774,3.1265,3.0904,3.0904,3.0221,2.9536,2.8947,2.7771,2.6595,2.5472,2.4495,2.3975,2.3975,2.3975,2.4032,2.4162,2.3862,2.3158,0.0,0.0,0.0,0.0,0.0,0.0,0.0,0.0,0.0,0.0,0.0,0.0,0.0,0.0,0.0,0.0,0.0,0.0,0.0,0.0,0.0,0.0,3.3679,3.6103,3.669,3.7588,3.8167,3.8166,3.9209,3.978,3.9432,4.0308,4.0912,4.0912,4.0912,4.0912,4.0912,4.0912,4.1101,4.1521,4.1831,4.2211,4.2689,4.3034,4.3189,4.3189,4.3189,4.3189,4.3172,4.2723,4.2499,4.2482,4.205,4.1861,4.1843,4.1498,4.1348,4.1343,0.0,0.0,0.0,0.0,4.0912,4.0912,4.0912,4.0589,4.021,4.021,3.9917,3.9554,3.9554,3.933,3.9071,3.9071,3.8847,3.8606,3.8606,3.8278,3.795,3.795,3.7364,3.6812,3.6812,3.6197,3.5666,3.5711,3.5443,0.0,3.4096,3.3834,3.3486,3.2682,3.2712,3.2704,3.2354,3.1959,3.1712,3.1712,3.1019,3.0369,2.9895,2.8842,0.0,0.0,0.0,2.511,2.4776,2.4765,0.0,0.0,0.0,0.0,0.0,2.6522,0.0,0.0,2.4941,2.5418,0.0,0.0,0.0,0.0,0.0,0.0,0.0,0.0,0.0,0.0,0.0,0.0,0.0,0.0,0.0,0.0,3.8021,4.0029,4.2268,4.1252,4.0247,4.0142,4.0707,4.0787,3.9986,4.059,4.0998,4.0912,4.0981,4.1021,4.1021,4.1119,0.0,0.0,0.0,4.2176,4.2263,4.2965,4.3362,4.3448,4.3448,4.3448,4.3448,4.3362,4.331,4.331,4.3241,4.3189,4.3138,4.243,4.2142,4.2038,4.1222,4.0912,4.0912,4.0912,4.0912,4.0912,4.0912,0.0,0.0,4.0912,4.0912,4.0912,4.0912,4.04,3.9836,3.9836,3.9365,3.8864,3.8864,3.8795,3.8726,3.8726,3.8157,3.7622,3.7622,3.7001,3.6439,3.6439,3.6363,3.6146,3.5599,3.5014,3.4317,3.3467,3.3453,3.3263,3.2441,3.245,3.2493,3.2406,3.1756,0.0,3.1203,2.9948,2.8789,2.7894,2.722,2.6557,2.5884,2.593,2.6453,2.7469,2.7602,2.8411,2.9983,3.0674,3.1282,3.1734,2.8983,2.8946,0.0,0.0,0.0,0.0,0.0,0.0,0.0,0.0,0.0,0.0,0.0,0.0,0.0,0.0,0.0,3.6988,4.0252,4.2955,4.4076,4.3687,4.3001,4.2305,4.2292,4.2036,4.1233,4.1545,4.1538,4.0946,4.1452,4.178,4.178,4.2396,4.2758,4.2758,4.2896,4.3258,4.3845,4.4018,4.4384,4.4979,4.4979,0.0,4.4945,4.4367,4.4087,4.4052,4.3465,4.3189,4.3189,4.3034,4.2965,4.2827,4.1447,4.0912,4.0912,4.0912,4.0912,4.0912,4.0912,4.0912,4.0912,4.0912,4.0912,4.0912,4.0912,4.0779,0.0,4.067,4.0572,4.0463,4.0463,3.9968,3.9503,3.9503,3.8933,3.8381,3.8381,3.7795,3.726,3.726,3.6834,3.6399,3.6153,3.5659,3.5062,3.4361,3.435,3.4151,3.3353,3.3266,3.3055,3.2458,3.2265,3.1905,3.1255,3.0939,3.0159,2.8754,2.8526,2.8503,2.862,2.9201,2.9453,2.9296,3.0041,3.0661,3.1164,3.2795,3.402,3.4811,3.301,3.2763,0.0,0.0,0.0,0.0,0.0,0.0,0.0,0.0,0.0,0.0,0.0,3.2636,3.632,0.0,3.9362,4.1391,4.3056,4.4525,4.5727,4.5726,4.5112,4.3806,4.3438,4.3137,4.27,4.2628,4.2372,4.183,4.2305,4.243,4.2021,4.2758,4.3189,4.3189,4.3552,4.3931,4.4311,4.4311,4.4665,4.5397,4.5031,4.5031,4.538,4.5014,4.4854,4.4837,4.4458,4.4302,4.4268,4.3901,4.3534,4.312,4.2344,4.1809,4.14,4.105,4.0912,4.0912,4.0912,4.0912,4.0912,4.0912,4.0912,4.0912,4.0912,4.0912,4.0912,4.0912,4.0912,4.0912,4.0912,4.0589,4.0296,4.0296,3.971,3.9158,3.9158,3.8571,3.7933,3.7571,3.7234,3.6869,3.6471,3.6349,3.6001,3.5095,3.5096,3.4911,3.4097,3.4064,3.3968,3.3591,3.3187,3.2801,3.2379,3.18,3.1188,3.0587,3.0162,3.0034,3.0183,3.0947,3.1485,3.1806,3.2683,3.338,3.3851,3.5008,3.5715,3.6005,3.586,3.6038,0.0,0.0,0.0,0.0,0.0,0.0,0.0,0.0,3.0721,3.5768,3.6377,3.7342,4.1799,4.2301,4.2828,4.5278,4.5379,4.5562,4.6718,4.6918,4.6446,4.5046,4.4496,4.4137,4.3845,4.3438,4.3022,4.2603,4.2961,4.2963,4.2403,4.3027,4.3464,4.3558,4.4189,4.4591,4.4747,4.4747,4.5113,4.5845,4.5234,4.5268,4.5845,4.5845,4.5759,4.5621,4.5466,4.5397,4.5345,4.4751,4.416,4.3621,4.3465,4.3017,4.2332,4.1447,4.1107,4.1113,4.1052,4.0965,4.0906,4.1,4.0965,4.0912,4.0912,4.0912,4.0912,4.0912,4.0912,4.0912,4.0912,4.0912,4.0912,4.0912,4.04,3.9922,3.9922,3.9415,3.8756,3.8179,3.8022,3.7742,3.7059,3.7212,3.7065,3.5966,3.5972,3.5863,3.5071,3.4992,3.4993,3.4924,3.4217,3.3758,3.382,3.2945,3.2529,3.2871,3.2298,3.1951,3.2013,3.2627,3.3403,3.4344,3.5046,3.5788,3.6527,3.6876,3.6977,3.6897,3.7939,3.8371,2.5844,2.7725,2.9711,3.0675,3.1519,3.3442,0.0,0.0,3.9272,4.2007,4.3056,4.3461,4.3386,4.4461,4.5241,4.4883,4.5966,4.6636,4.6104,4.6295,4.6416,4.6215,4.5789,4.5062,4.4003,4.3475,4.2886,4.2141,4.2778,4.333,4.3676,4.4004,4.4371,4.4798,4.5099,4.5617,4.6337,4.6337,4.6703,4.7445,4.7358,4.7358,4.7445,4.7445,4.7083,4.6427,4.5707,4.5397,4.5397,4.5311,4.5225,4.51,4.4436,4.4121,4.388,4.2401,4.1883,4.1823,4.1532,4.1209,4.0965,4.1317,4.1197,4.0912,4.0912,4.0912,4.0912,4.0912,4.0912,4.0912,4.0912,4.0912,4.0912,4.0912,4.0831,4.0774,4.0774,4.0467,4.0177,4.009,3.9848,3.9373,3.859,3.8595,3.8355,3.7329,3.7444,3.7411,3.6727,3.6376,3.6075,3.5724,3.5021,3.4684,3.4975,3.4882,3.4985,3.5362,3.5312,3.5369,3.5614,3.5701,3.5945,3.6369,3.6468,3.6913,3.7705,3.7817,3.8203,3.8877,3.9135,3.8889,3.0727,3.2667,3.4226,0.0,3.7029,3.8485,4.1793,4.1914,4.2146,4.5002,4.5498,4.559,4.6177,4.6838,4.7186,0.0,4.7361,4.7672,4.7352,4.7419,4.732,4.6854,4.6424,4.5766,4.4743,4.4025,4.336,4.2807,4.3833,4.4578,4.4759,4.5732,4.6375,4.6565,4.6686,4.691,4.7238,4.6807,4.6962,4.7686,4.7255,4.7272,4.7703,4.7703,4.7531,4.722,4.6893,4.6483,4.6127,4.6387,4.625,4.587,4.583,4.581,4.5556,4.3476,4.2401,4.2025,4.2148,4.1774,4.1328,4.1756,4.1789,4.1655,4.1655,4.1655,4.1655,4.1655,4.1655,4.1655,4.1655,4.1655,4.1578,4.1317,4.1463,4.1529,4.1012,4.0971,4.0909,4.0481,4.0316,4.0065,3.9505,3.967,3.976,3.9337,3.8471,3.7837,3.7612,3.7477,3.7145,3.6514,3.6161,3.5939,3.5789,3.5784,3.5939,3.629,3.6311,3.6367,3.6495,3.6934,3.7259,3.7399,3.7863,3.8265,3.8606,3.8627,3.9068,3.9893,4.0006,4.011,3.4113,3.6165,0.0,3.9732,4.1158,4.2461,4.3855,4.3883,4.4351,4.6902,4.6792,4.6599,4.7746,4.7966,4.7893,4.7672,4.7819,4.7893,4.7682,4.7522,4.7317,4.6941,4.6533,4.6031,4.5403,4.4476,4.3797,4.3597,4.4712,4.5549,4.591,4.7251,4.8066,4.8231,4.8304,4.8324,4.8324,4.7789,4.7807,4.8324,4.7789,4.7824,4.8324,4.81,4.8013,4.7996,4.7789,4.7393,4.6916,4.719,4.6993,4.6528,4.6801,4.6897,4.6674,4.4886,4.3621,4.2807,4.273,4.2228,4.1703,4.2072,4.2105,4.2032,4.2157,4.2198,4.2198,4.2198,4.2198,4.2198,4.2198,4.2198,4.2115,4.1778,4.1948,4.204,4.1384,4.1589,4.1725,4.118,4.123,4.1165,4.067,4.087,4.105,4.0873,3.9723,3.8837,3.8694,3.85,3.8069,3.7317,3.7318,3.7231,3.689,3.6857,3.7005,3.7342,3.7362,3.7362,3.7362,3.7912,3.8235,3.8235,3.8804,3.9212,3.9454,3.9454,3.9907,4.0724,4.0774,4.1231,3.4961,0.0,4.0,4.0846,4.2847,4.481,4.5645,4.6406,4.7204,4.8076,4.7617,4.7076,4.7131,4.7131,4.6874,4.6104,4.6627,4.6856,4.6085,4.5582,4.5578,4.6323,4.6008,4.5713,4.5695,4.4597,4.4001,4.4249,4.4971,4.594,4.7176,4.8213,4.9007,4.953,4.9795,4.9942,4.9942,4.9907,4.9907,4.9942,4.9907,4.9907,4.9893,4.9117,4.8772,4.8738,4.8013,4.7686,4.7641,4.74,4.7279,4.7242,4.7003,4.6897,4.6879,4.6821,4.5988,4.4699,4.3214,4.2387,4.2012,4.2154,4.1895,4.1604,4.2053,4.2198,4.2198,4.2198,4.2198,4.2198,4.2198,4.2198,4.2205,4.2177,4.2188,4.2188,4.2175,4.2536,4.2854,4.2836,4.3132,4.3177,4.2451,4.2347,4.2154,4.1565,4.1422,4.1089,4.0248,3.9506,3.8807,3.814,3.8339,3.855,3.8539,3.8521,3.8674,3.9013,3.9027,3.9027,3.9027,3.9045,3.9064,3.9064,3.9082,3.951,4.0353,4.0353,4.078,4.156,4.156,4.2032,3.816,0.0,4.1937,4.3828,4.4911,4.5847,4.7186,4.7691,4.7819,4.7562,4.6865,4.6296,4.6296,4.5874,4.5782,4.6571,4.6911,4.7186,4.7452,4.7356,4.7052,4.647,4.6731,4.6626,4.5777,4.5517,0.0,4.4736,4.6418,4.7639,4.8064,4.9709,5.0738,5.0918,5.1003,5.1052,5.1052,5.1052,5.1052,5.1052,5.1052,5.1052,5.1052,5.077,5.066,5.0642,5.0395,4.9971,4.951,4.9776,4.926,4.832,4.8585,4.8345,4.7785,4.7474,4.7101,4.6575,4.5531,4.4728,4.4145,4.3925,4.3748,4.3553,4.3186,4.3069,4.3069,4.3069,4.3069,4.3069,4.3069,4.3069,4.2995,4.2731,4.2873,4.2902,4.232,4.2575,4.2892,4.2892,4.3059,4.3167,4.3188,4.327,4.3094,4.2392,4.1887,4.146,4.1163,4.0443,3.9884,3.9659,3.9209,3.8934,3.8934,3.8934,3.8977,3.9094,3.9101,3.9101,3.9101,3.9665,3.9963,3.9963,4.0501,4.0903,4.1207,4.1207,4.1616,4.2389,4.2389,4.2831,4.0865,4.2535,4.3736,4.6159,4.6764,4.704,4.8058,4.8076,4.7636,4.6847,4.5342,4.4268,4.4562,4.3718,4.3691,4.5883,4.648,4.7084,4.8283,4.798,4.7565,4.7414,4.7371,4.7255,0.0,0.0,0.0,4.5694,4.7578,4.8786,4.8756,5.0558,5.1588,5.1588,5.1588,5.1588,5.1588,5.1588,5.1588,5.1588,5.1588,5.1588,5.1588,5.1588,5.1588,5.1588,5.1588,5.1315,5.0847,5.1097,5.0597,4.9644,4.9614,4.9233,4.8662,4.8075,4.7846,4.7696,4.6561,4.5843,4.5384,4.5036,4.472,4.4419,4.405,4.3726,4.3506,4.3506,4.3506,4.3506,4.3506,4.3506,4.3427,4.3187,4.3313,4.3357,4.2789,4.2902,4.3105,4.3105,4.3142,4.3267,4.3556,4.3726,4.3674,4.3225,4.2759,4.224,4.1672,4.1152,4.0836,4.0836,4.0334,3.9993,3.9993,3.9993,3.9993,3.9993,3.9993,3.9993,3.9993,4.0538,4.0836,4.0836,4.1337,4.1739,4.2025,4.2025,4.2445,4.3225,4.3225,4.3503,4.2955,4.4232,4.5434,4.7728,4.8296,4.8296,4.8241,4.7617,4.6782,4.5847,4.315,4.116,4.1809,0.0,4.0838,4.3976,4.5278,4.6559,4.8445,4.7471,4.7233,0.0,0.0,0.0,0.0,0.0,0.0,4.7209,4.8525,4.9383,4.9311,5.0824,5.1676,5.1676,5.1676,5.1676,5.1676,5.1676,5.1676,5.1676,5.1676,5.1676,5.1676,5.1676,5.1676,5.1676,5.1676,5.1676,5.1659,5.1414,5.1282,5.1146,5.0118,4.9637,4.9407,4.8655,4.8333,4.8062,4.641,4.5819,4.5788,4.5492,4.4869,4.431,4.4611,4.4176,4.3543,4.3506,4.3506,4.3506,4.3506,4.3506,4.3506,4.3506,4.3506,4.3506,4.3506,4.3496,4.3496,4.3506,4.3496,4.354,4.359,4.3775,4.3921,4.3989,4.4005,4.3448,4.1924,4.169,4.1672,4.1672,4.1616,4.1597,4.1597,4.1597,4.1597,4.1597,4.1597,4.1597,4.1597,4.1635,4.1672,4.1672,4.1709,4.2092,4.2853,4.2853,4.3243,4.4005,4.4005,4.4005,4.447,4.6305,4.7526,4.8159,4.8296,4.8131,4.7535,4.6773,4.548,4.2865,4.0525,3.8508,3.7114,3.7823,0.0,4.1188,4.3971,0.0,4.8495,4.879,0.0,4.9719,0.0,4.9367,4.9782,5.036,0.0,0.0,5.0369,5.0703,5.0692,5.2034,5.2783,5.2783,5.2783,5.2783,5.2783,5.2783,5.2783,5.2783,5.2783,5.2783,5.2783,5.2783,5.2783,5.2783,5.2783,5.2783,5.2794,5.2725,5.234,5.1765,5.1487,5.0647,4.9545,4.9344,4.8857,4.8231,4.7788,4.7645,4.7538,4.6868,4.6495,4.6129,4.504,4.4553,4.4268,4.3671,4.3506,4.3506,4.3506,4.3506,4.3506,4.3506,4.3506,4.3506,4.3506,4.3531,4.3556,4.3515,4.3531,4.3617,4.3728,4.3835,4.3921,4.3989,4.4005,4.3856,4.3448,4.2853,4.2482,4.2482,4.1969,4.1597,4.1597,4.1597,4.1597,4.1597,4.1597,4.1597,4.1597,4.2192,4.2482,4.2482,4.3076,4.3485,4.3689,4.3689,4.3801,4.4005,4.4005,4.4005,4.5838,4.7342,4.8296,4.8296,4.7774,4.6847,4.5342,4.3819,4.1827,3.8571,3.6186,3.4542,3.4041,3.5221,3.7244,0.0,0.0,0.0,4.8937,4.9281,4.9609,0.0,5.0593,0.0,5.1024,5.1679,5.2152,0.0,5.2195,5.1927,5.1562,5.2592,5.3196,5.3196,5.3196,5.3196,5.3196,5.3196,5.3196,5.3196,5.3196,5.3196,5.3196,5.3196,5.3196,5.3196,5.3196,5.3196,5.3196,5.3196,5.292,5.2491,5.2152,5.1455,5.061,5.0261,4.9601,4.8875,4.8875,4.8618,4.8223,4.7764,4.7388,4.6929,4.603,4.5269,4.4608,4.4158,4.3763,4.3506,4.3506,4.3506,4.3506,4.3506,4.3506,4.3506,4.3506,4.3548,4.3617,4.3625,4.3651,4.3728,4.3826,4.3883,4.3921,4.3989,4.4005,4.4005,4.4005,4.3615,4.3336,4.3336,4.2927,4.2649,4.2649,4.2649,4.2649,4.2649,4.2649,4.2649,4.2649,4.3095,4.3336,4.3336,4.3763,4.4005,4.4005,4.4005,4.4005,4.4005,4.4005,4.4005,4.7012,4.7764,4.8296,4.8296,4.7168,4.5406,4.2873,4.0424,3.7716,3.4192,0.0,3.0338,3.1445,3.271,3.5065,3.9611,0.0,4.5809,4.9488,4.9463,4.9752,5.1592,5.1696,5.1905,5.259,5.3178,5.3812,5.4509,5.3911,5.3206,5.2519,5.3151,5.3526,5.3526,5.3416,5.3361,5.3361,5.3251,5.3196,5.3196,5.3196,5.3196,5.3196,5.3196,5.3196,5.3196,5.3196,5.3196,5.3196,5.3196,5.3196,5.3122,5.2435,5.2097,5.1914,5.1224,5.0453,4.9729,4.9647,4.9105,4.8443,4.8333,4.7838,4.7241,4.7131,4.6131,4.4993,4.4883,4.4287,4.3653,4.3653,4.3579,4.3506,4.3506,4.3506,4.3506,4.3506,4.3548,4.3642,4.3761,4.3796,4.3829,4.3899,4.3897,4.3921,4.3989,4.4005,4.4005,4.4005,4.4005,4.4005,4.4005,4.4005,4.4005,4.4005,4.4005,4.4005,4.4005,4.4005,4.4005,4.4005,4.4005,4.4005,4.4005,4.4005,4.4005,4.4005,4.4005,4.4005,4.4005,4.4005,4.4005,4.7691,4.8186,4.8296,4.8296,4.7581,4.6094,4.3002,4.0424,0.0,0.0,3.0258,2.8415,2.6916,2.9837,3.3346,3.6039,4.054,4.5169,4.9405,5.026,5.108,0.0,5.3467,5.3895,5.4041,5.4741,0.0,0.0,5.5254,5.5126,5.4979,5.5108,5.5181,5.5181,5.4546,5.4197,5.4197,5.3526,5.3196,5.3196,5.3196,5.3196,5.3196,5.3196,5.3196,5.3196,5.3196,5.3196,5.3196,5.3196,5.3196,5.3196,5.3049,5.2582,5.1987,5.184,5.1279,5.049,4.9821,4.95,4.9252,4.8526,4.8205,4.7966,4.7296,4.6911,4.6544,4.5883,4.5112,4.448,4.448,4.3993,4.3506,4.3506,4.3506,4.3506,4.3506,4.3548,4.3642,4.3761,4.3796,4.3829,4.3899,4.3897,4.3921,4.3989,4.4005,4.4005,4.4005,4.4005,4.4005,4.4005,4.4005,4.4005,4.4005,4.4005,4.4005,4.4005,4.4005,4.4005,4.4005,4.4005,4.4005,4.4005,4.4005,4.4005,4.4005,4.4005,4.4005,4.4005,4.4005,4.4005,4.7984,4.8296,4.8296,4.8296,4.6746,4.4158,4.0102,0.0,0.0,0.0,2.6948,2.6113,2.5501,2.8552,0.0,3.4233,3.8209,4.2603,4.7229,4.8445,0.0,5.1905,5.3489,5.4283,0.0,5.4964,5.5768,5.6198,5.6216,5.6033,5.5622,5.5603,5.5603,5.5603,5.5236,5.5023,5.5023,5.4234,5.382,5.382,5.3398,5.3196,5.3196,5.3196,5.3196,5.3196,5.3196,5.3196,5.3196,5.3196,5.3196,5.3196,5.3196,5.2957,5.2619,5.2619,5.2123,5.1371,5.0977,5.0308,4.9537,4.9105,4.8673,4.8223,4.7838,4.7424,4.7021,4.6627,4.5948,4.5324,4.5324,4.4727,4.4121,4.4121,4.3791,4.3515,4.3539,4.3573,4.3659,4.3818,4.3851,4.3875,4.3945,4.3942,4.3958,4.3997,4.4005,4.4005,4.4005,4.4005,4.4005,4.4005,4.4005,4.4005,4.4005,4.4005,4.4005,4.4005,4.4005,4.4005,4.4005,4.4005,4.4005,4.4005,4.4005,4.4005,4.4005,4.4005,4.4005,4.4005,4.4005,4.4005,4.7874,4.8168,4.8296,4.8296,4.6012,4.2496,3.7669,3.4144,0.0,0.0,2.4451,2.4598,2.5062,0.0,3.0332,0.0,3.6149,3.9992,4.5168,0.0,0.0,0.0,0.0,0.0,5.4304,5.5391,0.0,5.7012,5.7049,5.6785,5.6154,5.6117,5.6117,5.6117,5.5952,5.586,5.586,5.506,5.4656,5.4638,5.4014,5.3618,5.3453,5.3453,5.3361,5.3196,5.3196,5.3196,5.3196,5.3196,5.3196,5.3196,5.3196,5.3196,5.3196,5.3196,5.2803,5.2234,5.206,5.1161,5.0069,4.9721,4.9013,4.8296,4.8296,4.7856,4.7351,4.7351,4.6773,4.6159,4.6159,4.5562,4.4902,4.4737,4.4085,4.3505,4.3565,4.3599,4.3693,4.3859,4.3897,4.3945,4.3989,4.4005,4.4005,4.4005,4.4005,4.4005,4.4005,4.4005,4.4005,4.4005,4.4005,4.4005,4.4005,4.4005,4.4005,4.4005,4.4005,4.4005,4.4005,4.4005,4.4005,4.4005,4.4005,4.4005,4.4005,4.4005,4.4005,4.4005,4.4005,4.4005,4.7186,4.7746,4.8296,4.8296,4.6425,4.3332,3.8484,0.0,0.0,2.6439,2.5288,2.5081,2.4433,2.575,2.8203,3.2087,0.0,3.8715,0.0,0.0,0.0,0.0,0.0,0.0,5.6442,5.7276,5.7813,5.7886,5.7886,5.785,5.7776,5.7776,5.7776,5.7776,5.7079,5.6693,5.6693,5.5886,5.5493,5.5493,5.542,5.4997,5.4289,5.4289,5.3904,5.3196,5.3196,5.3196,5.3196,5.3196,5.3196,5.3196,5.3196,5.3196,5.3196,5.3196,5.3159,5.2994,5.2252,5.1895,5.1546,5.0088,4.9013,4.8296,4.8296,4.8241,4.8186,4.8186,4.7617,4.6984,4.6984,4.6388,4.5608,4.4865,4.4085,4.3496,4.3515,4.3661,4.3788,4.3812,4.3905,4.3997,4.4005,4.4005,4.4005,4.4005,4.4005,4.4005,4.4005,4.4005,4.4005,4.4005,4.4005,4.4005,4.4005,4.4005,4.4005,4.4005,4.4005,4.4005,4.4005,4.4005,4.4005,4.4005,4.4005,4.4005,4.4005,4.4005,4.4005,4.4005,4.4005,4.4005,4.6709,4.7691,4.8186,4.7709,4.5764,4.258,3.7276,0.0,3.0895,2.5736,2.4677,2.458,2.4268,2.5112,2.6869,2.9941,3.1672,3.4541,4.0073,4.2239,0.0,0.0,5.2123,0.0,0.0,0.0,5.7997,5.7997,5.7997,5.7997,5.7997,5.7997,5.7997,5.7997,5.7685,5.7519,5.7519,5.673,5.6326,5.6326,5.5842,5.5438,5.5108,5.462,5.4234,5.3904,5.3416,5.3196,5.3196,5.3196,5.3196,5.3196,5.3196,5.3196,5.3196,5.3196,5.3196,5.3159,5.2829,5.2417,5.1895,5.1253,5.0151,4.8976,4.8471,4.8296,4.8296,4.8296,4.8076,4.7819,4.7819,4.7232,4.6425,4.5608,4.5186,4.48,4.4323,4.4284,4.4233,4.3872,4.3835,4.3915,4.3981,4.4005,4.4005,4.4005,4.4005,4.4005,4.4005,4.4005,4.4005,4.4005,4.4005,4.4005,4.4005,4.4005,4.4005,4.4005,4.4005,4.4005,4.4005,4.4005,4.4005,4.4005,4.4005,4.4005,4.4005,4.4005,4.4005,4.4005,4.4005,4.4005,4.4856,4.6425,4.7397,4.659,4.4571,4.1423,0.0,3.3164,3.0032,2.5204,2.4396,2.4488,2.425,2.4653,2.5847,2.8259,2.9525,3.1916,3.6813,3.9082,0.0,0.0,0.0,5.2454,0.0,5.7116,5.7997,5.7997,5.7997,5.7997,5.7997,5.7997,5.7997,5.7997,5.7997,5.7997,5.7997,5.7446,5.7141,5.7141,5.6583,5.6191,5.5952,5.5372,5.4987,5.4711,5.3904,5.3544,5.3544,5.3306,5.3196,5.3196,5.3196,5.3196,5.3196,5.3196,5.3196,5.3196,5.3196,5.2829,5.2307,5.2079,5.1234,5.0115,4.9003,4.8508,4.8296,4.8296,4.8296,4.8296,4.8296,4.7709,4.6947,4.6388,4.6067,4.5736,4.5177,4.5094,4.499,4.4568,4.4321,4.421,4.4313,4.413,4.4005,4.4005,4.4005,4.4005,4.4005,4.4005,4.4005,4.4005,4.4005,4.4005,4.4005,4.4005,4.4005,4.4005,4.4005,4.4005,4.4005,4.4005,4.4005,4.4005,4.4005,4.4005,4.4005,4.4005,4.4005,4.4005,4.4005,4.4135,4.115,4.3489,4.5736,4.4938,4.292,4.0049,0.0,3.3121,3.0032,2.5204,2.4824,2.5136,2.4341,2.4213,2.5002,2.7425,2.9163,3.1916,3.6813,3.957,0.0,0.0,0.0,5.0573,5.2994,5.6124,5.7997,5.7997,5.7997,5.7997,5.7997,5.7997,5.7997,5.7997,5.7997,5.7997,5.7997,5.7997,5.7997,5.7997,5.7978,5.7556,5.6792,5.6774,5.6345,5.5548,5.473,5.4399,5.4326,5.3526,5.3196,5.3196,5.3196,5.3196,5.3196,5.3196,5.3196,5.3196,5.3196,5.3196,5.3067,5.2252,5.1987,5.1675,5.0059,4.8976,4.8296,4.8296,4.8296,4.8296,4.8296,4.7709,4.7094,4.7094,4.648,4.5902,4.5883,4.5983,4.6091,4.6073,4.553,4.5101,4.5082,4.4488,4.4005,4.4005,4.4005,4.4005,4.4005,4.4005,4.4005,4.4005,4.4005,4.4005,4.4005,4.4005,4.4005,4.4005,4.4005,4.4005,4.4005,4.4005,4.4005,4.4005,4.4005,4.4005,4.4005,4.4005,4.4005,4.4005,4.4005,4.4451,3.7654,3.9368,4.0653,3.9294,3.7947,3.5866,3.183,3.0308,2.8699,2.4961,2.4396,2.4507,2.425,2.4194,2.5713,3.0332,3.1506,3.336,3.7716,0.0,0.0,4.6406,5.1811,5.5629,0.0,0.0,5.7997,5.7997,5.7997,5.7997,5.7997,5.7997,5.7997,5.7997,5.7997,5.7997,5.7997,5.7997,5.7997,5.7997,5.7997,5.7868,5.7593,5.706,5.6657,5.6381,5.5574,5.4913,5.4381,5.4124,5.3691,5.3196,5.3196,5.3196,5.3196,5.3196,5.3196,5.3196,5.3196,5.3196,5.3159,5.2902,5.2454,5.1895,5.1381,5.028,4.9068,4.8471,4.8296,4.8296,4.8296,4.8188,4.807,4.807,4.7849,4.7528,4.6985,4.682,4.6645,4.6184,4.5967,4.5858,4.5907,4.5805,4.5714,4.5714,4.5714,4.5714,4.5714,4.5231,4.4886,4.4886,4.4358,4.4005,4.4005,4.4005,4.4005,4.4005,4.4005,4.4005,4.4005,4.4005,4.4005,4.4005,4.4005,4.4005,4.4005,4.4005,4.4302,4.4896,4.5454,4.5862,0.0,3.5617,3.692,3.5312,3.4277,3.2821,2.9715,2.8528,2.7354,2.474,2.4194,2.4194,2.4194,2.4451,2.5902,2.9726,3.136,3.3476,0.0,0.0,0.0,4.7562,0.0,0.0,0.0,5.7629,5.7997,5.7997,5.7997,5.7997,5.7997,5.7997,5.7997,5.7997,5.7997,5.7997,5.7997,5.7997,5.7997,5.7997,5.7997,5.7997,5.7978,5.7483,5.7262,5.7207,5.64,5.5776,0.0,5.4968,5.4381,5.3654,5.3654,5.3471,5.3196,5.3196,5.3196,5.3196,5.3196,5.3196,5.3196,5.3196,5.2656,5.2005,5.2005,5.0886,4.949,4.893,4.8545,4.8306,4.8363,4.8438,4.8513,4.8523,4.8532,4.8403,4.7896,4.7712,4.7537,4.7131,4.687,4.6745,4.6778,4.6621,4.6494,4.6494,4.6494,4.6494,4.6494,4.6056,4.5759,4.5759,4.5268,4.4934,4.4934,4.4358,4.4005,4.4005,4.4005,4.4005,4.4005,4.4321,4.4488,4.4488,4.4785,4.4934,4.4934,4.4934,4.5212,4.5759,4.6279,4.6661,0.0,3.194,3.3959,3.2454,3.1531,3.0564,2.9005,2.7543,0.0,2.452,2.4194,2.4268,2.4502,2.5062,2.5925,2.7249,2.9971,0.0,0.0,3.969,0.0,0.0,5.2068,0.0,5.564,5.7127,5.7997,5.7997,5.7997,5.7997,5.7997,5.7997,5.7997,5.7997,5.7997,5.7997,5.7997,5.7997,5.7997,5.7997,5.7997,5.7997,5.7997,5.7997,5.7997,5.796,5.7207,5.6847,5.6737,5.5989,5.5218,5.4473,5.4418,5.393,5.3287,5.3214,5.3196,5.3196,5.3196,5.3196,5.3196,5.3196,5.2692,5.2097,5.2097,5.0959,4.9692,4.9692,4.9068,4.8417,4.8549,4.855,4.8532,4.8596,4.8605,4.8605,4.8605,4.8605,4.8596,4.8596,4.8104,4.7684,4.7684,4.7122,4.6661,4.6661,4.6661,4.6661,4.6661,4.6624,4.6587,4.6587,4.6531,4.6494,4.6494,4.5064,4.4191,4.4191,4.4191,4.4191,4.4191,4.4952,4.5387,4.5387,4.6131,4.6494,4.6494,4.655,4.6587,4.6587,4.6643,4.707,2.4277,0.0,2.7572,2.7192,2.6953,2.6549,0.0,2.5516,2.5393,2.4396,0.0,2.4942,2.7427,2.7011,2.8405,3.4809,0.0,3.8102,4.1358,0.0,0.0,5.3712,5.5776,5.7024,5.7391,5.7776,5.7997,5.7997,5.7997,5.7997,5.7997,5.7997,5.7997,5.7997,5.7997,5.7997,5.7997,5.7997,5.7997,5.7997,5.7997,5.7997,5.7997,5.7997,5.7997,5.7997,5.7795,5.7373,5.6792,5.6602,5.6033,5.5254,5.4638,5.4289,5.4051,5.3434,5.3196,5.3196,5.3196,5.3196,5.3196,5.3196,5.3067,5.292,5.292,5.1793,5.0508,5.0508,4.9931,4.9318,4.9405,4.8993,4.8605,4.8723,4.8741,4.8741,4.8741,4.8669,4.8596,4.8596,4.8567,4.8518,4.8518,4.8421,4.8333,4.8333,4.8333,4.8333,4.8333,4.7794,4.7423,4.7423,4.6865,4.6494,4.6494,4.6141,4.59,4.59,4.59,4.59,4.59,4.6104,4.6215,4.6215,4.6401,4.6494,4.6494,4.7125,4.7423,4.7423,4.8054,4.8444,2.2116,2.4433,2.6494,2.6494,2.6494,2.6384,2.5957,0.0,0.0,0.0,0.0,2.5406,2.7501,2.8387,3.0485,3.5624,3.8028,0.0,0.0,0.0,5.2821,5.531,5.7017,5.7997,5.7997,5.7997,5.7997,5.7997,5.7997,5.7997,5.7997,5.7997,5.7997,5.7997,5.7997,5.7997,5.7997,5.7997,5.7997,5.7997,5.7997,5.7997,5.7997,5.7997,5.7997,5.7997,5.7997,5.7758,5.7354,5.7354,5.6877,5.6106,5.5666,5.506,5.4344,5.3911,5.3526,5.3196,5.3196,5.3196,5.3196,5.3196,5.3196,5.3196,5.3196,5.259,5.182,5.1444,5.0775,5.0181,5.0309,4.974,4.9196,4.936,4.9108,4.8857,4.8857,4.8795,4.8741,4.8741,4.8804,4.8857,4.8857,4.8874,4.8909,4.8909,4.8909,4.8909,4.8909,4.8519,4.8259,4.8259,4.7868,4.7608,4.7608,4.7608,4.7293,4.655,4.6494,4.6494,4.6494,4.6847,4.7218,4.759,4.7608,4.7608,4.7608,4.8036,4.8259,4.8259,4.8704,4.8909,2.1794,2.5209,2.8049,2.7554,2.7792,2.8105,2.7866,0.0,0.0,0.0,0.0,0.0,2.7824,3.0191,0.0,0.0,0.0,0.0,4.8315,5.1544,5.3977,5.5585,5.7109,5.7997,5.7997,5.7997,5.7997,5.7997,5.7997,5.7997,5.7997,5.7997,5.7997,5.7997,5.7997,5.7997,5.7997,5.7997,5.7997,5.7997,5.7997,5.7997,5.7997,5.7997,5.7997,5.7997,5.7997,5.7997,5.7997,5.7997,5.7593,5.6957,5.6847,5.5967,5.4748,5.4491,5.3977,5.3379,5.3232,5.3196,5.3196,5.3196,5.3196,5.3196,5.3196,5.3196,5.3049,5.2383,5.1622,5.1038,5.1235,5.0646,5.0065,5.0257,4.9773,4.9243,4.9113,4.9076,4.9057,4.8919,4.8909,4.8909,4.8909,4.8909,4.8909,4.8909,4.8909,4.8909,4.8909,4.8909,4.8909,4.8909,4.8909,4.8909,4.8909,4.8909,4.8314,4.694,4.6865,4.6865,4.6865,4.7516,4.8203,4.889,4.8909,4.8909,4.8909,4.8909,4.8909,4.8909,4.8909,4.8909,2.3837,2.7297,2.9182,2.6458,2.7829,2.9475,2.8105,0.0,0.0,0.0,0.0,0.0,0.0,3.4608,3.6325,0.0,0.0,4.8278,0.0,0.0,5.4821,5.6418,5.7446,5.7997,5.7997,5.7997,5.7997,5.7997,5.7997,5.7997,5.7997,5.7997,5.7997,5.7997,5.7997,5.7997,5.7997,5.7997,5.7997,5.7997,5.7997,5.7997,5.7997,5.7997,5.7997,5.7997,5.7997,5.7997,5.7997,5.7997,5.7923,5.7758,5.7068,5.6645,5.626,5.4895,5.4326,5.4124,5.3434,5.3196,5.3196,5.3196,5.3196,5.3196,5.3196,5.3196,5.3198,5.3119,5.2524,5.1939,5.2085,5.1554,5.1019,5.1166,5.1119,5.0822,5.007,4.9921,4.9699,4.9039,4.8909,4.8909,4.8909,4.8909,4.8909,4.8909,4.8909,4.8909,4.8909,4.8909,4.8909,4.8909,4.8909,4.8909,4.8909,4.8909,4.8797,4.8556,4.8537,4.8537,4.8537,4.8649,4.8779,4.8909,4.8909,4.8909,4.8909,4.8909,4.8909,4.8909,4.8909,4.8909,2.3345,2.6135,2.8319,2.8587,3.1409,3.3832,3.2657,3.1971,0.0,0.0,0.0,0.0,0.0,0.0,4.0123,4.5746,0.0,5.0986,5.2939,5.4271,5.5482,5.6664,5.7519,5.7997,5.7997,5.7997,5.7997,5.7997,5.7997,5.7997,5.7997,5.7997,5.7997,5.7997,5.7997,5.7997,5.7997,5.7997,5.7997,5.7997,5.7997,5.7997,5.7997,5.7997,5.7997,5.7997,5.7997,5.7997,5.7997,5.7997,5.7997,5.796,5.7593,5.7178,5.6609,5.4987,5.4124,5.3691,5.3324,5.3196,5.3196,5.3196,5.3196,5.3196,5.3196,5.322,5.3264,5.3297,5.3042,5.2806,5.3003,5.2471,5.188,5.202,5.1714,5.1286,5.0896,5.0803,5.0692,5.032,4.9866,4.955,4.955,4.9179,4.8909,4.8909,4.8909,4.8909,4.8909,4.8909,4.8909,4.8909,4.8909,4.8909,4.8909,4.8909,4.8909,4.8909,4.8909,4.8909,4.8909,4.8909,4.8909,4.8909,4.8909,4.8909,4.8909,4.8909,4.8909,4.8909,4.8909,4.8909,2.2955,2.5194,2.7658,3.087,0.0,3.6439,3.678,3.5569,0.0,0.0,0.0,0.0,0.0,4.0039,0.0,4.8223,5.0802,5.2619,5.3628,5.4821,5.597,5.6957,5.7611,5.7997,5.7997,5.7997,5.7997,5.7997,5.7997,5.7997,5.7997,5.7997,5.7997,5.7997,5.7997,5.7997,5.7997,5.7997,5.7997,5.7997,5.7997,5.7997,5.7997,5.7997,5.7997,5.7997,5.7997,5.7997,5.7997,5.7997,5.7997,5.7997,5.7997,5.7519,5.6627,5.5207,5.4179,5.3453,5.3269,5.3196,5.3196,5.3196,5.3196,5.3196,5.3196,5.3251,5.3318,5.3349,5.3369,5.3449,5.3646,5.3223,5.2752,5.2865,5.2419,5.1918,5.1714,5.1676,5.1639,5.1435,5.0859,5.0395,5.0395,4.9893,4.9485,4.9485,4.9485,4.9485,4.9485,4.9485,4.9485,4.9485,4.9299,4.9104,4.8919,4.8909,4.8909,4.8909,4.8909,4.8909,4.8909,4.8909,4.8909,4.8909,4.8909,4.8909,4.8909,4.8909,4.8909,4.8909,4.9113,4.9239,2.4163,2.6439,2.849,3.1708,3.2736,3.3929,3.7672,3.7276,0.0,3.9966,0.0,0.0,0.0,4.5067,4.8406,5.0306,5.2021,5.3654,5.5218,5.553,5.6191,5.7721,5.796,5.7997,5.7997,5.7997,5.7997,5.7997,5.7997,5.7997,5.7997,5.7997,5.7997,5.7997,5.7997,5.7997,5.7997,5.7997,5.7997,5.7997,5.7997,5.7997,5.7997,5.7997,5.7997,5.7997,5.7997,5.7997,5.7997,5.7997,5.7997,5.7997,5.7997,5.7519,5.6701,5.5842,5.4997,5.4216,5.3453,5.3196,5.3196,5.3196,5.3196,5.3196,5.3196,5.3251,5.3328,5.344,5.3578,5.3684,5.3685,5.3708,5.3701,5.371,5.3673,5.3423,5.2679,5.2512,5.2289,5.1546,5.1342,5.1305,5.1305,5.1268,5.1212,5.1212,5.1212,5.1212,5.1212,5.1212,5.1212,5.1212,5.0506,4.9699,4.8964,4.8909,4.8909,4.8909,4.8909,4.8909,4.8909,4.8909,4.8909,4.8909,4.8909,4.8909,4.8909,4.8909,4.8909,4.8919,4.9726,5.0242,2.3199,2.6185,2.9323,3.2534,3.4504,0.0,0.0,4.0524,4.2149,4.4361,4.5232,0.0,0.0,0.0,4.8278,5.0453,5.215,5.3765,5.5365,5.6033,5.6767,5.7868,5.7997,5.7997,5.7997,5.7997,5.7997,5.7997,5.7997,5.7997,5.7997,5.7997,5.7997,5.7997,5.7997,5.7997,5.7997,5.7997,5.7997,5.7997,5.7997,5.7997,5.7997,5.7997,5.7997,5.7997,5.7997,5.7997,5.7997,5.7997,5.7997,5.7997,5.7997,5.7519,5.6756,5.6455,5.5544,5.4415,5.412,5.3739,5.3396,5.3396,5.3396,5.3396,5.3396,5.3467,5.3558,5.3616,5.3686,5.3764,5.3764,5.3774,5.3803,5.3803,5.3803,5.372,5.3423,5.3348,5.3255,5.2958,5.2494,5.2159,5.2159,5.1732,5.1398,5.1398,5.1398,5.1398,5.1398,5.1398,5.1398,5.1398,5.1119,5.0785,5.0488,5.045,5.045,5.045,4.9485,4.8909,4.8909,4.8909,4.915,4.9643,4.9643,4.9912,5.045,5.045,5.0556,5.0775,5.1093,5.1402,2.3011,2.6125,2.9776,3.2999,0.0,0.0,4.0495,4.2745,4.5002,4.7397,4.8113,4.8462,4.8994,0.0,0.0,5.082,5.2315,5.3673,5.5034,5.5904,5.673,5.7538,5.785,5.7997,5.7997,5.7997,5.7997,5.7997,5.7997,5.7997,5.7997,5.7997,5.7997,5.7997,5.7997,5.7997,5.7997,5.7997,5.7997,5.7997,5.7997,5.7997,5.7997,5.7997,5.7997,5.7997,5.7997,5.7997,5.7997,5.7997,5.7997,5.7997,5.7997,5.7666,5.7141,5.6884,5.6154,5.5214,5.468,5.4219,5.3842,5.3583,5.3509,5.3509,5.3509,5.3588,5.3704,5.3704,5.3745,5.3803,5.3803,5.3803,5.3803,5.3803,5.3803,5.3803,5.3803,5.3803,5.3803,5.3803,5.3367,5.2977,5.2977,5.2512,5.2159,5.2159,5.2159,5.2159,5.2159,5.2159,5.2067,5.1806,5.1788,5.1676,5.1416,5.1398,5.1398,5.1398,5.032,4.9689,4.9689,4.9689,4.9949,5.0506,5.0497,5.0866,5.1567,5.1567,5.1728,5.2027,5.2302,5.2579,2.3988,2.657,2.9812,3.3011,0.0,0.0,4.2625,4.3543,4.4699,4.8802,4.893,4.8847,5.0508,5.0151,0.0,5.1748,5.2674,5.3471,5.4289,5.5089,5.5897,5.6682,5.7501,5.7997,5.7997,5.7997,5.7997,5.7997,5.7997,5.7997,5.7997,5.7997,5.7997,5.7997,5.7997,5.7997,5.7997,5.7997,5.7997,5.7997,5.7997,5.7997,5.7997,5.7997,5.7997,5.7997,5.7997,5.7997,5.7997,5.7997,5.7997,5.7997,5.7997,5.7997,5.7905,5.7116,5.6889,5.6761,5.5104,5.4617,5.4581,5.3786,5.3528,5.3509,5.3509,5.3598,5.3704,5.3704,5.3745,5.3803,5.3803,5.3803,5.3803,5.3803,5.3803,5.3803,5.3803,5.3803,5.3803,5.3803,5.3803,5.3803,5.3803,5.3803,5.3803,5.3803,5.3803,5.3803,5.3803,5.3803,5.3487,5.2698,5.2605,5.2289,5.1491,5.1435,5.1425,5.1416,5.1425,5.1425,5.1407,5.1407,5.1407,5.1425,5.1425,5.1585,5.1936,5.1936,5.2061,5.234,5.3198,5.3765,2.4286,2.8209,0.0,3.5018,0.0,0.0,0.0,4.6461,0.0,0.0,5.1481,5.1041,5.1555,5.0986,5.0794,5.184,5.2207,5.2821,5.4216,5.4601,5.5042,5.586,5.6675,5.7171,5.7171,5.7666,5.7997,5.7997,5.7997,5.7997,5.7997,5.7997,5.7997,5.7997,5.7997,5.7997,5.7997,5.7997,5.7997,5.7997,5.7997,5.7997,5.7997,5.7997,5.7997,5.7997,5.7997,5.7997,5.7997,5.7997,5.7997,5.7997,5.7997,5.7997,5.796,5.7721,5.7405,5.6999,5.6511,5.6102,5.5785,5.5544,5.5061,5.4551,5.4551,5.4181,5.3774,5.3774,5.3784,5.3803,5.3803,5.3803,5.3803,5.3803,5.3803,5.3803,5.3803,5.3803,5.3803,5.3803,5.3803,5.3803,5.3803,5.3803,5.3803,5.3803,5.3803,5.3803,5.3803,5.3803,5.371,5.3469,5.3432,5.3348,5.3107,5.3299,5.3344,5.3098,5.3524,5.319,5.1817,5.1753,5.2131,5.2925,5.2944,5.3273,5.3944,5.3944,5.4097,5.4421,5.4681,5.4944,2.735,3.1311,0.0,3.8513,4.1956,4.5379,4.7984,0.0,0.0,0.0,5.2564,5.2097,5.2417,5.1811,5.1536,5.2344,5.2472,5.2821,5.3794,5.4197,5.4583,5.5071,5.5831,5.6326,5.6326,5.6748,5.7171,5.7501,5.7519,5.7666,5.7978,5.7997,5.7997,5.7997,5.7997,5.7997,5.7997,5.7997,5.7997,5.7997,5.7997,5.7997,5.7997,5.7997,5.7997,5.7997,5.7997,5.7997,5.7997,5.7997,5.7997,5.7997,5.7997,5.7997,5.7997,5.7997,5.7843,5.758,5.7219,5.7048,5.6929,5.6593,5.622,5.5907,5.5907,5.5579,5.5129,5.4774,5.468,5.4597,5.4269,5.4194,5.4134,5.386,5.3803,5.3803,5.3803,5.3803,5.3832,5.3972,5.4009,5.4035,5.4168,5.4194,5.4194,5.4194,5.4194,5.4194,5.4194,5.4194,5.4194,5.4194,5.4194,5.4194,5.4194,5.4372,5.4405,5.4212,5.4576,5.4322,5.33,5.3127,5.3387,5.4048,5.4075,5.438,5.5007,5.5007,5.5164,5.5455,5.5455,5.5556,3.1734,3.4966,3.8465,4.2496,4.4323,0.0,4.9939,5.1426,5.2234,5.3031,0.0,5.2325,5.3067,5.2601,5.2344,5.3086,5.3196,5.3196,5.3196,5.382,5.4289,5.4289,5.4997,5.5493,5.5493,5.5567,5.5886,5.6638,5.6693,5.7042,5.785,5.7886,5.7923,5.7997,5.7997,5.7997,5.7997,5.7997,5.7997,5.7997,5.7997,5.7997,5.7997,5.7997,5.7997,5.7997,5.7997,5.7997,5.7997,5.7997,5.7997,5.7997,5.7997,5.7997,5.7997,5.7997,5.8174,5.8293,5.7531,5.764,5.7985,5.7306,5.7234,5.7404,5.7404,5.7366,5.7119,5.6345,5.611,5.5959,5.5223,5.4969,5.4767,5.4147,5.3935,5.3898,5.3898,5.3898,5.3981,5.4289,5.4357,5.4438,5.4746,5.4799,5.4799,5.4799,5.4799,5.4799,5.4799,5.4799,5.4799,5.4799,5.4799,5.4799,5.4799,5.4829,5.4829,5.4799,5.4851,5.5002,5.5288,5.5021,5.4858,5.488,5.4887,5.503,5.5333,5.5333,5.5455,5.5708,5.5708,5.5708,3.1543,3.4634,0.0,0.0,4.6039,4.894,5.0453,5.1426,5.2234,5.3031,5.3067,5.2994,5.3177,5.3067,5.2994,5.3177,5.3196,5.3196,5.3196,5.3343,5.3453,5.3453,5.4179,5.4656,5.4656,5.5236,5.5677,5.586,5.586,5.6198,5.7024,5.7049,5.7354,5.7978,5.7997,5.7997,5.7997,5.7997,5.7997,5.7997,5.7997,5.7997,5.7997,5.7997,5.7997,5.7997,5.7997,5.7997,5.7997,5.7997,5.7997,5.7997,5.7997,5.7997,5.7997,5.7997,5.8174,5.8411,5.8491,5.8707,5.8961,5.9118,5.8746,5.8241,5.8241,5.7794,5.726,5.7062,5.7024,5.6986,5.6808,5.6251,5.5712,5.5553,5.5033,5.4583,5.4583,5.4583,5.4607,5.4677,5.4693,5.4716,5.4784,5.4799,5.4799,5.4799,5.4799,5.4799,5.4799,5.4799,5.4799,5.4799,5.4799,5.4799,5.4799,5.5049,5.5083,5.4814,5.5244,5.543,5.5307,5.5236,5.5288,5.5508,5.5514,5.5537,5.5613,5.5613,5.564,5.5708,5.5708,5.5708,3.2699,0.0,0.0,4.403,0.0,4.9711,5.0133,5.0849,5.1646,5.2454,5.292,5.3196,5.3196,5.3196,5.3196,5.3196,5.3196,5.3196,5.3196,5.3196,5.3196,5.3196,5.3563,5.382,5.382,5.4197,5.4601,5.4997,5.5034,5.5372,5.618,5.6235,5.6418,5.6833,5.7226,5.7428,5.7428,5.7813,5.7997,5.7997,5.7997,5.7997,5.7997,5.7997,5.7997,5.7997,5.7997,5.7997,5.7997,5.7997,5.8108,5.829,5.829,5.8402,5.8584,5.8599,5.875,5.8967,5.9168,5.9456,5.9761,5.9981,5.9841,5.9606,5.9606,5.9307,5.8893,5.8466,5.8352,5.8256,5.7886,5.744,5.7001,5.6581,5.5612,5.4799,5.4799,5.4799,5.4843,5.5021,5.5049,5.5071,5.5205,5.5231,5.5231,5.5231,5.5231,5.5231,5.5231,5.5231,5.5231,5.5231,5.5231,5.5231,5.5231,5.5388,5.5425,5.5237,5.5531,5.5635,5.551,5.5485,5.5562,5.5703,5.5708,5.5708,5.5708,5.5708,5.5708,5.5708,5.5708,5.5708,3.3354,0.0,4.0407,4.5608,4.8141,0.0,4.9574,5.0115,5.082,5.1638,5.2435,5.3031,5.3177,5.3196,5.3196,5.3196,5.3196,5.3196,5.3196,5.3196,5.3196,5.3196,5.3196,5.3196,5.3196,5.3196,5.3471,5.4142,5.4197,5.4546,5.5346,5.5383,5.5456,5.5603,5.6253,5.6602,5.6602,5.7391,5.784,5.7901,5.812,5.8209,5.8209,5.8209,5.8164,5.8115,5.8175,5.8209,5.8209,5.8209,5.8402,5.8691,5.8691,5.892,5.9206,5.9278,5.9376,5.9518,5.9643,5.9958,6.0307,6.0375,6.0572,6.0806,6.0806,6.0806,6.0646,5.9935,5.9723,5.9569,5.8896,5.8627,5.8338,5.7594,5.6391,5.5328,5.5016,5.4959,5.5037,5.532,5.537,5.5437,5.5657,5.5708,5.5708,5.5708,5.5708,5.5708,5.5708,5.5708,5.5708,5.5708,5.5708,5.5708,5.5708,5.5708,5.5708,5.5708,5.5708,5.5708,5.5708,5.5708,5.5708,5.5708,5.5708,5.5708,5.5708,5.5708,5.5708,5.5708,5.5708,5.5708,3.0679,0.0,4.1854,0.0,4.7278,4.8673,0.0,0.0,4.9986,0.0,5.1591,5.2362,5.3067,5.3196,5.3196,5.3196,5.3196,5.3196,5.3196,5.3196,5.3196,5.3196,5.3196,5.3196,5.3196,5.3196,5.3232,5.3343,5.3361,5.371,5.4528,5.4564,5.4876,5.5585,5.5695,5.5768,5.5768,5.6565,5.7144,5.7493,5.8544,5.9046,5.9046,5.9046,5.886,5.8542,5.89,5.9046,5.9046,5.9046,5.9065,5.9112,5.9112,5.914,5.9206,5.9278,5.9376,5.9553,5.9905,6.0144,6.0361,6.0641,6.0757,6.0806,6.0806,6.0806,6.0787,6.0666,6.0633,6.0589,6.0492,5.9915,5.9319,5.9184,5.8479,5.7415,5.5917,5.5571,5.5582,5.5635,5.564,5.5651,5.5684,5.5708,5.5708,5.5708,5.5708,5.5708,5.5708,5.5708,5.5708,5.5708,5.5708,5.5708,5.5708,5.5708,5.5708,5.5708,5.5708,5.5708,5.5708,5.5708,5.5708,5.5708,5.5708,5.5708,5.5708,5.5708,5.5708,5.5708,5.5708,5.5708,3.1446,3.6013,4.0311,0.0,4.6104,4.7297,4.8581,4.8875,4.9114,4.9949,5.0408,5.1032,5.2307,5.2913,5.3196,5.3196,5.3196,5.3196,5.3196,5.3196,5.3196,5.3196,5.3196,5.3196,5.3196,5.3196,5.3196,5.3196,5.3196,5.3343,5.371,5.3728,5.3973,5.4517,5.4971,5.5323,5.5543,5.6333,5.7064,5.7687,5.8709,5.9206,5.9215,5.9441,5.9325,5.8959,5.9112,5.9206,5.9206,5.9206,5.9343,5.9537,5.9588,5.9706,5.9898,6.0026,6.0097,6.0157,6.0391,6.0527,6.0597,6.0746,6.0806,6.0806,6.0806,6.0806,6.0806,6.0806,6.0806,6.0806,6.0806,6.0512,6.0069,5.9435,5.9127,5.8723,5.78,5.7376,5.7165,5.7165,5.7165,5.6992,5.6516,5.642,5.6266,5.5766,5.5708,5.5708,5.5708,5.5708,5.5708,5.5708,5.5708,5.5708,5.5708,5.5708,5.5708,5.5708,5.5708,5.5708,5.5708,5.5708,5.5708,5.5708,5.5708,5.5708,5.5708,5.5708,5.5708,5.5708,5.5708,5.5708,0.0,0.0,3.7481,4.1851,4.4073,4.5637,0.0,0.0,4.8346,0.0,4.9445,4.9978,5.1161,5.2215,5.2913,5.2913,5.3067,5.3196,5.3196,5.3196,5.3196,5.3196,5.3196,5.3196,5.3196,5.3196,5.3196,5.3196,5.3196,5.3196,5.3196,5.3282,5.3442,5.3691,5.4381,5.4894,5.519,5.6093,5.7048,5.8064,5.8828,5.9295,5.9511,5.9826,5.9782,5.9502,5.9502,5.9502,5.9502,5.9502,5.9681,5.9976,6.0038,6.0225,6.0472,6.0629,6.068,6.0648,6.0765,6.0806,6.0806,6.0806,6.0806,6.0806,6.0806,6.0806,6.0806,6.0806,6.0806,6.0806,6.0806,6.0806,6.0594,5.9729,5.9685,5.9665,5.9031,5.8588,5.8294,5.8294,5.8294,5.8088,5.744,5.7324,5.7113,5.6453,5.6357,5.6357,5.6357,5.6357,5.6357,5.6357,5.6357,5.6266,5.6055,5.6035,5.5939,5.5708,5.5708,5.5708,5.5708,5.592,5.6035,5.6035,5.6247,5.6145,5.5708,5.5708,5.5708,5.5708,5.5708,5.5708,0.0,2.9435,0.0,3.7245,4.0721,0.0,0.0,0.0,4.7779,4.8262,4.9031,4.9629,4.9721,5.1014,5.206,5.206,5.2711,5.3196,5.3196,5.3196,5.3196,5.3196,5.3196,5.3196,5.3196,5.3196,5.3196,5.3196,5.3196,5.3196,5.3196,5.3494,5.3682,5.3701,5.4107,5.4346,5.4363,5.5545,5.6913,5.8478,5.8899,5.9538,6.0347,6.0368,6.0368,6.0347,6.0347,6.0347,6.0347,6.0347,6.0396,6.0453,6.0479,6.0525,6.0597,6.0667,6.0691,6.0697,6.0783,6.0806,6.0806,6.0806,6.0806,6.0806,6.0806,6.0806,6.0806,6.0806,6.0806,6.0806,6.0806,6.0806,6.0787,6.0729,6.0723,6.0281,5.8684,5.8313,5.8294,5.8294,5.8294,5.8294,5.8236,5.8223,5.8223,5.8159,5.8165,5.8165,5.8165,5.8165,5.8165,5.8165,5.8165,5.7838,5.6997,5.6926,5.6574,5.5747,5.5708,5.5708,5.5708,5.6497,5.6926,5.6926,5.7742,5.7357,5.5708,5.5708,5.5708,5.5708,5.5708,5.5708,0.0,0.0,0.0,3.4534,3.776,4.048,4.2754,4.5676,4.7908,4.7862,4.8503,4.9012,4.8813,5.0123,5.1224,5.1224,5.1647,5.1979,5.1979,5.2132,5.2446,5.3004,5.3078,5.3283,5.3842,5.3917,5.3917,5.3917,5.3917,5.3917,5.3917,5.4016,5.4174,5.4392,5.456,5.4742,5.5007,5.5945,5.6706,5.7308,5.8519,5.9255,5.9587,6.0189,6.0465,6.0465,6.0512,6.0505,6.0465,6.0465,6.0505,6.0565,6.0565,6.0578,6.061,6.071,6.0747,6.0703,6.0783,6.0806,6.0806,6.0806,6.0806,6.0806,6.0806,6.0806,6.0806,6.0806,6.0806,6.0806,6.0806,6.0806,6.0806,6.0806,6.0806,6.0633,6.0031,5.9896,5.9896,5.9896,5.9896,5.9723,5.9165,5.9069,5.8896,5.8377,5.8294,5.8294,5.8294,5.8294,5.8294,5.8294,5.8294,5.8165,5.7857,5.7838,5.7703,5.7396,5.7376,5.7376,5.7376,5.7665,5.7838,5.7838,5.8146,5.7723,5.6536,5.6536,5.6247,5.5708,5.5708,5.5708,2.5654,0.0,0.0,0.0,0.0,3.7392,4.136,4.4279,4.6383,4.7181,4.7992,4.8575,4.8639,4.9547,5.0351,5.0514,5.1046,5.1438,5.1438,5.1598,5.1908,5.2498,5.2579,5.2926,5.3772,5.3873,5.4021,5.4311,5.4338,5.4338,5.4338,5.446,5.4682,5.4988,5.5004,5.5127,5.5396,5.5938,5.632,5.6613,5.7754,5.8455,5.8761,5.9676,6.0111,6.0111,6.0476,6.0597,6.0532,6.0532,6.0578,6.0636,6.0636,6.0655,6.068,6.0771,6.0777,6.0734,6.0788,6.0806,6.0806,6.0806,6.0806,6.0806,6.0806,6.0806,6.0806,6.0806,6.0806,6.0806,6.0806,6.0806,6.0806,6.0806,6.0806,6.0806,6.0806,6.0806,6.0806,6.0806,6.0806,6.0614,6.0031,5.9935,5.9742,5.9223,5.9146,5.9146,5.9146,5.9146,5.9146,5.9146,5.9146,5.9031,5.8723,5.8698,5.8583,5.8313,5.8294,5.8294,5.8294,5.8569,5.8698,5.8698,5.8992,5.8704,5.7844,5.7574,5.7132,5.6569,5.6569,5.6569,0.0,0.0,0.0,0.0,0.0,0.0,4.1284,0.0,4.303,4.6008,4.7346,4.8224,4.9066,4.9261,4.9433,4.9879,5.0904,5.1635,5.1635,5.1643,5.167,5.1689,5.1753,5.2116,5.2915,5.3056,5.3443,5.4323,5.4379,5.4398,5.4436,5.4806,5.512,5.5395,5.5396,5.5403,5.5403,5.5403,5.5785,5.6562,5.6671,5.7156,5.7998,5.8898,5.9307,5.9351,6.0296,6.0673,6.0604,6.0604,6.0648,6.0697,6.0691,6.0734,6.0806,6.0806,6.0806,6.0806,6.0806,6.0806,6.0806,6.0806,6.0806,6.0806,6.0806,6.0806,6.0806,6.0806,6.0806,6.0806,6.0806,6.0806,6.0806,6.0806,6.0806,6.0806,6.0806,6.0806,6.0806,6.0806,6.0806,6.0806,6.0806,6.0806,6.0806,6.0806,6.0806,6.0806,6.0806,6.0806,6.0806,6.0806,6.0806,6.0454,5.9608,5.955,5.9204,5.8409,5.8371,5.8371,5.8371,5.9127,5.955,5.955,6.0358,6.0377,5.955,5.8723,5.8313,5.8294,5.8294,5.8294,2.4185,0.0,0.0,0.0,0.0,0.0,0.0,0.0,3.9738,4.2172,4.3825,4.5392,4.7158,4.8213,4.8843,4.8977,4.974,5.0326,5.0326,5.0527,5.0925,5.1553,5.1642,5.1972,5.2783,5.2913,5.3294,5.413,5.4274,5.4554,5.5082,5.5234,5.5313,5.5395,5.5396,5.5428,5.547,5.5421,5.5536,5.5814,5.6459,5.6905,5.718,5.8685,5.9368,5.9413,6.0368,6.0771,6.0747,6.0679,6.0703,6.0777,6.071,6.0734,6.0806,6.0806,6.0806,6.0806,6.0806,6.0806,6.0806,6.0806,6.0806,6.0806,6.0806,6.0806,6.0806,6.0806,6.0806,6.0806,6.0806,6.0806,6.0806,6.0806,6.0806,6.0806,6.0806,6.0806,6.0806,6.0806,6.0806,6.0806,6.0806,6.0806,6.0806,6.0806,6.0806,6.0806,6.0806,6.0806,6.0806,6.0806,6.0806,6.071,6.0454,6.0441,6.0339,6.0127,6.0108,6.0108,6.0108,6.0319,6.0441,6.0441,6.0691,6.0691,6.0441,5.9588,5.8877,5.8294,5.8294,5.8294,0.0,0.0,0.0,0.0,0.0,0.0,3.2992,3.5178,3.7515,4.0212,4.2102,4.3755,4.5388,4.6828,4.7767,4.7791,4.8793,4.9657,4.9968,5.0188,5.0493,5.1003,5.1084,5.1415,5.2212,5.2362,5.273,5.3541,5.3665,5.4096,5.494,5.5274,5.5446,5.5444,5.5446,5.5453,5.5458,5.5457,5.545,5.5462,5.6033,5.6301,5.6345,5.7759,5.8594,5.8998,5.9865,6.0454,6.08,6.0765,6.0752,6.08,6.0765,6.0771,6.0806,6.0806,6.0806,6.0806,6.0806,6.0806,6.0806,6.0806,6.0806,6.0806,6.0806,6.0806,6.0806,6.0806,6.0806,6.0806,6.0806,6.0806,6.0806,6.0806,6.0806,6.0806,6.0806,6.0806,6.0806,6.0806,6.0806,6.0806,6.0806,6.0806,6.0806,6.0806,6.0806,6.0806,6.0806,6.0806,6.0806,6.0806,6.0806,6.0806,6.0806,6.0806,6.0806,6.0806,6.0806,6.0806,6.0806,6.0806,6.0806,6.0806,6.0806,6.0806,6.0806,6.0281,5.98,5.9338,5.9338,5.9338,0.0,0.0,0.0,0.0,3.2429,0.0,3.5929,3.5887,3.5879,3.8866,4.0726,4.2135,4.3092,4.4728,4.5892,4.5865,4.7499,4.9097,5.0038,5.025,5.0308,5.0302,5.0342,5.0679,5.1391,5.1526,5.1886,5.269,5.2843,5.3322,5.4348,5.4996,5.5402,5.551,5.5504,5.5476,5.5428,5.5501,5.5486,5.5438,5.5556,5.5607,5.5646,5.6571,5.742,5.8204,5.9108,5.9935,6.0666,6.0768,6.0806,6.0806,6.0806,6.0806,6.0806,6.0806,6.0806,6.0806,6.0806,6.0806,6.0806,6.0806,6.0806,6.0806,6.0806,6.0806,6.0806,6.0806,6.0806,6.0806,6.0806,6.0806,6.0806,6.0806,6.0806,6.0806,6.0806,6.0806,6.0806,6.0806,6.0806,6.0806,6.0806,6.0806,6.0806,6.0806,6.0806,6.0806,6.0806,6.0806,6.0806,6.0806,6.0806,6.0806,6.0806,6.0806,6.0806,6.0806,6.0806,6.0806,6.0806,6.0806,6.0806,6.0806,6.0806,6.0806,6.0806,6.0806,6.0806,6.0806,6.0806,6.0806,3.2545,3.366,3.4561,3.183,0.0,0.0,3.0719,3.1674,3.3541,0.0,3.5127,3.6251,3.7791,4.0008,4.1377,4.0692,4.3714,4.688,4.9023,4.995,5.0354,5.0308,5.0314,5.039,5.055,5.0602,5.0996,5.1791,5.2447,5.3252,5.4261,5.4395,5.481,5.5554,5.5527,5.5539,5.5638,5.559,5.5596,5.5635,5.5676,5.5687,5.5712,5.6607,5.7093,5.7343,5.8858,5.9608,5.9819,6.0512,6.0806,6.0806,6.0806,6.0806,6.0806,6.0806,6.0806,6.0806,6.0806,6.0806,6.0806,6.0806,6.0806,6.0806,6.0806,6.0806,6.0806,6.0806,6.0806,6.0806,6.0806,6.0806,6.0806,6.0806,6.0806,6.0806,6.0806,6.0806,6.0806,6.0806,6.0806,6.0806,6.0806,6.0806,6.0806,6.0806,6.0806,6.0806,6.0806,6.0806,6.0806,6.0806,6.0806,6.0806,6.0806,6.0806,6.0806,6.0806,6.0806,6.0806,6.0806,6.0806,6.0806,6.0806,6.0806,6.0806,6.0806,6.0806,6.0806,6.0806,6.0806,6.0806,3.5369,3.5734,3.6292,3.4619,0.0,0.0,0.0,3.2615,3.3371,3.5042,3.4701,3.4621,3.6328,3.838,3.9535,3.8692,4.2102,4.5126,4.5937,4.7876,4.919,4.9163,4.9507,4.9745,4.9698,5.0122,5.0551,5.0913,5.1765,5.2499,5.3017,5.3847,5.4522,5.4995,5.5385,5.5596,5.5596,5.5629,5.564,5.564,5.5673,5.5708,5.5708,5.6151,5.6593,5.708,5.8357,5.9127,5.9569,6.0441,6.0806,6.0806,6.0806,6.0806,6.0806,6.0806,6.0806,6.0806,6.0806,6.0806,6.0806,6.0806,6.0806,6.0806,6.0806,6.0806,6.0806,6.0806,6.0806,6.0806,6.0806,6.0806,6.0806,6.0806,6.0806,6.0806,6.0806,6.0806,6.0806,6.0806,6.0806,6.0806,6.0806,6.0806,6.0806,6.0806,6.0806,6.0806,6.0806,6.0806,6.0806,6.0806,6.0806,6.0806,6.0806,6.0806,6.0806,6.0806,6.0806,6.0806,6.0806,6.0806,6.0806,6.0806,6.0806,6.0806,6.0806,6.0806,6.0806,6.0806,6.0806,6.0806,0.0,0.0,0.0,0.0,0.0,3.6977,0.0,0.0,0.0,3.6481,3.5296,3.4244,0.0,0.0,3.7482,3.6673,4.0085,4.2477,4.1455,4.4196,4.6498,4.6947,4.8011,4.8633,4.8408,4.8728,4.9261,5.0021,5.0168,5.0689,5.1738,5.313,5.4065,5.4403,5.5105,5.5487,5.5539,5.566,5.5662,5.5613,5.5662,5.5708,5.5708,5.5708,5.6074,5.6805,5.7665,5.8511,5.9338,6.0204,6.0646,6.0806,6.0806,6.0806,6.0806,6.0806,6.0806,6.0806,6.0806,6.0806,6.0806,6.0806,6.0806,6.0806,6.0806,6.0806,6.0806,6.0806,6.0806,6.0806,6.0806,6.0806,6.0806,6.0806,6.0806,6.0806,6.0806,6.0806,6.0806,6.0806,6.0806,6.0806,6.0806,6.0806,6.0806,6.0806,6.0806,6.0806,6.0806,6.0806,6.0806,6.0806,6.0806,6.0806,6.0806,6.0806,6.0806,6.0806,6.0806,6.0806,6.0806,6.0806,6.0806,6.0806,6.0806,6.0806,6.0806,6.0806,6.0806,6.0806,6.0806,6.0806,0.0,0.0,0.0,0.0,4.0662,0.0,0.0,0.0,3.5747,3.3862,0.0,0.0,0.0,0.0,0.0,0.0,3.4811,3.7004,3.5427,3.8131,4.1058,4.3149,4.5519,4.6684,4.5906,4.4561,4.5288,4.8957,4.6576,4.6964,5.1565,5.1998,5.2834,5.4442,5.4587,5.4967,5.5668,5.5678,5.5703,5.5698,5.5703,5.5708,5.5708,5.5708,5.5747,5.5901,5.6766,5.7632,5.8511,5.9319,6.0108,6.0806,6.0806,6.0806,6.0806,6.0806,6.0806,6.0806,6.0806,6.0806,6.0806,6.0806,6.0806,6.0806,6.0806,6.0806,6.0806,6.0806,6.0806,6.0806,6.0806,6.0806,6.0806,6.0806,6.0806,6.0806,6.0806,6.0806,6.0806,6.0806,6.0806,6.0806,6.0806,6.0806,6.0806,6.0806,6.0806,6.0806,6.0806,6.0806,6.0806,6.0806,6.0806,6.0806,6.0806,6.0806,6.0806,6.0806,6.0806,6.0806,6.0806,6.0806,6.0806,6.0806,6.0806,6.0806,6.0806,6.0806,6.0806,6.0806,6.0806,6.0806,0.0,0.0,0.0,0.0,0.0,0.0,3.6808,0.0,3.5372,0.0,0.0,0.0,0.0,0.0,0.0,0.0,3.3022,3.4083,3.291,3.4395,3.6697,3.9652,4.1434,4.3004,4.4542,4.3565,4.3977,4.6743,4.5133,4.5666,4.9396,5.1006,5.2406,5.3697,5.4241,5.4895,5.5689,5.5708,5.5708,5.5708,5.5708,5.5708,5.5708,5.5708,5.5708,5.5747,5.6613,5.7209,5.7646,5.8954,5.9723,6.0108,6.0589,6.0806,6.0806,6.0806,6.0806,6.0806,6.0806,6.0806,6.0806,6.0806,6.0806,6.0806,6.0806,6.0806,6.0806,6.0806,6.0806,6.0806,6.0806,6.0806,6.0806,6.0806,6.0806,6.0806,6.0806,6.0806,6.0806,6.0806,6.0806,6.0806,6.0806,6.0806,6.0806,6.0806,6.0806,6.0806,6.0806,6.0806,6.0806,6.0806,6.0806,6.0806,6.0806,6.0806,6.0806,6.0806,6.0806,6.0806,6.0806,6.0806,6.0806,6.0806,6.0806,6.0806,6.0806,6.0806,6.0806,6.0806,6.0806,6.0806,4.4605,0.0,0.0,0.0,0.0,0.0,0.0,0.0,0.0,0.0,0.0,0.0,0.0,0.0,0.0,0.0,0.0,3.2372,0.0,3.1352,0.0,3.6224,3.7785,3.9611,4.2217,4.0818,4.1017,4.4135,4.2656,4.3475,4.777,4.9756,5.1509,5.3119,5.3788,5.4645,5.5689,5.5708,5.5708,5.5708,5.5708,5.5708,5.5708,5.5708,5.5708,5.5747,5.6362,5.6786,5.7118,5.8569,5.93,5.9588,6.0454,6.0806,6.0806,6.0806,6.0806,6.0806,6.0806,6.0806,6.0806,6.0806,6.0806,6.0806,6.0806,6.0806,6.0806,6.0806,6.0806,6.0806,6.0806,6.0806,6.0806,6.0806,6.0806,6.0806,6.0806,6.0806,6.0806,6.0806,6.0806,6.0806,6.0806,6.0806,6.0806,6.0806,6.0806,6.0806,6.0806,6.0806,6.0806,6.0806,6.0806,6.0806,6.0806,6.0806,6.0806,6.0806,6.0806,6.0806,6.0806,6.0806,6.0806,6.0806,6.0806,6.0806,6.0806,6.0806,6.0806,6.0806,6.0806,6.0806,4.7235,4.737,4.6774,4.1781,4.1143,4.0673,3.6519,0.0,3.8684,0.0,0.0,0.0,0.0,0.0,0.0,0.0,0.0,0.0,0.0,0.0,0.0,0.0,0.0,3.7141,3.8013,3.4372,3.4661,4.1222,3.7907,3.9214,4.7557,4.8072,4.9643,5.2995,5.3196,5.403,5.5689,5.5708,5.5708,5.5708,5.5708,5.5708,5.5708,5.5708,5.5708,5.5708,5.5728,5.6228,5.7074,5.7973,5.88,5.9588,6.0454,6.0806,6.0806,6.0806,6.0806,6.0806,6.0806,6.0806,6.0806,6.0806,6.0806,6.0806,6.0806,6.0806,6.0806,6.0806,6.0806,6.0806,6.0806,6.0806,6.0806,6.0806,6.0806,6.0806,6.0806,6.0806,6.0806,6.0806,6.0806,6.0806,6.0806,6.0806,6.0806,6.0806,6.0806,6.0806,6.0806,6.0806,6.0806,6.0806,6.0806,6.0806,6.0806,6.0806,6.0806,6.0806,6.0806,6.0806,6.0806,6.0806,6.0806,6.0806,6.0806,6.0806,6.0806,6.0806,6.0806,6.0806,6.0806,6.0806,4.7851,4.8284,4.7943,4.4,4.2791,4.164,3.7996,3.8277,3.8819,0.0,0.0,0.0,0.0,0.0,0.0,0.0,0.0,0.0,0.0,0.0,0.0,0.0,0.0,0.0,0.0,3.2993,3.4101,3.807,3.7525,3.952,4.5239,4.7646,4.9677,5.1471,5.2615,5.376,5.4895,5.5439,5.5708,5.5708,5.5708,5.5708,5.5708,5.5708,5.5708,5.5708,5.5708,5.5862,5.6247,5.7703,5.8467,5.8858,6.0242,6.0806,6.0806,6.0806,6.0806,6.0806,6.0806,6.0806,6.0806,6.0806,6.0806,6.0806,6.0806,6.0806,6.0806,6.0806,6.0806,6.0806,6.0806,6.0806,6.0806,6.0806,6.0806,6.0806,6.0806,6.0806,6.0806,6.0806,6.0806,6.0806,6.0806,6.0806,6.0806,6.0806,6.0806,6.0806,6.0806,6.0806,6.0806,6.0806,6.0806,6.0806,6.0806,6.0806,6.0806,6.0806,6.0806,6.0806,6.0806,6.0806,6.0806,6.0806,6.0806,6.0806,6.0806,6.0806,6.0806,6.0806,6.0806,6.0806,4.8644,4.8942,4.8596,4.5524,4.4333,4.3047,3.9658,4.0012,4.0589,3.8869,0.0,0.0,0.0,0.0,0.0,0.0,0.0,0.0,0.0,2.8277,0.0,0.0,0.0,0.0,0.0,3.079,3.1882,3.5962,3.6177,3.8377,4.356,4.6771,4.9135,5.062,5.2308,5.3626,5.4491,5.5304,5.5708,5.5708,5.5708,5.5708,5.5708,5.5708,5.5708,5.5708,5.5708,5.5708,5.5843,5.7588,5.8294,5.8467,6.0146,6.0806,6.0806,6.0806,6.0806,6.0806,6.0806,6.0806,6.0806,6.0806,6.0806,6.0806,6.0806,6.0806,6.0806,6.0806,6.0806,6.0806,6.0806,6.0806,6.0806,6.0806,6.0806,6.0806,6.0806,6.0806,6.0806,6.0806,6.0806,6.0806,6.0806,6.0806,6.0806,6.0806,6.0806,6.0806,6.0806,6.0806,6.0806,6.0806,6.0806,6.0806,6.0806,6.0806,6.0806,6.0806,6.0806,6.0806,6.0806,6.0806,6.0806,6.0806,6.0806,6.0806,6.0806,6.0806,6.0806,6.0806,6.0806,6.0806]}]]